GFSMA_250_spd_000.txt.gz
Wind_Speed
59 59 59 52 54 59 67 59 64 56 52 61 57 56 47 52 61 61 54 53 57 55 53 57 58 58 58 58 54 54 57 60 59 58 60 60 61 61 58 53 61 61 62
62 63 61 56 49 68 71 65 64 62 68 65 64 60 54 49 55 61 64 57 56 61 59 61 65 63 62 61 59 63 65 65 68 65 61 62 63 64 63 61 58 59 63
63 68 67 65 62 68 73 71 66 65 67 74 74 71 69 57 57 64 61 69 63 56 61 61 63 59 58 61 63 62 61 67 69 68 69 69 67 65 65 68 66 63 62
68 71 72 72 67 74 79 80 75 73 77 80 76 74 71 69 68 69 68 65 69 61 64 69 65 62 59 62 66 61 58 59 65 69 72 71 69 69 69 69 69 69 65
74 75 78 82 71 81 83 85 81 81 74 74 75 77 81 76 75 69 74 74 67 69 72 72 72 65 60 61 61 57 58 58 57 61 63 65 63 65 67 70 70 71 69
81 81 82 89 83 82 89 90 96 94 86 89 88 90 89 84 80 74 74 78 78 73 66 66 73 67 63 67 68 65 62 56 57 56 59 55 55 55 59 63 67 66 66
88 89 89 93 98 93 91 99 98 99 98 96 105 98 96 96 90 84 77 81 86 84 82 82 81 72 68 71 71 70 66 60 54 51 56 54 55 52 50 59 59 63 62
90 96 100 97 99 107 103 101 109 108 108 110 110 106 104 97 95 92 89 87 88 94 89 88 86 88 78 78 74 72 69 64 60 58 59 59 59 54 49 50 53 54 57
80 93 104 106 107 107 114 115 112 113 117 116 118 118 112 103 102 101 95 94 92 91 92 91 91 91 82 79 74 73 72 69 66 65 63 61 59 57 55 53 53 54 56
67 61 98 104 117 119 119 121 123 123 122 123 124 121 121 115 107 105 107 105 102 96 94 93 92 98 91 85 80 79 75 74 71 68 65 63 62 61 60 58 58 59 61
72 71 68 82 107 114 128 131 130 131 134 133 134 132 128 125 117 116 114 111 109 106 101 99 99 98 98 97 90 85 84 80 78 75 71 69 66 65 66 66 62 63 62
69 73 72 74 79 91 109 126 138 141 141 141 142 144 142 139 136 129 123 119 113 111 110 107 103 100 100 101 103 93 89 86 85 84 78 72 70 71 72 72 69 67 64
71 71 73 75 76 77 86 92 113 129 145 151 150 148 151 152 148 146 140 129 125 119 116 109 106 102 102 106 115 106 102 100 95 90 86 82 78 77 75 74 74 74 69
71 71 72 76 75 76 80 85 90 102 120 120 138 151 160 163 157 155 154 144 134 128 125 120 113 111 108 109 111 110 107 104 99 97 92 90 84 82 78 75 76 76 75
70 70 69 73 77 78 78 79 82 88 96 106 115 130 147 154 156 156 161 159 146 137 131 132 126 121 118 113 110 112 120 114 107 97 94 95 89 85 82 81 80 76 79
69 69 68 69 72 76 80 83 85 87 89 93 99 107 116 125 135 138 138 154 161 158 150 143 138 133 130 123 120 121 123 125 117 110 106 97 92 88 88 88 86 85 87
68 68 69 70 73 76 80 82 84 86 87 89 91 94 99 106 112 116 112 110 127 152 161 157 153 144 137 136 133 131 129 131 125 123 113 109 99 96 93 92 92 92 91
67 67 68 70 73 75 78 80 83 86 88 89 92 96 98 102 102 104 98 95 98 110 124 151 158 155 147 147 139 135 133 129 130 128 123 115 105 101 98 100 97 93 93
68 67 67 69 72 75 77 80 81 81 83 83 84 86 87 92 90 92 91 87 87 98 110 116 141 156 161 156 145 139 134 131 129 129 125 123 112 110 107 105 102 99 97
68 68 70 71 72 72 73 74 74 73 73 74 75 76 77 80 81 83 79 75 81 86 100 108 113 137 156 161 159 145 141 135 127 127 125 124 113 104 107 108 106 97 94
68 70 70 70 68 69 70 67 66 65 65 65 65 65 65 67 70 72 72 67 72 76 89 104 106 119 139 151 159 155 153 141 131 129 123 121 111 103 101 101 99 92 95
70 70 67 66 67 66 62 61 59 58 58 58 59 59 59 59 61 64 65 66 67 71 80 93 103 108 122 138 153 154 154 144 138 130 126 119 113 108 104 103 104 103 99
69 66 64 63 60 59 57 55 53 53 54 55 55 55 55 56 56 58 60 61 63 67 73 85 98 100 110 119 139 151 153 147 141 137 128 120 118 114 112 111 109 104 100
64 62 60 57 55 53 51 49 49 50 50 50 49 49 51 50 51 52 55 57 60 63 70 77 88 97 103 112 121 143 153 150 144 146 134 120 118 117 114 109 106 102 107
61 58 54 53 50 47 47 45 44 44 45 46 45 44 44 46 45 46 51 53 57 62 68 74 80 92 97 105 109 129 146 152 145 146 138 125 123 123 123 114 110 109 108
56 54 50 48 45 44 41 39 38 40 41 42 41 41 40 42 42 42 48 51 54 59 61 67 74 84 89 97 106 116 131 148 151 147 139 127 123 128 118 112 109 109 108

GFSMA_250_spd_003.txt.gz
Wind_Speed
51 56 60 64 64 67 69 68 68 69 60 59 60 53 53 53 58 49 47 46 53 46 54 57 51 55 58 60 58 58 59 55 55 56 49 56 54 53 54 54 54 51 51
53 58 61 67 67 70 73 72 71 68 65 66 63 63 66 58 58 59 57 51 51 52 52 54 56 58 61 61 63 63 65 62 56 60 56 50 59 55 57 58 59 57 54
58 60 66 71 72 75 75 76 75 75 76 70 70 65 68 67 62 61 64 60 57 61 58 58 59 61 59 60 62 63 61 61 60 60 58 60 60 63 61 61 61 65 65
66 64 69 72 79 78 83 82 79 81 83 84 84 80 83 81 75 74 72 66 61 69 67 69 65 62 68 66 61 65 63 64 61 63 61 62 65 67 68 66 68 65 66
70 73 72 75 81 86 87 87 89 83 86 87 90 90 90 89 83 79 81 73 72 63 73 74 79 72 65 67 72 68 71 70 63 62 60 62 64 66 70 70 69 70 69
70 75 81 82 83 88 91 93 90 87 87 88 94 93 91 92 93 88 85 82 81 80 74 72 76 81 77 73 68 68 73 68 64 63 61 58 59 58 64 67 68 70 70
55 61 77 90 90 92 97 97 99 97 93 91 96 102 94 93 96 89 93 92 86 86 83 76 79 79 77 79 76 70 71 70 67 70 69 66 65 59 64 62 61 62 63
58 72 72 84 96 99 101 102 106 105 98 96 101 105 99 100 98 93 95 98 96 94 92 87 80 81 83 81 79 81 83 81 72 73 72 73 72 70 65 57 56 55 56
59 63 59 67 85 98 105 111 111 115 112 106 102 112 112 110 109 106 101 99 100 99 100 96 88 84 82 88 87 82 83 80 74 76 76 74 73 69 63 56 56 57 57
62 61 64 67 69 85 99 115 119 121 122 121 117 114 115 119 118 111 112 111 111 109 104 102 99 91 85 86 93 93 94 90 79 81 79 77 77 71 66 59 59 59 60
70 62 65 66 73 74 82 98 123 125 130 130 131 128 120 122 127 127 122 120 118 117 116 112 105 99 94 87 92 99 101 99 93 81 80 83 80 75 71 63 59 59 58
77 68 64 67 69 75 80 83 101 115 135 136 137 141 139 129 131 135 130 131 129 125 123 121 118 115 107 99 96 100 103 103 99 93 83 83 83 76 73 68 61 60 60
79 72 65 66 69 71 76 77 83 95 110 125 148 149 148 150 146 141 139 141 139 137 131 129 125 121 119 110 106 102 103 107 104 97 93 84 85 81 80 75 68 66 65
80 73 69 66 67 68 72 76 79 84 88 106 119 139 158 154 154 154 156 148 147 143 143 139 135 127 122 119 116 110 107 106 103 101 99 93 90 88 86 85 75 71 72
78 72 69 68 68 69 71 73 76 80 84 90 101 120 131 147 159 165 166 159 161 153 147 147 144 139 136 129 122 123 118 111 106 109 106 103 97 95 91 87 82 84 80
78 72 67 67 68 70 72 74 76 79 82 87 93 103 116 127 136 143 150 162 169 169 165 157 155 148 141 135 132 122 118 121 117 115 111 109 107 103 99 94 93 93 88
76 71 67 67 68 70 73 76 77 79 80 82 86 92 99 108 117 124 132 139 141 146 148 160 168 163 157 148 145 137 131 121 120 121 117 117 114 111 106 102 98 96 89
73 69 67 67 68 70 71 74 77 79 80 81 83 85 85 92 96 103 110 116 120 123 123 122 129 152 169 165 162 151 148 139 127 125 124 122 122 117 116 111 103 96 91
72 69 67 67 68 69 70 71 71 72 74 76 79 81 83 87 87 91 95 99 102 103 103 106 111 113 125 141 155 163 158 150 140 132 127 126 129 123 122 119 115 106 104
70 69 67 66 65 64 64 65 68 68 70 72 75 76 77 77 78 80 82 84 87 88 88 92 98 100 106 113 114 124 139 153 149 144 135 136 139 131 129 124 121 118 114
70 68 66 64 62 61 63 64 64 65 67 71 72 73 74 73 73 74 74 77 78 77 76 79 83 89 92 100 101 106 117 133 147 148 145 143 143 142 137 135 131 125 122
68 67 64 61 61 62 63 62 62 62 64 64 65 66 66 66 66 67 67 70 72 72 71 72 75 79 83 91 95 98 105 111 126 145 154 152 147 146 145 141 136 133 126
68 65 63 60 60 61 60 58 58 57 57 57 57 58 58 58 59 60 60 62 64 66 67 67 69 73 81 87 95 96 100 104 107 126 147 153 151 147 149 145 141 135 128
66 64 61 60 59 58 55 54 53 51 50 51 52 53 54 54 54 55 55 57 59 61 63 64 63 72 78 87 97 97 95 102 102 111 134 154 150 149 151 153 146 139 129
65 61 59 56 56 54 51 49 47 46 47 47 47 47 47 48 48 47 49 51 53 56 59 61 63 71 78 84 91 95 94 98 99 105 119 136 145 147 149 147 141 135 127
62 59 57 54 51 49 45 44 43 43 42 42 41 41 40 40 41 41 41 43 47 50 54 58 62 67 75 80 87 91 91 95 96 103 110 128 136 145 148 143 137 132 125

GFSMA_250_spd_006.txt.gz
Wind_Speed
55 57 56 54 54 57 64 70 83 102 103 110 112 108 100 89 76 68 63 61 55 51 44 46 52 55 61 61 59 58 59 61 58 54 52 50 47 46 46 48 52 55 56
56 59 62 61 61 58 63 67 73 81 90 97 99 98 88 84 79 73 68 66 58 52 51 47 48 50 57 64 65 63 59 59 60 57 58 51 56 52 48 51 49 54 57
41 53 61 65 68 69 65 68 69 75 77 81 81 84 82 79 79 79 71 74 64 61 57 52 50 52 53 60 68 70 67 64 61 60 59 56 58 55 57 52 50 58 57
30 35 41 56 68 75 74 71 73 76 76 79 83 85 87 84 86 80 81 75 69 65 61 62 58 57 55 58 66 68 62 63 62 61 64 63 64 61 59 61 57 54 58
34 36 41 46 50 69 78 80 78 80 84 83 86 85 92 89 89 85 85 74 75 70 63 60 63 61 62 60 66 73 69 65 62 65 65 67 63 62 57 59 60 61 61
43 46 47 51 55 57 71 83 85 85 87 91 92 93 91 95 95 93 90 84 83 79 73 73 72 69 67 68 68 72 69 63 64 66 66 65 62 63 63 60 57 59 62
55 58 53 51 55 56 65 79 89 91 93 96 98 100 99 99 100 105 95 93 90 93 84 83 81 79 76 71 76 75 75 67 66 68 68 66 68 67 66 68 65 61 57
65 65 65 63 60 59 63 73 85 92 97 102 103 104 108 108 107 105 105 103 101 102 102 95 90 90 85 82 78 78 83 76 73 68 69 68 74 72 72 65 70 66 69
68 70 73 68 66 66 67 71 81 94 98 107 110 111 110 111 114 112 109 109 104 106 109 107 99 95 94 91 89 85 81 83 85 85 78 76 73 73 74 68 71 71 71
80 79 76 75 75 72 74 73 75 83 98 109 117 118 122 119 118 119 114 113 113 112 114 113 109 105 103 98 95 91 89 85 85 83 79 79 78 73 74 71 73 75 73
92 88 88 78 76 76 75 74 77 81 85 95 108 120 125 125 129 123 122 116 116 117 115 115 112 110 107 106 104 98 98 94 89 87 86 84 80 78 81 81 80 74 75
98 97 97 88 85 85 81 76 75 79 86 92 100 109 123 130 131 131 130 126 121 120 119 118 117 114 113 113 108 106 102 101 97 91 86 90 88 85 81 83 79 77 77
98 99 98 95 89 85 83 79 74 74 80 87 94 104 109 120 133 136 136 134 136 128 125 122 124 123 120 116 112 108 106 104 98 96 92 92 93 91 89 83 80 76 77
103 103 102 98 94 89 80 76 73 72 74 80 87 93 98 114 124 132 141 143 140 142 139 133 130 130 130 128 122 119 115 107 101 101 101 95 96 94 93 90 87 85 77
106 107 102 96 90 83 77 74 71 70 70 74 81 86 92 98 113 123 127 137 151 146 147 147 142 141 137 133 127 129 125 121 118 114 106 103 102 96 97 97 91 90 84
111 107 100 92 84 77 74 71 69 69 68 72 76 82 87 91 98 106 118 129 132 145 155 153 153 151 148 142 136 131 126 126 126 120 114 116 115 110 105 104 99 97 92
111 103 93 86 81 76 71 69 68 67 68 70 73 77 82 87 91 96 102 111 120 126 130 151 163 158 156 155 147 144 139 131 125 123 121 116 118 117 118 113 107 102 99
106 98 87 85 79 74 70 67 66 67 69 71 73 75 77 83 86 91 95 98 102 110 114 123 139 149 162 170 159 155 146 142 137 131 126 120 117 120 121 121 119 115 106
100 89 85 83 77 72 68 67 65 66 67 69 71 73 75 79 80 85 89 90 95 98 100 101 110 118 128 138 152 168 163 157 149 143 142 139 131 124 123 120 124 121 117
93 86 84 79 74 69 67 65 65 65 65 67 70 72 75 76 77 80 82 85 89 91 93 93 94 102 107 113 124 135 146 164 167 159 153 152 147 142 130 126 130 123 117
89 86 80 74 69 65 66 65 64 66 66 67 68 69 70 71 73 74 76 80 82 84 87 89 91 94 99 106 111 116 118 124 136 155 163 165 163 149 146 140 141 128 123
87 80 75 69 65 64 65 64 63 62 63 63 62 63 64 65 66 67 68 72 75 77 79 82 83 87 90 95 103 110 109 108 103 111 119 125 136 154 159 149 148 145 135
82 75 71 66 65 65 62 61 60 58 57 56 55 56 57 57 58 59 61 63 65 67 70 73 76 81 83 87 93 97 101 100 96 102 107 110 119 125 133 155 158 158 150
76 72 68 65 64 62 58 57 55 53 52 51 49 49 49 50 51 52 55 56 58 61 62 63 66 71 73 77 83 90 92 94 93 97 101 98 105 107 110 113 135 160 161
73 70 67 64 60 59 54 52 50 49 47 47 46 45 45 47 47 47 49 51 53 57 58 60 63 65 66 66 73 80 84 87 89 91 94 96 98 100 104 110 126 144 148
70 67 66 60 57 54 50 49 47 45 45 44 43 42 42 42 42 41 42 43 46 50 51 54 59 61 63 64 67 69 75 78 82 86 93 91 96 99 102 103 112 132 141

GFSMA_250_spd_009.txt.gz
Wind_Speed
30 40 44 48 51 53 58 59 61 66 71 94 98 101 103 107 107 93 88 79 77 77 74 75 71 55 53 47 54 55 53 55 59 58 64 59 59 58 55 51 49 52 54
23 25 31 43 49 54 57 62 65 67 69 74 94 103 104 106 110 104 97 83 82 83 82 81 78 69 52 47 52 55 54 57 60 62 65 60 63 58 56 53 52 53 55
27 30 29 28 33 45 53 62 67 71 74 75 76 88 112 108 110 111 110 106 99 95 87 87 81 84 73 65 55 56 53 60 63 61 63 61 61 63 62 58 56 51 52
39 42 37 38 39 41 47 56 65 73 77 80 79 78 87 89 88 89 104 109 111 104 91 85 86 88 81 70 61 57 57 58 60 67 64 64 64 65 66 61 59 58 56
51 51 47 48 48 50 49 53 54 62 74 82 84 84 83 85 86 83 86 88 97 100 100 100 93 87 83 80 61 66 62 55 62 69 69 66 66 66 66 64 63 60 59
59 61 62 63 61 57 54 57 60 62 64 73 82 89 89 88 87 89 88 91 89 93 94 99 100 88 76 81 74 66 64 61 57 63 73 71 70 69 68 68 68 67 63
62 65 68 67 68 66 64 63 63 65 71 72 74 83 92 95 92 93 95 94 91 94 96 97 96 95 92 81 76 74 69 65 62 63 61 66 65 76 76 70 69 70 65
67 68 73 76 73 72 72 71 71 67 72 79 81 82 88 97 102 98 100 102 101 94 96 100 98 99 93 89 84 81 78 71 65 65 62 60 66 71 72 69 69 70 68
72 76 76 81 83 82 80 79 77 76 73 75 84 85 86 90 101 108 104 105 107 108 104 103 102 103 99 90 88 82 80 75 71 67 65 65 71 72 76 73 70 70 68
81 85 85 89 92 92 87 84 81 83 82 78 81 89 89 91 95 104 112 109 111 112 113 108 106 105 105 104 97 90 89 85 76 76 74 71 68 69 75 74 72 72 70
88 91 98 97 100 98 88 85 81 82 83 82 82 84 90 89 91 99 107 117 115 115 118 116 112 112 111 108 108 103 97 92 86 82 78 78 76 72 74 75 75 75 73
95 98 107 104 110 101 93 86 83 80 78 79 77 77 82 87 89 93 99 113 120 119 121 122 120 116 114 113 113 112 110 107 103 97 88 87 84 81 80 78 74 83 79
106 108 116 114 119 103 96 92 86 83 76 70 69 70 73 78 85 89 91 105 115 120 126 125 125 124 122 117 116 114 114 113 108 107 102 94 93 91 89 85 82 83 84
113 114 118 122 116 100 95 92 87 81 72 68 66 66 67 72 76 82 88 96 109 120 124 129 130 131 129 126 119 118 116 116 111 109 105 104 101 97 94 91 89 88 90
117 117 121 122 108 98 94 90 85 76 69 68 66 66 66 68 73 77 83 88 97 105 115 121 129 135 134 132 130 126 121 122 120 115 111 109 108 104 99 97 94 92 95
122 121 118 115 101 97 91 85 77 73 70 67 64 64 64 65 69 74 79 84 89 97 106 116 117 129 137 135 135 131 129 125 124 119 116 114 112 108 106 103 101 96 99
123 120 117 111 100 94 86 78 74 72 68 66 64 62 64 66 65 71 76 81 85 88 93 111 118 122 126 138 137 136 135 132 128 125 123 118 114 111 112 111 109 106 106
124 116 112 103 97 88 79 75 72 69 66 63 63 63 64 66 66 68 73 77 81 84 85 95 108 117 122 122 130 141 140 137 137 134 129 126 120 118 115 113 111 111 108
115 109 102 96 87 79 76 72 67 64 62 61 61 61 62 64 66 69 70 71 76 80 83 85 95 106 114 122 132 133 133 143 143 140 139 132 131 126 122 119 115 115 113
105 100 95 85 78 76 72 68 63 60 59 59 60 61 61 62 64 67 69 71 73 76 80 82 86 94 101 109 116 125 133 134 135 143 147 143 142 136 131 130 123 121 120
98 93 82 79 78 72 67 63 61 59 59 60 61 60 59 59 61 62 64 70 70 71 73 76 80 89 95 101 106 112 116 122 127 131 136 143 149 144 139 137 134 130 127
86 79 75 75 70 67 64 62 58 57 58 57 57 58 56 57 58 58 61 63 65 67 70 71 74 79 88 97 100 104 107 112 116 115 116 125 129 144 153 145 141 136 134
78 74 74 70 66 65 63 59 57 56 55 55 53 53 53 52 53 54 56 58 60 63 66 69 71 74 78 85 93 98 102 104 109 114 109 109 117 122 125 143 155 150 145
74 75 73 67 63 63 60 57 55 54 52 50 49 48 48 47 46 48 50 52 55 58 60 63 66 72 73 76 81 88 92 96 100 104 107 106 112 110 113 112 119 138 156
76 74 67 63 60 61 57 54 53 51 49 47 45 44 43 43 43 44 46 48 49 52 54 56 60 63 65 69 74 80 83 87 91 97 99 101 103 105 106 103 103 109 119
72 67 64 60 58 58 53 52 50 48 47 44 41 41 39 39 40 39 41 44 47 48 49 52 55 59 61 63 66 71 75 80 84 86 91 94 97 99 98 99 96 100 105

GFSMA_250_spd_012.txt.gz
Wind_Speed
22 27 29 32 34 35 40 45 52 58 59 62 64 65 81 88 93 95 93 91 86 82 76 84 82 75 64 65 64 58 55 60 62 60 61 53 53 54 54 52 55 53 56
24 23 25 25 28 33 37 41 44 51 57 64 68 69 70 86 94 97 99 100 96 95 90 84 80 82 73 67 71 72 71 74 65 68 59 54 64 61 56 57 55 57 59
34 36 38 37 39 37 33 34 40 46 52 57 64 70 76 75 88 94 96 98 105 106 104 102 100 92 82 76 74 79 79 76 67 65 66 64 59 58 61 64 61 60 60
40 40 41 41 43 47 48 49 49 45 48 55 62 63 72 81 83 92 86 90 101 109 111 109 110 103 105 89 79 77 82 75 73 61 55 59 61 56 59 64 62 64 63
41 39 43 45 47 50 52 54 56 56 55 51 54 61 69 74 83 90 88 94 89 93 106 115 121 118 113 108 97 85 87 85 78 76 79 77 64 61 65 62 64 67 68
49 47 48 50 52 57 59 60 62 64 63 60 59 58 63 68 77 84 92 96 92 88 88 106 108 115 117 117 111 95 92 93 87 68 67 70 74 63 64 66 71 68 66
52 51 51 52 57 62 64 66 71 72 74 71 75 66 66 68 72 79 85 91 100 97 88 88 98 101 108 106 109 113 108 103 96 90 86 84 76 72 69 71 72 72 71
58 58 60 60 65 71 73 75 79 81 81 80 79 75 71 72 74 78 83 88 93 98 102 94 94 96 96 105 106 108 103 100 96 98 92 82 71 74 71 74 73 76 71
66 68 70 73 74 74 79 82 86 89 90 88 88 82 76 74 78 83 84 88 92 95 98 105 102 99 100 102 104 106 108 104 99 98 96 88 75 84 76 80 75 80 77
72 74 74 77 79 83 83 87 92 93 93 95 91 85 79 76 79 82 90 93 95 95 98 98 107 107 106 105 105 104 104 104 100 95 93 88 83 84 75 77 81 86 81
83 85 87 88 89 92 93 96 98 99 99 98 94 89 84 82 80 82 84 96 97 98 97 100 100 110 111 112 108 108 109 104 105 97 96 93 87 81 83 80 78 76 72
92 95 98 99 99 101 102 105 104 104 102 95 91 85 82 84 85 82 76 86 96 100 98 99 102 100 114 114 114 112 110 113 102 107 98 98 92 91 85 84 80 80 75
98 101 103 105 109 110 113 113 112 110 99 91 87 82 78 77 80 82 77 78 87 98 97 97 102 102 102 119 119 117 114 112 116 107 106 102 100 94 92 86 84 85 82
106 108 110 113 117 121 121 118 113 101 93 89 86 79 73 70 71 72 71 70 74 85 96 97 98 101 102 107 123 123 123 117 115 113 110 106 101 98 96 90 86 86 90
116 118 122 126 123 120 115 110 102 97 93 88 82 74 68 66 66 68 72 72 72 78 87 99 101 101 103 106 112 126 126 129 119 116 114 112 106 101 102 97 94 92 91
124 126 125 120 122 114 109 101 97 92 87 82 74 68 68 68 66 66 68 71 72 73 80 90 97 101 103 105 109 116 128 130 132 123 121 117 115 113 109 105 98 93 95
120 119 118 116 112 107 101 97 89 84 79 74 71 68 66 65 63 62 62 65 69 70 74 86 91 97 100 103 107 112 119 130 132 132 127 124 122 121 118 115 112 107 107
115 113 110 104 101 96 90 86 82 78 71 71 68 64 62 60 59 59 58 58 62 66 69 79 88 93 96 100 103 107 111 123 130 133 134 128 126 126 124 121 121 117 112
108 103 97 93 88 85 84 79 73 69 69 66 63 60 59 57 58 58 57 57 58 62 65 71 81 88 92 96 99 101 107 114 122 130 133 136 134 130 127 124 122 120 115
95 89 85 84 81 76 73 70 67 67 65 62 60 58 56 56 56 58 59 58 60 58 61 65 73 81 86 90 93 96 100 105 112 120 130 134 136 137 133 129 122 118 116
90 87 83 77 77 73 70 68 66 63 60 59 60 58 57 56 56 56 56 59 58 59 61 62 67 77 84 87 87 90 92 97 99 103 111 122 130 136 139 136 130 124 120
75 72 74 70 69 68 65 62 58 57 57 57 57 56 53 52 51 51 52 53 55 55 59 62 65 70 78 83 87 88 89 92 92 95 96 102 111 116 133 139 138 135 132
76 74 71 69 68 64 61 58 55 54 56 54 51 50 49 48 47 47 48 50 52 54 56 57 61 66 73 79 83 86 88 87 90 94 93 94 100 106 114 126 137 139 138
75 72 72 67 63 60 57 56 54 56 53 49 47 45 44 45 44 45 47 48 50 52 54 53 56 61 66 72 76 82 85 86 88 90 91 91 97 98 105 114 122 133 138
75 73 68 63 57 57 56 53 53 53 50 46 41 39 42 44 42 42 44 45 46 49 48 49 52 56 59 66 71 75 81 84 89 90 91 92 93 96 100 103 110 116 126
70 69 65 57 53 55 54 51 50 49 47 42 39 38 38 39 39 39 40 43 46 44 45 48 50 52 55 60 65 69 75 80 84 86 90 92 94 95 95 99 101 104 110

GFSMA_250_spd_015.txt.gz
Wind_Speed
20 22 25 25 25 23 22 23 24 25 27 30 35 46 51 59 70 75 77 78 82 80 76 71 65 70 69 75 76 73 67 63 56 57 54 53 49 48 48 49 44 45 47
28 29 29 31 31 27 28 28 29 25 20 21 25 32 40 51 63 71 78 83 85 86 88 82 78 72 72 66 72 78 74 72 66 62 58 51 52 48 52 50 54 56 46
33 34 34 34 32 33 33 35 34 35 36 37 34 32 30 37 47 59 74 81 86 86 92 93 91 88 83 79 82 76 75 73 76 75 60 56 58 57 56 56 53 55 52
36 35 37 38 40 42 40 39 40 42 44 44 44 44 44 43 40 46 54 67 81 89 84 94 99 102 101 94 85 81 81 74 74 81 70 63 67 69 67 66 66 62 56
44 45 46 46 45 48 49 50 50 50 54 55 53 53 55 55 54 52 50 58 66 75 86 87 91 103 107 107 104 97 88 86 80 78 77 70 80 75 72 70 62 61 58
52 50 51 50 51 52 55 57 59 61 63 65 64 63 63 63 62 61 61 58 66 67 74 84 91 90 98 104 111 111 103 89 83 84 79 57 65 78 77 67 66 59 61
55 56 58 59 59 59 62 66 66 67 68 69 71 69 71 70 71 67 67 67 70 75 77 78 85 92 94 100 98 106 113 113 105 96 95 81 81 73 75 75 76 72 76
63 63 65 65 66 68 70 72 74 76 78 80 80 82 81 80 77 77 72 73 74 75 82 86 85 88 95 95 99 99 101 111 114 111 107 101 89 89 84 77 79 76 76
70 71 74 75 78 80 81 80 81 85 88 89 89 89 89 90 90 86 82 85 81 82 84 91 93 92 91 95 95 99 102 101 107 117 118 114 107 103 94 85 77 75 70
80 82 85 87 88 89 89 89 90 91 93 96 99 100 102 101 96 90 93 91 88 86 86 90 98 98 97 92 96 100 102 101 102 110 117 118 118 116 104 95 93 90 80
89 91 94 96 97 98 99 100 101 102 103 105 105 103 104 101 98 95 85 95 90 87 88 90 97 100 100 100 97 99 109 109 105 107 109 109 113 111 111 104 104 96 91
98 99 101 104 106 109 109 109 109 106 104 104 101 100 100 100 96 93 90 81 86 91 90 91 95 99 102 101 103 103 105 118 113 110 109 107 104 106 108 108 99 96 91
105 107 110 113 113 112 110 106 104 103 99 98 97 97 95 94 90 87 87 83 82 88 91 92 95 97 99 103 103 106 107 110 121 117 115 110 105 105 103 110 110 108 101
112 114 112 110 108 107 105 102 97 95 94 92 90 89 87 87 86 84 83 82 79 80 88 92 95 95 96 99 105 106 108 111 120 123 121 119 109 106 110 114 111 111 110
115 110 106 103 102 101 96 94 91 89 87 87 85 82 80 80 78 77 75 75 74 75 77 88 92 94 91 93 98 106 108 110 114 123 124 123 117 114 109 115 111 111 108
112 109 105 101 95 92 90 88 85 82 80 79 78 78 78 76 75 74 72 71 70 69 71 80 86 90 89 92 96 102 107 111 113 117 130 128 123 120 115 116 113 114 111
109 102 95 92 90 88 87 86 83 83 82 80 78 75 73 72 69 67 67 67 68 70 69 80 83 87 87 88 91 95 101 106 111 116 121 135 129 125 122 117 115 119 111
100 93 91 90 86 84 83 82 78 76 75 74 76 75 72 69 66 65 65 64 63 65 66 72 83 88 89 88 90 91 96 103 108 112 119 123 137 131 126 118 116 121 117
92 90 88 86 84 83 82 79 77 75 77 77 76 75 73 69 67 65 63 61 61 60 61 66 76 83 87 88 88 90 92 98 106 111 116 121 123 140 134 127 122 123 124
91 89 87 82 79 78 77 75 74 74 74 74 74 71 67 64 61 59 59 60 59 58 59 60 69 77 82 86 85 87 89 92 99 109 113 118 121 126 140 134 128 122 125
91 88 87 85 82 78 76 74 72 72 74 74 70 65 61 57 56 56 56 58 58 58 60 60 62 71 76 81 82 83 85 89 92 99 109 115 121 121 127 138 137 131 128
85 83 80 78 76 75 72 69 68 67 67 64 61 58 56 54 54 55 56 57 58 56 57 58 60 65 71 75 80 80 81 83 86 91 99 109 116 119 122 129 140 139 133
86 81 77 73 70 68 65 63 63 62 59 55 53 53 54 54 53 53 54 55 55 54 54 54 58 62 67 70 74 78 80 78 83 87 89 96 103 111 117 124 134 142 139
79 75 70 66 65 64 61 60 58 55 53 50 48 50 51 52 49 48 49 49 49 49 47 48 53 58 64 68 70 73 77 79 79 84 85 88 95 100 110 116 124 137 143
73 69 67 64 61 61 57 56 52 51 50 47 46 46 47 47 45 44 47 49 48 45 45 48 51 55 59 64 67 70 73 77 80 80 81 83 90 92 99 106 113 122 136
68 66 64 59 56 55 53 52 47 48 47 46 42 43 42 44 44 42 44 45 44 42 42 43 46 50 54 57 60 65 69 73 77 79 79 80 85 88 92 97 104 110 119

GFSMA_250_spd_018.txt.gz
Wind_Speed
30 32 32 33 31 31 30 28 25 24 23 23 23 21 21 24 30 40 48 53 55 61 71 68 71 66 69 65 64 61 64 64 61 59 55 52 56 58 56 55 52 49 48
30 30 33 35 34 34 36 34 34 33 30 27 27 27 28 26 26 28 35 47 57 64 66 72 71 77 70 70 72 71 70 69 69 61 61 60 57 57 57 58 58 57 56
34 35 37 39 39 40 39 38 39 39 39 37 38 37 35 36 37 35 33 35 44 58 67 73 78 84 80 79 69 76 80 77 70 71 70 65 62 59 59 65 62 59 58
44 45 45 42 42 42 43 44 43 43 45 45 48 48 50 49 47 45 45 46 42 42 55 70 79 85 91 82 83 73 74 69 83 78 80 77 72 68 67 65 65 59 53
49 51 50 52 52 51 52 52 52 53 54 54 54 56 56 54 53 52 52 53 52 53 52 50 67 78 88 92 91 88 79 84 86 83 83 91 81 74 73 74 71 66 58
56 57 57 57 59 60 61 63 64 63 63 63 64 66 65 65 64 64 63 62 60 58 58 61 64 67 79 88 96 97 95 82 86 80 86 84 90 84 84 76 76 72 68
65 65 66 68 69 69 70 71 71 72 74 75 75 77 76 75 74 73 73 71 69 67 65 63 63 70 73 82 90 98 99 102 93 89 94 89 85 91 77 64 75 76 85
68 69 71 74 77 79 81 81 81 81 82 84 83 84 83 83 83 83 82 80 78 77 76 75 76 74 73 77 86 92 101 105 101 98 94 100 92 94 86 83 82 78 73
79 80 82 84 87 90 91 93 93 92 93 93 94 94 92 92 94 94 92 90 88 87 86 86 85 82 81 81 80 88 96 104 108 105 102 101 102 102 97 87 83 79 79
88 92 95 97 98 100 100 98 99 98 98 100 100 104 105 101 100 99 97 97 95 93 92 92 92 90 88 87 87 87 93 99 105 113 107 105 104 109 106 96 89 93 91
96 97 102 104 106 108 107 108 107 105 104 103 103 103 102 103 103 98 93 99 99 97 96 95 94 94 93 93 94 93 95 97 104 107 115 113 110 111 110 109 101 98 99
101 105 108 107 107 107 107 108 104 99 93 93 95 95 93 95 98 99 94 95 100 102 103 100 100 98 98 98 97 99 100 102 102 109 112 116 115 113 112 115 112 105 105
108 112 112 113 106 107 105 101 95 90 88 85 85 85 84 87 90 90 89 87 90 94 100 104 103 101 98 97 100 100 103 104 106 108 115 116 117 117 114 114 118 117 112
115 113 110 107 104 102 98 96 90 86 79 75 75 76 78 78 82 82 81 81 83 86 92 101 104 103 101 96 96 99 101 105 108 109 114 119 118 118 118 117 119 121 120
116 111 107 104 98 94 93 90 83 78 75 73 73 75 74 72 72 74 75 74 73 71 76 85 96 100 100 98 96 94 98 102 106 109 112 117 120 119 120 120 120 117 114
114 110 102 96 93 87 86 82 78 76 75 74 73 75 75 74 74 71 70 69 68 65 64 77 83 91 93 93 92 91 92 97 100 104 107 113 118 119 123 123 122 117 112
111 104 100 94 92 88 86 83 80 78 76 76 75 74 73 73 72 71 68 66 64 63 58 67 75 85 91 90 90 87 87 90 94 100 103 108 114 119 122 127 127 122 114
105 102 97 93 90 87 86 84 81 78 77 77 78 78 77 75 73 72 70 67 64 64 60 60 73 76 83 88 86 84 80 82 88 94 101 106 114 118 120 131 131 129 122
100 96 94 92 90 87 84 81 78 76 76 76 76 76 75 74 71 68 67 67 67 65 63 61 71 77 80 87 87 83 81 78 80 89 99 107 112 116 120 125 137 137 130
96 95 93 90 86 82 79 78 76 74 74 75 75 74 72 70 69 69 67 66 64 63 62 59 64 72 74 80 83 82 78 77 78 82 91 102 108 113 118 122 129 138 141
95 90 86 82 80 78 75 73 72 72 72 71 69 67 65 64 64 63 63 63 61 60 59 58 60 66 70 74 78 80 75 73 74 78 84 92 102 106 112 119 126 131 139
88 82 78 74 72 70 67 65 64 65 65 65 64 63 63 62 60 58 57 58 61 60 59 57 59 63 68 70 74 75 75 73 73 75 77 86 92 97 106 113 120 129 132
82 77 73 70 68 66 63 61 61 61 61 61 58 58 59 57 54 54 56 56 57 57 56 53 54 60 62 65 70 73 74 73 74 72 71 78 86 92 95 105 114 122 130
79 75 70 66 63 61 58 57 57 57 57 54 50 50 51 52 50 52 53 53 52 51 49 50 54 57 58 59 62 67 70 70 72 72 69 75 80 87 92 96 106 114 124
72 68 65 62 60 59 56 54 53 53 49 46 44 44 46 48 47 49 51 49 47 44 44 45 47 51 52 53 56 60 64 65 69 72 68 72 75 81 88 94 99 108 117
68 64 62 58 55 54 50 49 48 45 42 41 39 41 44 46 46 45 45 43 44 43 42 43 45 48 51 51 52 55 58 60 63 65 68 71 72 76 81 89 95 100 109

GFSMA_250_spd_021.txt.gz
Wind_Speed
33 33 32 31 31 32 33 33 33 32 32 33 31 29 27 24 21 21 26 36 40 43 45 51 61 70 69 70 69 69 69 69 71 68 65 64 66 60 58 59 62 62 68
40 39 38 39 38 39 39 36 36 37 37 36 36 37 36 35 33 32 30 28 31 43 47 52 57 59 72 72 72 70 70 74 74 76 77 71 67 60 59 62 60 62 63
46 46 46 45 44 43 44 45 45 44 43 43 42 42 42 42 44 43 42 38 36 37 41 53 57 61 65 75 77 79 79 74 68 73 73 72 71 67 63 63 60 63 61
48 50 51 51 52 54 54 55 54 54 53 52 53 53 52 50 49 48 50 49 47 47 44 44 50 61 65 72 81 75 81 85 80 78 76 75 73 69 69 68 66 69 68
51 53 55 56 57 58 59 60 61 61 62 62 62 62 62 62 60 59 58 57 57 54 53 52 53 55 63 74 76 79 78 79 83 81 80 81 79 76 76 75 71 70 71
58 58 60 62 63 64 66 66 67 69 71 72 72 71 70 70 70 70 69 69 68 66 62 62 60 58 60 64 79 82 88 86 79 87 90 84 85 84 85 77 66 67 69
64 64 65 68 69 70 71 73 74 76 77 80 80 82 83 82 80 80 79 79 79 77 74 71 69 69 68 68 72 77 84 92 91 82 91 96 92 87 86 83 84 81 75
71 72 75 78 81 81 83 86 87 87 86 88 86 87 87 89 90 90 86 85 86 85 83 81 78 77 76 77 77 78 83 87 94 99 90 91 95 98 93 94 92 91 83
76 79 83 86 88 90 90 93 96 95 95 95 94 92 93 91 93 92 93 92 92 91 92 91 90 88 86 85 84 85 83 86 88 94 104 99 95 94 94 98 93 98 97
86 89 92 94 96 99 100 101 102 102 102 102 99 100 95 93 92 94 96 95 94 96 98 99 97 98 97 97 95 93 93 90 89 90 95 106 106 98 99 100 98 102 100
92 96 100 101 101 105 105 102 102 102 102 101 99 96 94 94 95 94 93 94 93 95 97 101 104 104 107 106 105 103 101 100 98 95 95 98 101 109 102 101 104 105 103
99 103 106 107 107 111 105 100 99 99 99 99 98 93 90 90 87 88 91 91 90 93 96 98 99 102 107 109 109 109 108 107 105 105 99 100 102 101 109 105 112 103 110
108 111 112 113 116 116 108 101 99 97 98 97 92 87 86 85 83 83 87 88 87 89 93 95 99 102 104 107 109 112 113 112 110 110 109 105 107 108 107 110 111 111 114
117 119 119 119 118 112 103 98 95 95 92 90 88 84 80 76 75 76 77 79 79 79 86 88 91 94 100 103 104 109 112 115 113 113 114 113 111 114 113 114 114 114 118
124 123 122 119 113 104 97 92 88 86 85 83 82 78 76 72 72 73 72 73 75 75 79 86 88 92 94 97 99 101 102 106 113 115 115 117 117 117 118 118 120 119 120
122 120 118 112 106 98 91 86 85 83 82 81 81 78 75 74 73 73 72 71 72 72 71 81 85 87 90 93 95 95 95 96 100 107 112 115 118 119 120 123 123 123 122
117 114 111 103 97 94 90 85 84 84 83 81 79 79 77 75 74 73 72 71 70 71 67 71 78 83 87 90 95 97 95 93 91 95 102 109 115 119 119 124 125 126 125
113 106 99 97 96 94 92 89 84 81 78 77 76 76 75 74 73 73 72 71 70 68 65 66 78 80 83 90 92 95 97 96 92 90 91 99 106 112 116 121 125 126 127
103 100 98 96 93 90 87 84 81 77 74 73 72 71 71 72 71 70 70 70 69 67 65 64 73 79 81 88 93 93 93 92 90 87 85 86 93 103 109 112 116 122 126
103 100 95 91 85 80 77 75 73 70 68 67 66 66 66 66 66 65 65 65 64 63 62 60 65 74 74 81 85 89 90 89 86 83 81 80 84 91 100 108 110 114 120
99 93 86 79 75 72 68 66 65 65 64 63 63 61 60 59 59 58 59 60 60 59 59 58 60 66 69 71 76 80 82 83 81 79 76 75 76 83 92 101 107 110 113
89 84 79 74 69 65 60 58 56 57 57 57 57 57 55 55 55 56 57 57 58 58 57 54 55 61 62 62 65 69 70 73 75 72 71 71 69 74 82 91 102 107 110
82 78 74 69 65 62 59 57 55 54 53 52 52 52 53 53 53 53 54 54 53 53 51 49 53 57 58 58 60 64 67 68 69 68 65 67 65 69 78 87 94 101 105
76 72 68 64 62 59 56 54 52 51 49 47 46 47 49 50 47 48 49 48 46 47 47 49 53 55 56 56 57 60 63 66 68 66 64 65 62 65 71 81 90 92 94
71 67 63 59 56 54 49 48 48 48 45 42 40 42 44 43 41 43 42 43 43 43 46 48 51 53 52 51 52 54 59 59 63 63 62 62 61 65 65 73 84 88 88
68 64 60 55 51 49 46 46 44 43 40 36 36 38 38 39 38 39 39 41 41 42 43 44 45 46 47 47 47 50 52 54 56 58 60 58 59 61 62 69 76 83 86

GFSMA_250_spd_024.txt.gz
Wind_Speed
38 39 40 39 38 38 39 40 40 40 41 41 39 36 33 34 35 32 31 27 26 33 40 39 44 51 54 60 68 66 65 61 71 76 72 75 74 74 74 75 75 73 72
41 40 40 40 40 40 40 40 42 44 45 45 45 44 43 41 39 38 39 39 36 35 32 39 43 49 55 58 67 68 71 66 66 73 76 76 77 74 75 75 77 74 72
42 43 46 48 50 52 52 52 52 52 51 51 51 50 50 49 47 47 46 44 45 45 42 42 37 46 52 62 72 70 76 76 72 75 74 78 78 76 76 76 75 77 76
49 52 53 54 54 54 56 57 58 58 58 59 59 58 58 58 58 57 55 53 52 51 52 51 49 47 47 58 64 75 80 78 78 75 76 79 79 80 77 73 74 75 68
55 57 59 60 61 61 62 62 62 62 63 65 65 66 67 68 67 67 66 64 62 60 59 59 57 57 56 53 65 70 78 85 83 83 82 82 81 83 85 81 78 74 71
63 65 66 67 67 66 66 66 69 71 72 73 73 73 75 75 74 75 76 75 73 72 69 66 68 65 63 63 62 67 76 76 86 90 90 89 88 88 88 90 85 82 78
68 69 69 67 68 71 76 79 79 79 79 82 83 82 80 80 87 86 84 82 81 79 77 79 76 75 73 72 69 71 71 77 80 87 93 97 92 92 89 89 91 88 85
73 75 75 76 79 83 84 85 88 91 92 93 91 93 86 86 87 90 92 91 89 88 87 85 85 84 84 84 80 78 78 78 77 86 87 92 103 101 96 93 91 89 90
76 77 80 83 87 92 93 94 99 104 104 104 102 99 96 91 94 90 89 97 93 92 93 93 92 91 91 90 91 89 86 84 83 83 91 93 93 100 102 101 100 95 92
88 90 93 96 98 98 99 100 105 108 107 105 109 106 102 101 97 95 92 92 95 93 91 94 100 99 98 98 96 97 95 93 91 90 88 92 100 95 97 101 106 102 98
83 96 99 104 107 108 108 110 111 107 106 103 104 105 104 97 101 98 97 97 91 94 91 91 94 98 101 103 103 103 102 102 100 97 95 94 95 98 102 96 103 106 107
99 106 108 113 122 123 116 113 109 106 105 101 100 101 101 99 94 97 97 98 99 89 87 88 90 94 98 103 107 107 109 109 108 106 103 101 99 100 100 103 103 104 107
107 114 118 121 130 127 118 113 110 107 102 100 99 100 101 99 95 92 92 92 93 94 82 84 86 89 96 101 108 109 112 114 114 114 113 110 107 104 104 104 106 108 108
115 122 123 127 133 123 115 108 103 100 96 92 90 91 92 92 90 87 86 84 83 86 87 83 85 87 91 97 102 107 115 118 119 120 120 119 117 114 111 110 109 107 110
126 128 130 131 124 115 107 101 96 92 89 86 85 88 87 87 87 86 83 81 81 80 81 84 83 84 87 91 96 104 109 116 119 122 123 124 124 123 120 118 116 114 112
130 131 132 123 114 107 101 96 93 91 88 86 86 87 87 87 87 86 85 82 81 79 77 82 83 83 84 85 90 94 102 108 113 117 120 123 126 127 127 126 123 122 119
132 131 125 114 107 103 99 97 93 90 86 81 79 80 81 80 79 79 80 79 77 76 72 81 83 85 85 85 89 91 93 96 102 107 112 118 123 124 126 129 130 128 126
129 123 114 109 105 102 97 92 87 83 79 76 73 73 72 72 72 70 71 73 73 72 69 75 82 86 88 90 90 91 91 91 94 98 102 106 110 116 120 124 127 129 132
119 112 109 105 101 95 87 81 78 75 72 70 68 67 66 65 65 65 64 65 66 66 65 66 76 83 86 91 92 92 92 92 92 93 94 95 97 102 110 117 123 127 129
111 108 104 97 90 84 78 74 71 69 67 64 61 59 58 58 59 60 59 60 60 61 62 63 70 80 81 86 89 92 93 93 92 90 89 88 88 87 97 105 113 118 124
103 98 90 84 80 77 73 69 64 61 59 58 56 55 52 52 52 52 53 55 56 58 58 58 65 73 75 78 80 85 85 87 87 89 88 85 83 82 82 93 100 106 115
95 88 82 78 75 71 68 63 60 56 54 52 51 49 49 49 48 48 49 50 51 52 53 54 60 65 65 64 68 72 75 79 81 82 83 82 79 80 80 79 87 97 104
84 79 76 72 68 63 60 56 54 53 51 48 46 46 44 44 46 45 45 46 47 46 47 49 54 60 60 61 62 65 69 70 72 77 76 80 79 80 79 76 76 83 93
79 74 69 65 61 57 53 51 51 50 48 46 43 41 41 42 41 41 42 42 41 41 43 46 47 50 52 53 55 57 60 62 65 69 70 71 72 73 75 77 79 82 86
72 69 66 61 57 53 49 47 47 47 45 42 39 39 40 40 38 37 38 36 36 36 37 40 43 46 46 47 48 51 56 55 60 64 65 65 68 68 68 70 74 79 84
68 65 63 57 51 49 47 46 44 43 40 36 35 38 36 35 33 33 33 33 32 33 35 38 41 44 44 45 45 49 51 53 56 60 62 58 62 63 63 68 70 74 80

GFSMA_250_spd_027.txt.gz
Wind_Speed
39 41 42 41 40 42 43 43 44 46 45 44 43 42 41 39 37 38 35 40 36 36 35 32 30 33 40 46 55 60 65 73 77 66 75 75 72 73 72 72 73 72 74
42 44 45 47 49 49 50 51 52 52 51 50 49 50 50 49 48 45 43 42 44 43 41 40 39 35 38 43 54 57 64 70 80 72 74 73 79 77 76 77 78 72 72
46 47 49 51 53 55 57 58 59 57 57 58 58 57 57 56 54 52 53 50 50 49 49 49 46 45 42 42 50 58 64 67 74 78 72 72 81 78 80 78 77 82 73
50 51 54 56 58 59 61 62 62 62 62 62 60 61 63 66 63 64 63 59 55 58 58 55 54 54 51 50 46 54 63 69 73 79 79 73 66 72 84 80 84 78 79
56 58 60 62 63 64 65 64 64 64 64 67 68 67 69 69 72 70 69 68 68 66 63 66 63 61 60 59 57 54 62 66 73 81 86 82 77 75 79 85 83 83 84
60 60 62 64 68 69 70 70 70 70 73 74 76 80 82 83 80 78 80 82 79 77 76 69 73 73 68 67 67 63 61 65 72 80 84 86 85 80 80 82 87 84 86
66 68 69 70 73 74 71 70 73 77 79 85 85 85 88 87 87 91 92 89 88 86 84 84 78 81 77 78 75 74 72 67 71 78 84 87 91 88 87 86 85 87 83
73 74 73 74 75 76 75 85 83 87 90 95 97 98 96 94 96 94 96 99 95 92 93 88 87 86 85 87 84 84 82 80 75 75 81 89 91 95 94 92 89 89 89
77 78 82 83 84 85 85 88 92 96 98 101 109 110 105 105 107 104 98 96 96 95 98 93 89 91 90 91 91 91 92 89 88 82 82 87 92 93 99 98 96 91 93
83 84 86 89 92 94 96 96 98 102 108 108 114 116 115 115 113 109 105 101 96 95 95 101 96 92 91 95 96 96 98 100 97 94 90 87 90 95 101 103 102 98 96
90 95 98 101 101 103 105 107 109 114 119 120 119 118 119 116 114 108 101 103 104 97 97 97 102 95 91 95 101 102 102 105 107 104 101 98 94 92 96 101 105 105 104
97 99 100 104 107 109 113 117 121 123 126 123 122 119 116 108 104 101 100 98 100 103 98 99 98 98 95 94 100 104 104 108 112 115 112 109 105 100 97 98 100 108 109
104 107 110 112 116 120 125 128 129 130 126 122 116 109 103 100 97 96 96 95 96 100 98 99 99 97 100 96 97 100 103 109 115 116 120 118 115 111 107 103 100 101 107
111 115 118 120 125 131 134 135 134 131 127 117 108 101 99 98 97 95 93 92 91 93 93 92 94 90 92 95 94 92 96 104 113 116 119 124 124 120 117 113 108 105 104
121 125 129 131 136 140 139 135 131 123 112 105 103 101 99 97 95 95 95 93 90 90 89 91 92 88 85 86 89 91 91 97 107 114 118 123 127 127 125 122 117 114 110
128 132 137 141 142 136 133 126 117 110 107 104 99 95 92 89 86 86 87 89 89 88 87 90 88 89 88 83 85 88 88 91 99 108 115 121 126 130 130 128 125 121 118
138 141 141 137 129 124 119 112 109 106 102 95 89 84 81 78 77 78 78 78 80 81 81 84 84 87 87 87 85 85 88 88 93 100 108 115 120 127 131 131 130 129 125
142 137 130 123 117 112 110 107 104 98 91 85 80 76 72 70 69 69 70 71 71 72 70 73 78 79 81 84 84 84 86 89 89 94 103 109 116 122 126 128 130 131 132
129 123 116 110 109 109 107 101 95 88 82 77 73 70 66 63 63 63 63 64 64 64 64 65 71 73 76 79 80 80 84 86 86 89 93 102 108 113 118 124 127 129 130
114 110 108 106 103 98 93 89 84 81 77 71 67 64 63 60 58 58 58 59 58 58 58 59 66 70 70 73 73 75 80 83 85 86 86 88 95 101 108 112 118 122 127
108 106 105 101 95 88 82 81 75 73 69 66 61 57 56 55 54 53 53 54 54 54 52 54 62 66 64 66 68 71 72 78 81 82 83 84 86 89 94 100 104 112 115
106 104 98 91 85 80 74 71 66 65 63 61 59 54 50 48 48 47 48 49 49 49 49 49 55 59 59 59 61 64 67 71 75 78 80 82 81 83 86 89 93 96 105
100 94 88 82 76 72 66 64 63 60 57 55 51 49 45 42 43 44 44 43 43 43 44 45 50 53 52 53 55 58 62 65 69 74 76 79 79 81 84 84 86 87 92
89 84 78 72 68 63 60 60 58 56 53 49 46 44 43 42 40 41 40 39 38 37 38 43 47 49 48 48 50 53 56 58 62 67 69 72 78 81 83 83 85 85 86
80 76 70 66 61 60 56 55 55 53 49 45 41 41 42 40 38 36 35 34 33 34 37 37 40 43 44 46 48 50 54 54 60 64 65 65 70 72 75 79 81 83 82
74 69 66 61 58 56 53 51 51 51 46 43 40 40 41 39 35 34 33 32 31 31 32 35 36 37 39 40 42 45 47 52 54 59 61 60 67 68 71 74 76 79 81

GFSMA_250_spd_030.txt.gz
Wind_Speed
44 41 42 42 43 44 45 45 45 46 47 49 49 48 46 45 44 44 41 43 44 41 38 36 36 36 32 28 36 43 53 64 66 71 72 73 72 70 74 68 72 71 73
43 45 46 46 47 47 48 50 50 51 51 52 53 52 52 51 48 46 46 42 45 46 46 45 43 41 40 38 34 38 45 54 66 67 70 74 77 76 74 73 74 73 74
48 49 48 50 52 55 56 54 54 54 54 56 57 56 55 56 54 52 54 55 52 52 49 50 51 51 48 47 44 40 43 50 57 68 71 74 75 79 79 75 77 77 74
50 55 56 58 59 58 58 60 60 59 61 62 63 62 61 60 59 60 60 60 60 60 60 59 55 55 56 56 54 51 48 48 56 61 69 77 78 81 83 74 76 77 75
59 61 62 62 62 63 64 65 65 63 64 66 66 67 62 60 65 64 66 68 69 66 62 66 64 66 63 62 62 62 59 56 53 63 65 72 80 82 84 82 78 77 79
63 64 65 67 68 67 66 67 69 71 74 75 74 72 71 76 74 74 75 75 78 79 79 74 75 73 78 74 71 68 70 67 63 59 68 73 78 80 88 89 85 76 73
65 65 65 67 69 70 72 75 76 77 80 86 87 86 82 83 84 84 83 82 84 84 87 89 85 85 81 86 82 78 76 77 74 71 66 74 82 84 87 91 90 88 83
68 71 72 75 76 78 82 84 85 86 87 91 91 92 91 90 95 95 96 97 97 99 98 98 95 95 94 90 92 88 84 83 83 80 77 73 80 88 90 92 92 91 86
75 79 80 84 87 89 91 93 94 97 96 96 101 103 100 97 97 101 106 108 110 110 109 106 101 100 101 98 96 96 92 90 89 90 88 84 80 81 90 95 95 94 89
87 90 92 94 95 98 99 101 104 107 110 107 108 110 113 115 114 111 113 115 119 113 113 108 104 99 97 100 99 99 98 97 96 95 97 95 91 88 88 93 100 103 97
93 97 100 102 104 108 110 109 113 115 117 117 118 120 121 123 125 122 109 110 112 111 105 101 98 98 93 95 98 99 100 102 104 102 102 105 101 97 94 93 95 103 107
100 104 108 111 114 117 119 121 124 125 125 127 128 127 122 120 117 111 103 91 90 94 98 93 92 91 91 90 91 97 99 103 106 108 107 107 109 107 103 99 98 102 106
108 111 115 118 121 124 127 129 130 133 132 129 127 123 115 110 104 102 97 91 85 83 87 90 90 88 89 91 89 91 96 102 105 110 113 112 113 116 114 110 105 105 108
117 119 123 125 126 129 130 132 132 129 127 123 116 111 108 103 99 98 94 91 89 84 86 88 91 91 90 91 94 87 91 99 101 107 115 117 117 119 122 120 116 112 111
127 128 130 132 133 130 131 129 129 124 118 115 110 106 104 102 99 95 90 87 83 78 77 81 84 88 93 92 95 91 89 91 98 104 114 117 120 121 125 127 123 120 118
131 133 133 131 132 128 121 118 117 115 112 110 107 105 100 94 89 84 80 76 74 72 69 74 73 81 86 90 91 93 86 85 91 103 107 113 119 123 125 128 130 128 125
132 131 123 121 116 111 109 110 111 110 107 103 101 96 91 84 79 75 73 70 69 67 64 70 69 73 78 82 86 88 87 84 87 93 101 107 111 118 125 129 132 132 131
126 122 119 113 111 109 108 108 108 108 105 100 92 86 82 77 74 70 66 65 64 63 61 63 67 68 70 75 78 80 82 82 84 88 91 97 101 109 120 126 131 133 134
119 116 114 113 111 109 106 104 103 97 91 88 84 80 75 70 66 63 61 58 56 57 57 57 62 64 65 69 70 71 72 76 81 87 91 92 93 102 111 121 126 130 133
115 112 110 109 108 106 102 98 92 86 82 80 77 73 69 65 61 57 55 54 53 52 53 53 58 59 59 61 62 64 66 69 73 79 88 91 90 94 103 113 122 126 129
111 110 108 106 102 97 90 87 84 79 75 72 68 64 62 61 59 53 50 51 50 48 49 51 54 53 54 53 53 57 59 63 67 72 78 85 89 87 89 100 111 118 121
106 104 100 95 91 85 80 79 76 71 68 65 62 60 55 53 52 51 47 47 46 45 46 48 50 50 49 48 49 49 52 58 62 67 72 79 84 85 87 91 99 106 110
101 96 90 86 82 77 73 72 68 65 63 61 57 53 50 49 48 47 45 43 42 42 42 43 46 46 47 46 45 46 48 51 56 62 64 71 76 81 85 86 89 93 98
91 87 81 78 75 72 65 65 63 61 60 56 52 49 48 48 45 43 41 37 37 37 38 40 42 40 42 41 43 45 46 48 53 59 60 64 70 73 77 80 83 87 89
83 80 75 71 68 66 63 61 57 55 54 52 48 45 45 46 43 39 37 36 34 34 36 38 37 36 38 39 41 44 43 46 50 54 55 59 65 68 72 77 81 85 86
76 73 69 66 63 60 58 56 51 50 51 49 47 45 42 42 38 36 35 33 32 33 33 32 34 34 34 36 38 39 42 44 47 51 50 53 63 65 69 74 78 82 84

GFSMA_250_spd_033.txt.gz
Wind_Speed
48 44 42 43 46 48 47 47 48 50 50 50 50 50 49 45 46 45 42 43 44 45 44 43 39 39 39 37 33 31 38 40 49 57 62 65 75 82 86 87 86 83 74
45 43 47 49 48 49 52 53 54 55 53 51 51 50 51 53 53 50 49 48 49 50 50 47 45 43 43 43 42 40 35 42 47 48 59 64 68 76 79 83 77 76 75
49 49 49 50 53 55 58 58 58 58 58 57 55 52 53 54 55 56 56 53 55 54 53 53 51 50 49 47 48 48 46 43 45 51 53 61 68 75 78 82 77 70 73
53 54 56 57 58 61 61 60 60 61 61 61 59 58 59 61 62 63 64 64 60 58 54 59 58 56 55 55 53 53 53 54 51 50 53 57 64 74 79 84 77 75 76
57 61 63 63 66 66 63 63 65 66 66 66 65 65 66 66 67 68 69 71 72 70 70 73 69 69 68 66 63 59 58 59 61 60 56 58 60 73 80 83 83 80 77
62 65 67 67 69 66 64 72 74 74 76 76 76 75 75 76 78 77 76 76 76 77 79 78 77 77 77 75 74 73 69 65 67 68 67 63 65 67 76 83 82 85 88
65 67 70 70 71 72 76 78 79 81 83 88 87 87 85 86 86 88 89 89 89 86 84 85 84 84 85 86 85 82 80 79 75 74 75 74 70 71 72 79 79 78 83
70 71 73 75 77 79 82 87 90 90 92 97 98 97 94 95 97 97 97 99 98 98 96 93 90 89 90 91 93 93 91 89 89 84 81 83 81 77 75 77 80 77 84
74 76 78 81 84 87 91 95 98 101 102 105 110 110 106 103 103 104 107 109 109 107 105 105 105 101 98 98 100 102 102 100 100 97 90 89 90 88 82 83 83 81 83
83 85 88 92 94 97 101 106 108 111 113 113 116 119 120 119 115 108 110 112 114 114 111 110 111 109 108 107 109 108 111 110 107 105 102 98 97 97 94 88 90 88 87
91 94 98 103 107 110 113 116 116 119 119 118 120 120 119 119 119 114 101 107 109 110 111 105 105 106 106 105 105 106 116 112 109 108 110 106 103 102 103 99 95 96 95
97 103 107 111 116 121 124 125 125 124 119 118 114 111 108 106 102 102 99 88 89 92 95 94 95 94 92 96 98 100 105 103 104 110 111 110 107 107 106 107 103 101 101
105 110 114 119 128 130 130 131 132 129 126 121 114 112 110 106 101 95 91 87 81 78 82 84 85 87 85 85 88 92 94 98 101 106 108 110 109 110 110 112 111 108 107
112 118 125 130 134 133 133 132 128 123 117 112 111 108 105 101 97 94 89 84 81 77 80 83 84 83 86 85 86 86 87 93 92 93 103 107 108 110 111 114 118 116 113
122 128 133 134 134 128 124 119 115 112 111 110 107 103 100 95 94 92 89 86 78 77 76 79 77 80 82 85 87 88 91 94 91 87 97 104 107 108 112 116 122 123 121
131 134 132 129 122 118 114 111 109 109 108 106 102 99 94 90 86 83 78 76 73 66 65 70 70 73 75 78 83 86 89 93 94 89 96 99 101 102 111 116 121 125 126
135 132 124 119 115 113 111 108 105 103 102 100 95 93 89 82 77 74 70 66 65 63 60 64 65 67 71 74 76 79 83 83 92 93 94 92 100 103 104 111 119 125 129
128 119 118 117 114 110 106 103 100 97 94 90 87 84 81 76 72 68 65 61 59 57 55 60 60 62 65 69 69 71 75 77 79 83 92 91 99 99 100 107 115 123 128
121 120 119 116 110 105 102 99 94 89 83 81 78 74 71 68 66 64 60 58 55 53 53 54 59 57 59 62 64 66 68 69 70 76 79 83 94 98 98 104 110 117 123
125 119 115 110 105 100 95 91 87 82 77 73 70 67 65 63 60 58 57 57 53 50 50 50 55 55 53 55 58 60 60 63 64 68 73 80 89 98 102 103 105 111 120
114 109 106 102 97 91 84 81 78 75 72 69 67 64 62 60 58 54 54 54 49 45 44 45 49 49 50 49 49 52 55 57 59 62 67 74 80 91 100 97 99 104 111
104 100 96 91 86 81 77 75 73 70 67 65 65 64 61 58 54 50 48 48 45 40 39 41 43 43 43 43 44 46 50 53 56 58 63 69 74 83 92 97 97 100 102
93 90 85 82 78 74 71 69 68 66 65 63 60 57 56 52 48 44 42 44 41 37 37 39 40 39 40 40 41 43 44 47 51 56 59 66 71 78 86 91 94 96 96
86 82 78 75 73 69 67 65 65 63 61 58 54 52 50 48 44 42 41 40 40 36 37 38 38 36 39 36 39 40 42 45 50 54 54 60 64 71 77 80 86 91 94
82 78 74 72 70 67 64 63 59 56 54 51 48 46 46 45 41 38 38 38 37 35 36 36 34 32 34 35 38 40 39 45 47 48 47 53 61 66 70 74 80 85 89
77 75 70 67 64 62 59 57 54 52 52 50 48 43 40 39 36 34 33 33 33 33 31 30 29 29 30 33 35 35 38 40 43 44 45 53 58 60 65 70 74 78 83

GFSMA_250_spd_039.txt.gz
Wind_Speed
48 49 45 47 53 52 53 51 51 52 52 54 55 57 58 57 57 57 55 51 48 49 49 46 45 46 46 46 46 44 43 42 43 40 39 45 56 65 73 83 93 94 91
51 55 56 53 53 54 53 52 53 54 55 57 61 62 62 61 61 59 58 55 54 54 54 54 54 53 52 52 50 48 47 47 47 45 45 43 50 58 66 72 76 87 96
57 59 57 56 56 57 56 57 56 55 57 59 62 65 66 66 66 64 64 65 65 64 61 59 59 60 59 58 57 56 54 52 50 52 50 51 49 51 61 68 66 76 88
64 63 60 59 60 60 62 62 60 61 63 65 66 68 68 69 70 70 70 70 68 67 68 69 68 67 67 67 67 65 63 61 58 55 57 56 57 55 55 62 69 66 75
67 67 66 65 66 66 65 65 67 68 70 72 73 73 73 73 74 75 77 78 78 77 77 77 78 78 77 76 75 74 73 71 68 64 61 61 62 61 61 61 62 67 70
69 70 69 69 69 70 71 73 74 76 76 76 76 76 78 82 83 84 86 85 87 87 88 87 87 88 86 86 86 84 82 80 78 75 71 68 66 68 67 65 65 66 71
73 73 71 74 74 75 77 79 81 83 85 87 85 84 85 87 88 90 91 93 96 99 99 99 98 95 94 95 94 94 95 89 87 86 82 77 76 73 72 70 69 68 69
74 74 76 77 79 81 85 88 90 91 93 94 94 93 91 93 97 100 102 103 103 103 104 105 106 106 108 107 106 104 103 102 97 92 91 87 84 81 79 77 76 74 72
78 79 82 83 85 88 91 95 98 101 103 103 102 103 102 102 104 108 112 111 112 113 114 114 115 117 118 117 116 115 113 111 109 105 100 97 94 91 88 84 83 83 79
82 85 87 89 91 96 100 103 108 112 112 112 113 116 117 116 114 107 112 115 116 119 121 120 121 122 123 124 122 124 121 119 119 115 112 106 102 101 97 94 89 88 87
89 91 94 97 102 106 110 115 118 119 120 122 124 124 124 123 121 118 112 115 117 122 125 126 126 124 120 118 116 117 120 124 124 122 120 118 113 110 110 102 99 96 94
92 95 100 105 109 114 117 121 124 126 127 126 124 125 124 123 121 121 120 117 116 118 120 119 118 118 115 111 107 105 106 112 120 125 126 123 124 119 118 114 109 103 99
96 101 106 110 115 120 122 125 128 129 128 125 124 123 124 126 125 122 116 109 103 102 105 108 102 101 100 102 103 103 100 102 108 111 117 123 122 125 128 121 115 111 108
103 107 112 117 120 121 122 122 123 122 122 123 122 122 124 122 116 110 104 96 90 86 91 96 96 92 92 92 93 95 97 99 100 104 108 114 118 122 127 121 115 118 119
110 114 116 117 120 120 119 116 117 118 119 117 116 114 107 102 97 94 90 86 82 78 79 85 89 90 88 89 89 90 92 95 99 101 105 107 111 113 117 111 117 122 122
114 118 119 120 118 117 115 113 115 117 115 111 106 102 97 93 90 86 81 78 75 71 68 75 81 81 79 80 82 85 89 92 95 99 102 105 109 111 113 115 113 117 120
121 122 123 124 125 119 117 119 117 112 108 103 98 93 89 84 81 78 75 71 68 66 62 67 71 74 72 71 73 75 80 85 90 95 99 103 105 109 111 113 113 114 109
126 129 129 128 124 119 115 111 108 103 99 94 88 83 80 75 72 70 68 66 63 61 56 58 65 68 67 65 65 66 71 76 82 88 95 99 103 108 112 111 111 111 111
132 131 125 119 118 111 107 102 96 91 87 82 78 74 71 69 67 65 64 63 61 58 54 51 58 60 63 62 61 61 64 70 75 79 86 93 99 106 110 109 108 112 106
123 120 115 110 105 100 96 91 86 82 78 75 72 68 66 65 64 63 60 59 57 55 52 49 52 56 57 59 57 56 57 63 68 72 79 84 89 98 104 107 108 112 106
113 111 107 100 96 91 87 83 79 76 73 70 67 64 63 62 59 57 55 54 53 51 49 46 48 51 53 55 54 53 53 55 63 67 72 77 81 86 94 100 105 108 106
111 107 100 93 89 85 81 77 74 72 69 67 64 61 60 58 56 54 51 49 49 48 46 43 44 45 47 48 48 50 53 55 61 62 65 70 74 81 85 90 96 101 104
105 98 92 87 83 78 74 71 69 68 67 64 60 58 58 56 53 50 47 44 43 44 46 44 43 41 43 39 40 47 50 52 56 58 62 65 67 73 77 81 86 89 94
99 92 85 80 76 73 70 68 66 64 62 60 58 57 56 55 51 47 44 41 40 38 41 41 39 36 39 38 40 42 45 48 49 50 54 59 61 64 66 72 77 82 88
92 85 81 75 72 69 66 64 62 61 60 58 55 52 50 48 46 43 39 37 34 34 33 33 33 32 35 37 38 40 40 43 42 42 50 56 54 59 63 67 70 74 79
86 80 75 70 67 65 62 59 58 59 57 53 49 45 42 40 39 37 35 33 30 29 28 27 27 29 30 32 36 36 38 38 38 40 48 50 49 55 59 61 64 67 72

GFSMA_250_spd_042.txt.gz
Wind_Speed
59 59 54 50 51 52 55 58 55 53 55 55 54 55 54 53 53 55 56 56 56 57 55 52 50 49 49 46 43 40 40 38 38 41 41 44 42 49 61 78 85 89 99
60 63 59 55 55 56 60 62 60 57 57 58 58 58 58 59 60 60 61 62 61 61 60 57 55 52 54 53 50 46 44 43 42 41 44 46 49 47 47 51 69 76 90
60 62 59 58 60 63 65 65 64 62 62 63 61 62 62 63 64 63 64 66 68 67 65 63 61 61 58 57 55 54 53 50 50 49 46 47 50 53 51 49 54 64 81
62 58 60 63 67 69 68 68 69 67 67 68 67 68 69 69 70 70 70 70 72 74 74 73 72 69 68 66 64 62 60 58 58 57 55 53 51 52 57 58 54 57 66
65 64 69 73 73 73 73 73 74 71 73 73 73 74 75 77 77 78 78 79 78 78 78 78 78 78 77 76 75 72 69 69 68 66 63 62 61 58 56 60 62 61 63
75 75 74 75 77 77 78 79 78 79 80 80 79 79 81 83 84 85 86 87 88 88 89 88 86 85 84 84 84 84 82 80 77 76 74 70 68 68 64 62 62 65 64
76 76 77 77 77 79 81 80 83 85 86 85 85 86 89 90 93 95 95 96 98 99 97 96 95 94 95 94 94 93 93 91 89 86 86 81 78 75 73 72 68 66 70
76 77 78 79 80 81 83 86 88 89 91 93 94 95 95 99 102 104 105 104 103 103 103 103 103 104 104 105 104 101 99 100 98 96 93 92 88 85 82 79 79 74 72
77 79 81 82 84 87 87 89 92 95 95 98 99 101 99 100 103 108 111 111 112 113 113 112 112 111 110 110 110 110 108 107 105 104 104 100 99 97 95 91 87 84 80
82 83 85 85 86 89 93 97 100 102 103 104 106 107 109 109 109 109 113 115 117 119 121 120 120 120 118 117 116 118 118 118 116 115 113 114 111 108 107 104 99 91 89
82 85 85 87 92 96 100 104 108 111 112 114 116 119 121 122 121 120 118 118 120 123 124 126 125 123 123 121 121 120 120 122 125 125 124 123 123 120 116 114 110 103 97
81 85 90 95 100 105 108 112 115 120 121 123 125 125 123 123 123 124 123 121 123 125 127 128 125 122 121 120 118 116 114 112 114 120 124 124 127 126 123 122 117 112 109
89 94 98 103 107 112 115 118 120 122 123 124 124 124 121 121 122 121 119 116 116 116 118 119 119 116 112 115 116 116 112 110 108 108 112 116 120 122 124 122 125 124 116
95 100 105 109 112 115 119 121 122 120 119 120 122 119 117 118 117 111 103 97 94 94 95 97 98 99 94 94 96 98 100 100 102 103 103 108 109 110 116 116 124 127 125
101 107 111 113 118 120 119 119 118 117 118 120 120 117 114 109 103 97 90 85 81 79 82 85 87 89 87 84 85 87 89 91 93 97 100 102 105 104 106 109 114 121 125
105 108 112 116 121 120 119 120 120 116 115 114 112 106 102 97 93 89 83 79 75 72 70 76 80 79 78 76 76 77 81 81 84 89 92 95 98 103 104 108 111 115 119
109 115 117 116 118 117 118 117 114 111 108 103 97 93 91 88 85 82 78 75 72 68 65 69 72 76 72 69 69 69 71 73 77 80 85 89 92 96 101 104 109 114 116
115 121 120 120 119 114 112 108 102 99 95 91 89 85 82 79 77 75 73 72 68 65 60 59 68 69 70 67 65 64 63 67 71 75 79 83 87 92 97 100 104 110 112
121 121 122 121 116 106 101 97 93 90 88 85 81 78 75 72 71 69 66 63 62 60 57 54 60 62 64 64 62 61 59 60 65 70 75 79 82 87 92 96 99 103 105
124 123 120 117 109 99 93 90 88 85 82 79 75 72 69 67 66 64 62 60 57 57 54 52 54 57 57 60 58 58 56 56 60 66 69 73 77 81 86 93 96 98 100
125 121 118 110 103 95 90 87 84 79 76 74 69 66 65 63 61 59 58 57 54 52 50 49 50 49 52 54 53 53 55 56 59 61 66 67 69 73 80 86 91 96 97
123 118 111 103 96 91 88 84 79 76 72 68 66 63 61 60 58 57 54 52 51 50 48 47 46 44 45 48 46 48 51 54 58 56 60 62 64 68 74 80 84 90 94
118 111 104 97 92 87 83 78 75 71 68 65 62 61 62 59 56 53 51 47 44 44 46 45 44 39 39 41 43 45 46 48 55 53 58 59 60 64 69 73 77 82 87
111 104 98 92 87 82 77 73 70 67 65 61 59 58 56 55 52 50 48 45 41 40 40 41 40 38 35 37 40 42 43 44 48 47 54 57 58 59 63 68 72 76 81
104 98 92 88 82 76 72 69 67 64 62 59 54 51 51 49 47 45 44 42 39 36 34 33 33 33 33 33 35 38 39 41 42 42 49 50 53 56 59 63 66 70 74
98 93 88 82 76 72 68 66 63 61 59 57 53 50 48 46 43 41 39 39 36 33 31 28 26 26 26 28 30 33 37 38 37 39 43 39 45 50 52 56 61 64 68

GFSMA_250_spd_045.txt.gz
Wind_Speed
64 58 58 55 58 57 57 53 52 53 56 60 63 63 60 58 56 54 52 50 50 50 51 50 50 48 48 47 46 44 42 42 41 40 38 42 48 47 48 67 78 82 88
61 64 60 59 57 59 57 55 56 59 64 69 70 68 66 65 61 60 59 59 58 57 55 54 54 53 51 49 50 51 49 47 47 45 44 42 42 49 49 49 68 84 88
64 68 69 71 69 70 68 65 67 68 71 71 70 71 70 72 70 67 66 67 67 66 66 63 61 61 59 57 54 54 56 56 54 52 51 47 45 44 49 52 53 70 80
68 72 76 77 78 80 77 74 74 72 72 73 73 74 75 75 74 73 74 75 74 73 72 71 71 69 67 64 63 61 60 61 62 60 59 57 54 52 50 52 55 58 65
74 79 77 82 83 82 80 79 78 77 76 77 77 78 78 78 79 81 81 80 80 80 80 79 78 77 77 76 73 72 70 68 67 67 67 66 64 61 60 58 57 60 62
81 84 87 85 87 86 84 81 80 79 79 80 81 82 84 85 87 87 88 88 88 89 88 88 88 87 86 84 83 82 80 77 77 75 75 73 73 71 67 65 64 62 61
84 87 87 88 86 81 79 80 82 83 85 85 86 88 90 89 91 93 93 94 94 94 95 95 95 96 96 93 92 90 88 87 85 85 82 81 81 79 78 74 71 71 68
84 82 79 79 81 82 83 83 85 87 89 90 90 89 89 91 94 97 100 101 102 104 104 104 103 102 102 102 101 100 97 96 96 95 93 91 89 87 86 84 82 79 75
76 79 81 81 82 83 85 86 87 87 87 90 94 98 100 103 105 109 110 111 111 113 115 115 113 112 111 110 109 109 108 107 106 106 105 102 100 97 96 94 93 90 86
77 78 79 80 82 83 84 85 89 93 97 101 105 109 113 114 117 115 117 119 120 120 119 118 116 118 118 119 120 120 120 120 119 117 116 115 112 108 106 103 102 97 96
74 76 79 80 81 83 87 93 99 104 107 110 111 114 117 120 124 127 126 126 124 126 126 125 123 123 124 123 124 124 126 128 130 130 129 126 124 120 116 112 108 106 102
74 75 76 80 86 92 97 103 107 108 111 113 117 119 119 121 124 128 128 128 126 124 124 126 123 119 119 118 119 121 121 121 122 124 128 126 124 128 126 123 119 115 112
75 79 84 90 96 101 105 105 106 107 111 116 119 119 120 122 123 122 120 120 116 111 113 117 117 112 105 102 105 108 111 113 114 115 114 114 116 115 122 128 127 125 120
82 88 94 99 103 107 107 109 109 114 114 116 116 116 118 117 116 114 110 105 101 98 95 96 101 100 94 91 89 90 92 97 99 102 103 105 108 111 112 117 125 127 128
90 94 101 104 106 107 110 111 112 115 115 115 113 111 109 106 103 100 95 91 86 83 84 84 86 87 85 82 80 79 81 85 88 91 95 97 101 104 107 110 113 121 126
95 99 102 105 109 113 111 112 114 116 111 107 104 101 97 93 90 87 84 82 77 74 71 76 76 78 77 75 72 70 72 75 79 84 87 90 93 97 101 105 108 112 117
99 101 104 108 109 109 112 114 112 109 104 98 93 90 87 83 81 78 76 74 72 69 65 71 71 72 71 69 68 66 67 68 70 75 79 83 86 89 93 97 101 105 112
101 105 107 108 113 116 116 112 107 100 95 90 86 82 79 77 74 72 71 70 67 65 62 60 71 68 67 65 65 63 64 62 63 68 72 76 80 83 87 91 95 99 106
106 108 114 116 117 117 113 105 97 91 88 84 81 78 74 73 71 69 67 66 63 61 59 54 63 62 64 62 61 61 61 60 60 64 68 71 73 76 81 85 89 93 101
109 113 115 116 115 111 104 96 90 87 83 78 75 73 71 68 67 67 64 61 59 57 56 55 57 58 58 58 54 56 57 56 58 61 65 67 68 70 74 79 84 88 94
114 115 113 112 108 103 96 91 86 83 79 75 72 70 68 66 64 63 60 59 56 53 52 51 52 52 52 53 51 50 53 54 55 58 61 63 63 65 69 74 78 83 88
115 113 109 106 101 95 92 87 82 78 75 73 71 68 65 63 61 58 54 50 47 48 49 48 46 44 45 47 46 46 50 50 52 52 56 59 60 60 63 68 72 75 81
113 109 104 101 95 91 87 82 78 75 73 70 68 65 63 60 57 54 52 49 47 45 44 42 41 39 40 40 42 41 44 47 48 46 52 54 56 57 58 61 65 69 74
108 105 102 97 91 87 82 78 75 73 69 66 64 60 58 56 54 52 51 49 46 43 41 39 38 37 36 36 36 35 38 42 42 40 47 49 53 54 55 57 61 65 70
106 104 100 94 88 83 78 75 72 68 66 64 61 58 55 54 51 49 47 45 43 41 38 36 34 33 32 32 32 32 35 36 36 37 44 43 46 49 52 54 57 61 65
106 102 95 89 85 79 75 72 69 66 64 62 59 58 54 50 47 45 43 41 38 37 34 32 31 28 28 27 28 29 30 33 36 39 42 38 42 43 45 48 52 56 60

GFSMA_250_spd_048.txt.gz
Wind_Speed
66 65 67 69 59 61 59 56 59 56 58 59 58 59 61 59 59 59 57 56 55 55 55 55 53 53 52 50 49 48 45 41 39 39 38 39 41 50 53 67 89 92 88
64 66 71 69 65 68 67 69 72 70 69 69 67 65 67 66 64 64 63 61 61 59 59 59 59 59 60 59 57 54 52 50 46 43 43 43 46 45 52 55 58 69 89
65 70 69 73 71 70 74 77 80 84 84 78 73 70 73 71 68 67 67 67 65 66 64 62 63 64 65 66 66 64 62 58 54 51 49 49 49 50 53 54 60 60 67
64 67 67 68 69 71 77 85 89 91 91 85 80 76 73 72 70 71 70 71 70 69 68 68 69 70 70 70 71 72 71 68 64 60 57 55 54 55 54 59 59 65 65
64 73 74 76 80 84 87 89 94 96 91 83 80 79 80 80 79 78 76 76 76 76 77 75 78 77 76 76 76 76 77 77 74 72 67 64 62 60 61 60 63 61 69
78 82 84 88 90 91 95 94 96 85 85 86 86 84 84 82 82 81 80 80 79 80 80 79 79 81 81 81 81 81 81 82 82 82 79 75 71 69 67 67 67 68 66
85 82 84 92 93 90 85 86 88 89 90 89 87 84 83 82 81 83 84 85 84 86 86 87 89 90 90 89 90 89 90 88 87 88 87 85 84 80 77 74 74 74 73
77 77 78 80 81 82 83 84 84 86 87 85 84 84 84 86 88 87 94 96 96 98 99 99 99 100 101 102 101 103 99 99 98 97 96 94 90 88 86 83 82 81 81
75 76 77 79 80 82 82 84 84 84 84 86 88 91 95 99 102 105 105 106 110 111 113 113 115 115 116 117 116 113 111 112 110 108 106 104 101 99 96 93 89 88 88
75 76 78 79 79 79 81 82 83 87 90 94 99 103 105 109 111 112 117 119 119 119 121 123 125 124 123 124 128 130 127 125 123 121 118 115 112 108 105 102 98 95 95
75 75 75 73 74 77 82 87 91 95 99 102 106 109 111 113 117 118 119 121 124 124 125 128 129 127 126 125 121 123 117 119 127 132 131 128 124 120 117 114 109 105 103
69 69 72 75 79 83 87 92 96 101 103 106 109 112 115 117 120 122 123 123 122 121 125 125 122 123 123 118 117 119 115 116 115 120 124 131 136 135 130 126 121 117 112
66 71 76 81 86 91 95 99 99 103 105 108 111 114 116 117 117 117 117 114 112 110 111 110 108 106 104 102 100 100 104 108 109 108 112 118 124 130 134 135 133 128 124
70 80 84 86 95 95 97 100 102 104 106 109 112 114 113 113 112 110 108 107 101 100 100 97 97 93 90 88 84 83 86 91 96 101 103 105 110 118 124 130 133 132 132
79 88 91 97 98 98 99 100 103 107 111 114 115 113 110 107 104 101 99 97 93 89 91 91 87 85 81 79 78 78 77 79 84 90 95 99 103 107 113 120 126 129 132
87 93 99 99 99 99 99 103 106 108 110 109 107 105 102 98 95 92 89 87 85 81 76 83 80 76 73 70 68 70 72 73 77 82 85 89 93 98 104 111 117 122 125
94 99 99 100 99 100 103 108 108 107 105 102 100 97 94 90 87 83 80 77 75 72 65 73 73 71 68 64 62 63 66 67 70 75 78 82 86 90 94 99 105 110 117
101 101 103 100 102 103 105 107 106 103 100 96 92 88 85 81 77 74 72 70 68 66 61 61 70 66 65 63 61 58 60 63 65 67 71 78 80 83 86 91 96 101 106
105 106 103 104 105 107 108 103 100 97 93 87 84 82 78 75 72 71 69 65 63 62 59 56 66 63 64 62 60 57 56 59 61 63 66 70 75 78 79 83 88 94 98
109 108 107 108 109 108 105 100 95 90 86 82 79 76 73 71 68 67 66 63 60 58 57 55 56 55 57 58 58 57 55 55 57 60 63 66 69 72 74 77 81 86 91
112 110 112 110 108 103 99 96 90 84 81 78 75 72 68 66 64 63 61 60 58 56 54 53 52 51 49 50 51 52 53 53 55 55 59 63 63 66 68 72 76 79 83
114 115 112 110 102 97 96 91 85 81 78 73 71 68 65 63 60 60 59 56 55 53 52 51 50 47 45 44 44 46 48 48 50 49 53 59 59 63 63 66 69 74 77
115 113 111 105 99 97 92 86 81 78 73 70 68 66 63 60 59 59 58 56 53 49 49 48 47 43 42 39 40 42 41 42 45 44 49 53 56 57 57 59 64 69 71
115 113 108 102 99 94 86 82 78 73 69 67 65 62 60 58 58 56 54 52 48 45 43 42 41 40 38 35 34 36 36 36 38 41 45 49 49 50 52 56 61 65 69
114 109 103 101 96 89 84 79 74 70 67 63 60 59 58 57 53 50 49 48 44 40 40 39 37 35 33 31 30 30 31 31 32 38 43 44 44 45 49 52 56 61 65
112 108 103 99 93 85 80 75 71 68 64 61 58 57 57 52 48 45 46 45 41 36 35 34 34 32 29 27 26 25 26 27 27 32 37 39 41 44 46 47 50 55 61

GFSMA_250_spd_051.txt.gz
Wind_Speed
57 54 56 68 71 67 67 65 66 68 60 59 66 64 70 65 60 58 53 53 58 59 59 61 61 59 57 57 55 54 51 50 48 46 42 38 41 46 53 62 73 88 82
67 66 70 70 74 72 72 71 75 68 64 62 76 75 83 84 75 69 63 57 59 59 59 58 60 61 60 60 60 58 57 56 55 53 50 46 42 47 50 58 68 85 90
67 70 72 72 74 75 71 69 68 67 67 83 89 87 89 88 84 78 72 68 65 64 66 65 62 61 61 62 64 63 62 60 59 59 58 57 52 48 52 56 65 71 96
65 68 69 73 74 69 65 66 70 77 89 96 99 97 95 95 86 77 80 75 74 72 69 68 70 69 67 67 67 66 66 66 66 65 64 64 63 59 54 56 61 67 71
63 67 67 67 75 79 79 85 88 94 90 88 85 83 83 83 82 78 78 74 75 74 75 70 70 75 71 71 72 72 73 73 74 73 72 69 69 68 64 61 60 65 70
70 74 77 81 84 88 93 96 98 94 88 85 84 85 85 85 83 83 83 79 78 76 76 77 75 77 76 77 79 78 78 79 79 78 78 75 73 74 73 71 68 65 67
82 84 83 85 91 85 87 90 88 87 87 87 86 83 84 84 84 79 79 84 84 85 84 87 88 89 89 88 87 86 85 85 85 84 84 83 81 79 80 79 77 74 73
76 76 77 77 80 82 80 82 85 86 85 81 79 78 79 83 89 90 91 94 95 96 99 99 101 101 102 103 105 101 99 98 97 95 94 93 91 89 86 86 85 83 81
73 76 78 80 81 82 82 78 73 73 78 81 85 88 90 93 96 102 106 110 110 110 111 113 115 115 116 115 116 119 113 110 113 110 108 107 104 100 97 95 93 90 89
75 77 77 77 76 73 70 70 75 81 84 88 91 98 103 106 108 107 110 112 117 119 121 121 121 121 125 124 124 126 127 125 124 124 123 120 118 115 111 107 104 99 97
71 72 71 68 64 68 73 78 82 89 93 98 102 104 106 108 111 112 109 113 117 120 123 125 125 121 121 120 118 117 114 117 119 129 133 133 132 127 123 119 115 111 107
66 65 64 66 69 74 80 84 90 97 100 103 107 108 108 107 108 111 114 114 113 114 119 118 118 119 117 114 114 116 112 112 119 122 123 129 133 131 129 128 127 124 118
64 64 68 70 76 79 85 92 98 100 102 104 103 103 105 109 112 113 115 112 107 106 106 104 104 103 102 100 100 101 99 100 105 110 112 116 121 130 133 131 128 128 128
70 71 73 77 81 86 92 99 103 103 102 101 103 106 108 112 112 110 109 106 104 101 100 97 97 93 90 87 84 87 88 87 89 92 95 102 107 111 118 126 134 129 125
72 74 76 80 88 93 100 104 104 103 103 104 105 109 111 113 109 107 105 102 97 90 89 91 88 87 84 80 78 77 82 80 81 83 85 89 94 97 103 110 116 127 123
75 77 80 87 93 99 105 108 106 104 106 108 110 112 109 107 105 100 97 93 90 85 77 83 84 77 75 73 70 69 74 76 77 77 78 81 84 88 93 100 106 111 120
81 82 87 94 99 105 111 109 107 107 109 112 111 104 104 101 97 93 89 86 82 79 72 72 76 74 70 69 65 64 67 70 74 73 74 76 78 82 88 92 98 106 111
85 88 93 101 106 112 112 109 110 110 110 106 101 100 97 93 89 85 82 78 75 73 69 63 73 68 66 66 64 61 61 63 68 70 70 73 76 79 80 83 89 98 105
91 96 103 108 114 115 112 111 109 107 103 99 96 93 89 85 81 78 74 73 70 68 66 62 66 64 62 61 59 58 58 59 61 65 67 69 73 75 76 81 86 91 98
98 104 109 115 119 114 112 111 107 97 96 95 90 87 81 77 74 71 70 68 65 64 62 59 58 59 55 54 53 54 53 53 56 58 60 64 67 70 74 77 78 83 90
106 111 116 119 115 111 112 106 100 96 92 88 84 79 74 72 69 67 65 63 60 59 58 57 55 55 54 51 50 51 51 51 52 53 54 59 62 64 68 71 74 78 82
112 117 121 118 115 111 109 97 95 93 86 81 77 74 70 66 66 63 63 59 56 54 53 51 50 48 48 45 45 46 47 49 50 47 48 52 58 62 62 63 67 72 77
117 120 119 117 114 108 102 97 91 86 81 76 72 69 66 63 63 60 57 56 53 51 49 47 47 44 42 39 39 40 41 45 45 42 41 48 52 58 58 60 61 69 73
120 121 115 115 109 102 101 96 87 80 76 72 69 66 63 61 59 56 54 52 49 48 46 44 43 40 36 36 35 35 36 38 40 39 38 45 47 53 55 55 59 64 67
122 115 114 107 103 99 96 89 82 77 73 69 65 63 60 57 54 52 50 49 47 46 43 41 39 36 33 33 32 32 33 34 34 34 37 41 43 46 49 51 55 57 62
115 112 108 104 102 96 91 83 77 73 69 65 61 58 58 54 52 49 47 44 44 42 40 37 36 34 32 30 29 28 28 28 29 30 33 35 39 40 42 45 48 51 57

GFSMA_250_spd_054.txt.gz
Wind_Speed
74 72 74 76 75 79 78 78 77 71 68 64 63 69 61 67 65 77 73 68 72 67 69 54 54 53 56 60 60 58 57 55 53 52 51 49 49 46 47 57 67 74 83
81 82 83 85 86 87 82 79 75 69 69 68 74 71 66 79 72 81 86 80 72 69 66 64 59 58 57 56 59 61 62 60 59 58 56 54 55 54 49 52 63 71 80
85 86 88 89 85 82 79 76 68 70 74 73 82 74 86 84 88 88 87 80 72 70 71 68 70 68 64 64 64 63 64 63 63 61 61 60 59 59 57 52 58 69 79
84 82 79 79 79 77 77 77 77 78 78 82 83 85 90 89 88 84 79 77 75 72 72 72 69 70 69 67 67 68 69 69 68 68 67 67 65 64 63 60 57 64 74
71 71 74 78 77 77 78 82 87 90 89 91 90 90 84 81 82 80 77 74 75 73 71 69 69 69 71 70 71 72 72 72 75 75 74 73 71 71 69 67 66 64 68
64 66 72 76 79 80 81 85 89 93 88 84 81 81 81 76 70 72 71 74 78 79 77 77 78 79 77 75 76 77 77 78 78 80 81 80 79 78 76 75 73 72 69
65 69 71 74 78 81 80 82 81 81 82 79 73 68 65 67 74 80 81 83 86 89 89 88 89 89 90 90 90 87 86 86 86 87 88 88 87 86 84 84 82 80 78
68 69 73 74 74 77 77 76 76 74 71 66 63 67 68 75 81 88 93 97 101 102 102 103 104 105 105 104 104 104 102 101 100 97 94 95 95 95 93 92 90 89 86
63 64 66 67 69 70 71 71 69 67 66 70 74 76 77 81 86 94 103 107 111 112 115 116 116 114 112 114 114 115 116 115 114 111 109 104 102 102 102 101 100 97 95
62 64 66 68 69 69 69 70 71 72 72 74 79 84 89 92 96 95 102 107 109 115 117 118 117 117 116 115 113 112 109 110 115 120 122 122 116 111 108 107 105 104 103
60 64 67 68 68 70 72 75 77 80 80 81 84 90 95 101 107 109 106 105 105 108 111 118 121 121 121 117 113 109 105 105 102 104 113 121 128 125 120 118 114 111 108
68 71 68 66 67 69 72 74 75 80 84 84 90 99 104 109 110 113 110 108 105 108 113 114 116 117 114 110 106 105 103 100 100 102 105 113 116 122 128 126 125 123 119
75 77 75 72 72 75 76 77 78 79 87 92 100 105 109 113 112 111 110 107 105 104 101 104 102 100 98 96 93 93 92 90 92 95 97 104 110 112 116 122 128 130 130
82 82 80 77 78 80 80 79 81 87 93 101 106 111 112 112 108 110 110 108 103 99 95 96 99 95 92 88 86 82 82 84 81 85 89 95 99 102 105 111 120 127 130
87 88 84 81 82 84 85 87 90 97 101 108 110 111 109 111 111 111 110 104 99 95 94 92 91 88 85 80 78 75 76 78 79 79 81 85 86 89 97 102 108 118 126
93 92 89 87 88 90 91 94 99 104 107 112 109 108 111 112 110 104 106 104 99 92 83 83 84 83 78 74 73 70 73 73 74 77 77 76 77 80 87 93 98 106 114
97 94 90 91 93 94 96 102 105 108 111 109 109 111 110 108 105 103 101 98 93 88 78 75 77 77 72 70 69 67 68 68 71 75 76 74 70 74 79 84 90 96 104
97 92 92 94 96 101 103 107 112 113 110 110 111 110 106 105 102 98 94 89 85 80 74 70 73 72 69 67 65 64 64 64 66 70 72 71 69 71 74 77 83 91 96
93 94 95 99 102 106 110 115 117 111 112 113 109 105 104 99 94 90 85 81 76 73 71 66 67 68 66 64 62 60 60 61 61 64 66 68 67 69 71 73 76 82 89
94 97 102 105 106 112 115 120 115 112 112 108 106 103 97 91 86 83 77 74 69 67 67 64 64 63 63 60 56 56 57 57 59 59 60 61 63 67 70 72 74 74 82
100 104 109 110 115 118 116 113 112 111 106 102 100 95 89 81 79 75 71 68 64 62 63 62 61 60 57 51 49 50 51 52 53 56 56 58 57 59 66 69 70 73 76
106 109 113 115 120 119 115 114 110 104 101 97 90 85 80 74 73 70 68 64 61 59 59 58 56 52 48 44 46 46 46 47 50 46 49 54 50 53 58 63 65 70 74
113 114 119 119 119 115 116 111 106 101 97 90 83 78 75 70 70 65 62 59 59 57 56 55 51 45 45 42 42 40 39 41 42 43 43 48 44 51 54 57 60 66 71
117 121 122 119 115 113 110 108 104 98 90 83 77 74 71 65 65 61 58 57 56 55 54 49 48 46 43 41 39 37 36 36 37 39 41 42 40 46 49 52 55 61 68
121 122 121 117 116 108 106 103 97 90 83 78 73 70 68 62 61 58 56 55 53 52 49 45 45 43 39 38 37 33 34 34 34 36 38 37 37 41 44 47 49 53 60
125 125 119 115 110 104 102 97 89 85 79 75 70 66 65 60 58 55 54 52 50 49 45 41 39 40 38 35 32 31 31 32 32 32 33 33 35 36 39 41 43 48 52

GFSMA_250_spd_060.txt.gz
Wind_Speed
81 87 87 80 79 77 80 79 80 78 79 80 78 80 79 77 76 77 76 76 78 77 76 76 76 74 73 72 69 69 67 66 63 61 60 64 61 62 61 59 57 55 70
82 75 73 76 78 77 78 81 79 79 80 78 78 77 80 82 83 83 84 82 81 80 79 78 77 77 75 75 75 73 70 66 64 60 61 62 64 65 65 64 64 63 61
73 71 73 77 77 79 82 83 84 80 77 78 80 79 79 80 79 78 78 78 79 78 77 75 75 77 76 76 74 73 72 70 68 65 61 64 69 68 70 69 68 70 70
73 75 76 76 80 83 80 78 76 73 72 70 71 72 74 75 76 76 75 73 71 70 69 69 70 69 69 70 69 69 68 66 66 66 64 65 67 75 74 74 74 73 73
76 77 77 78 75 73 70 69 69 66 62 64 66 68 72 76 77 78 77 77 75 74 71 70 69 69 71 71 72 71 71 73 71 69 68 67 66 69 78 80 81 80 77
68 69 69 68 64 63 62 61 60 61 63 67 70 74 77 81 81 79 78 77 76 76 77 77 76 76 76 76 78 80 83 83 84 82 79 77 75 73 72 79 85 86 86
68 66 62 63 62 60 58 58 62 66 71 72 74 78 80 85 85 81 77 78 81 82 82 81 80 81 81 84 87 87 88 90 91 92 93 89 85 82 81 79 82 89 90
60 58 58 58 58 58 61 64 67 71 75 78 80 82 85 89 83 80 79 80 83 84 84 84 84 86 89 92 96 98 102 104 103 103 104 103 102 99 92 88 87 86 93
57 58 57 59 62 64 67 69 72 75 79 83 86 88 88 80 76 79 79 79 83 86 89 93 96 99 100 101 103 106 108 110 111 111 110 110 110 109 107 104 98 94 93
56 58 62 64 67 70 73 75 77 80 84 89 92 94 85 79 76 73 78 83 88 94 99 104 109 113 116 118 119 120 120 120 117 116 117 116 113 113 112 108 106 104 103
59 63 67 71 73 75 77 79 84 87 89 92 94 86 81 81 85 88 88 93 97 102 106 112 116 119 123 125 126 124 122 119 116 114 111 108 106 104 102 104 105 107 106
63 66 69 72 76 76 78 83 87 89 92 93 85 81 85 89 95 98 99 100 102 103 107 111 115 116 116 114 112 110 108 106 105 102 102 101 101 101 102 99 99 99 103
67 71 76 74 73 78 81 85 89 93 93 84 83 87 90 96 103 106 107 105 102 101 104 107 112 112 110 107 102 98 95 93 93 92 93 93 92 92 93 94 94 98 99
73 73 74 77 81 83 86 91 94 92 87 87 91 95 99 105 108 110 109 108 104 103 106 105 107 103 100 96 94 89 85 83 82 80 81 82 84 86 89 91 92 92 96
73 75 79 84 87 90 94 97 98 94 91 93 97 102 107 110 110 109 110 111 111 105 102 101 99 95 92 86 81 76 72 71 70 68 69 72 75 79 83 85 89 90 93
77 81 85 89 91 94 98 101 99 94 96 99 102 108 109 110 110 110 111 111 107 101 95 92 91 87 82 77 73 69 66 65 64 62 62 65 67 69 73 80 84 88 92
82 85 89 92 95 99 102 105 100 98 100 106 109 109 109 110 111 111 111 107 102 97 90 88 85 80 76 71 68 65 63 61 60 59 59 61 62 63 66 72 78 81 86
85 88 91 94 99 102 105 102 100 103 107 110 109 111 112 113 113 112 109 104 98 92 85 83 81 75 71 66 64 62 59 57 56 56 56 57 59 61 63 67 72 77 80
89 91 92 98 104 106 105 102 106 109 109 110 111 111 112 114 114 108 103 99 93 87 80 78 76 71 67 63 62 59 57 55 55 53 53 54 57 61 63 65 68 72 77
93 94 99 105 107 109 106 108 114 113 110 111 112 113 112 112 108 103 100 94 87 82 77 74 68 66 63 60 58 57 56 53 52 49 52 55 54 55 58 61 64 69 73
98 100 107 107 106 106 108 112 112 108 109 112 112 111 109 107 104 98 92 86 81 77 73 69 65 62 59 56 55 53 52 53 49 46 53 49 49 52 52 55 58 64 69
101 109 110 109 107 111 114 113 112 112 112 112 111 109 106 103 95 87 83 79 75 71 68 65 61 59 56 53 52 51 50 49 48 45 49 44 47 47 49 50 53 57 64
109 114 113 108 111 116 117 117 117 115 114 113 109 105 100 96 87 82 77 72 69 65 63 61 59 55 53 51 50 49 46 45 44 45 45 38 44 45 45 46 49 53 58
114 117 112 114 117 120 120 119 117 114 113 110 107 101 94 87 82 76 71 68 65 60 58 56 55 53 50 49 48 47 45 43 40 40 45 37 39 41 42 42 45 50 54
116 111 116 119 124 122 119 118 115 112 110 106 101 92 86 80 76 72 67 65 61 57 54 51 49 48 48 47 46 45 43 42 39 38 40 38 36 35 36 39 41 44 50
111 117 119 123 120 118 116 115 111 107 103 98 92 86 80 75 71 67 64 62 58 54 52 49 46 45 45 44 43 42 42 40 38 37 39 36 35 32 31 35 39 43 45

GFSMA_250_spd_063.txt.gz
Wind_Speed
74 71 72 83 89 89 82 78 80 81 86 79 83 77 76 73 70 69 67 69 70 67 68 68 68 67 68 72 74 74 72 72 72 68 66 61 63 67 63 59 62 64 62
80 81 84 81 78 78 76 80 81 84 83 80 77 75 70 66 69 67 67 68 68 69 70 70 69 70 69 68 67 70 71 71 71 70 70 67 64 64 66 61 65 63 68
75 75 78 83 71 76 79 79 82 79 75 75 77 73 69 69 66 67 70 72 73 74 74 76 74 71 70 68 67 67 68 70 70 67 66 67 65 65 64 65 65 65 68
61 67 69 70 73 73 75 74 74 73 73 72 66 65 65 68 70 73 75 77 80 82 83 82 76 72 71 71 69 68 69 70 68 67 68 67 64 63 64 66 65 67 66
72 74 71 72 76 76 73 73 75 73 69 67 68 69 73 75 77 79 81 83 85 86 85 78 72 71 72 73 75 76 74 72 73 70 69 70 69 67 65 65 68 68 71
69 71 73 74 72 68 70 72 70 68 68 69 71 75 78 81 83 84 86 88 91 91 82 74 71 70 71 74 76 78 80 80 78 78 79 75 77 76 74 72 68 71 73
69 70 69 69 66 68 68 67 67 69 72 74 78 82 81 82 86 89 91 93 94 88 80 75 75 75 77 78 79 80 81 83 85 86 87 86 86 86 85 84 81 76 76
64 65 65 66 67 66 65 67 69 74 77 80 80 79 81 85 88 92 95 97 95 86 82 83 87 88 90 91 92 93 94 95 95 95 97 97 98 96 95 96 93 90 84
62 62 64 68 68 67 68 70 73 77 80 78 79 82 84 86 91 97 99 95 89 88 91 94 97 100 102 104 105 106 106 105 104 105 105 106 107 106 106 103 100 99 97
62 64 69 70 69 69 72 76 79 80 78 80 83 87 90 93 95 94 90 88 91 94 97 100 103 109 113 114 115 114 111 110 110 108 105 103 105 109 111 111 109 106 102
65 69 72 74 74 75 77 76 76 77 80 84 87 90 94 97 99 95 87 89 92 97 104 108 113 117 120 120 117 115 111 108 103 101 99 98 95 97 100 107 112 110 108
69 71 71 72 73 75 75 75 79 81 84 87 89 94 96 98 97 94 92 94 97 102 111 117 120 121 119 118 115 110 103 99 98 95 93 91 91 92 96 99 102 105 109
64 66 70 72 74 72 76 79 82 84 86 88 93 99 99 98 95 95 99 103 108 110 112 115 115 116 117 114 109 101 96 93 92 89 89 88 87 86 88 91 95 100 103
68 71 73 73 72 76 79 82 84 87 90 93 100 102 100 99 100 105 110 114 113 109 109 110 111 111 111 105 100 94 89 85 83 81 80 78 79 80 82 84 88 91 93
70 70 70 72 76 79 82 85 88 91 94 101 102 101 101 102 108 113 115 113 113 111 109 110 109 107 101 97 92 86 81 77 74 72 69 68 69 71 74 78 81 86 90
65 69 73 77 80 83 88 92 95 97 101 106 106 102 103 109 113 114 113 113 114 112 109 108 103 97 93 87 82 76 73 70 67 65 62 62 63 66 69 73 76 79 84
73 77 80 82 86 91 95 98 100 103 107 111 106 104 109 113 113 113 114 113 111 109 104 100 95 88 83 79 74 72 68 64 62 61 57 56 57 60 63 67 72 77 80
78 83 85 88 93 97 100 100 103 109 111 106 107 110 113 112 112 114 114 110 105 101 95 92 89 82 79 74 70 68 63 58 58 56 55 54 56 57 60 63 66 70 74
83 84 88 95 99 101 101 105 111 108 105 110 111 112 112 113 114 114 112 105 101 97 89 84 81 78 74 68 66 63 60 56 53 52 54 55 53 52 54 58 62 66 69
84 90 96 100 101 102 106 112 106 111 112 113 114 113 114 115 115 112 107 103 97 90 83 80 75 72 67 64 62 60 57 54 51 50 54 51 49 50 51 53 58 62 65
91 97 100 102 103 108 111 108 113 113 114 115 115 115 114 113 111 107 102 96 89 84 79 74 69 67 63 61 58 56 55 52 48 49 51 45 48 49 49 52 54 58 62
98 101 104 104 109 110 109 112 113 116 117 115 116 115 113 110 106 100 94 88 82 77 73 69 65 62 59 57 55 53 51 49 47 49 50 39 45 45 48 50 51 54 58
102 105 106 110 110 110 113 114 116 117 116 117 117 114 110 105 99 93 86 82 75 70 67 64 62 58 56 53 51 49 47 48 46 45 48 38 41 45 44 45 48 49 52
106 108 111 112 111 116 115 116 116 117 118 118 114 110 105 98 92 86 80 76 70 66 63 60 59 58 56 53 50 48 47 44 43 41 45 38 39 39 39 41 44 45 47
108 110 113 111 117 118 118 119 118 118 118 115 112 106 97 92 87 80 76 71 66 62 60 58 58 56 54 51 49 48 44 42 40 39 41 38 35 36 34 37 40 42 44
109 112 111 116 119 118 119 118 117 116 115 111 106 98 91 86 80 75 71 67 63 60 59 57 55 52 50 48 46 45 42 38 39 37 39 35 32 35 30 33 37 39 42

GFSMA_250_spd_066.txt.gz
Wind_Speed
63 61 70 72 76 78 81 75 80 81 80 77 78 77 78 77 74 72 68 64 62 62 63 64 67 69 71 71 74 74 75 71 63 62 63 62 63 63 62 62 61 68 66
64 65 69 75 77 77 81 76 75 78 82 79 80 83 76 73 70 67 68 67 68 69 72 73 74 76 77 79 79 80 80 74 66 60 61 63 63 62 62 60 62 61 64
66 70 69 68 71 69 70 78 83 80 80 82 79 73 71 70 70 71 72 72 73 76 78 79 80 81 83 84 84 84 78 72 66 61 59 60 62 63 62 62 59 63 65
72 74 76 77 76 78 85 83 79 79 79 77 75 72 71 71 71 74 76 78 81 82 82 82 82 83 84 86 85 82 75 69 65 63 61 59 60 63 64 64 62 60 65
69 68 71 71 74 75 74 75 76 76 75 73 73 73 72 73 75 76 78 78 78 80 81 83 85 88 89 88 83 74 69 68 68 68 68 68 65 63 65 67 67 63 62
68 71 72 70 71 74 73 74 73 71 72 74 74 75 76 79 82 83 80 79 82 84 85 87 90 91 89 85 78 71 69 71 73 75 77 78 79 76 72 69 71 73 68
70 69 68 69 72 69 70 70 70 72 74 77 78 78 80 82 81 80 81 86 89 89 90 92 93 92 88 83 79 77 78 80 83 85 85 85 86 86 87 83 77 77 79
66 68 67 66 67 66 67 70 71 74 78 79 79 80 80 79 81 83 87 90 92 93 98 100 98 95 90 86 84 85 87 89 92 95 97 97 96 95 96 96 94 88 84
60 63 61 62 63 66 71 73 78 79 77 77 77 77 77 80 83 87 91 93 94 100 104 105 102 99 96 94 95 96 98 100 103 105 107 107 105 104 103 101 101 101 96
58 58 58 63 67 71 74 74 72 74 78 77 76 80 83 85 86 85 90 92 97 102 105 105 103 101 102 104 106 109 112 114 114 112 110 108 102 97 94 95 97 100 103
56 59 62 66 71 71 72 75 76 76 75 77 80 84 87 89 92 94 92 98 102 105 107 107 106 107 109 112 117 117 115 111 108 106 104 103 101 99 95 91 92 95 100
60 63 66 69 70 73 74 74 73 73 77 80 83 85 89 92 95 97 99 104 106 107 104 108 112 115 118 118 117 113 110 106 103 101 98 97 95 94 92 92 91 94 98
64 68 71 71 73 73 72 70 73 77 81 83 88 92 95 98 100 103 106 106 104 104 107 113 120 120 119 117 114 108 105 101 98 94 91 89 87 87 88 87 87 88 94
69 70 71 72 72 67 71 76 79 82 84 90 94 96 100 103 105 107 105 108 112 115 114 115 116 116 115 113 108 102 98 94 90 86 84 81 80 80 81 81 81 83 86
68 71 71 72 71 76 78 81 81 85 90 95 99 101 103 106 105 108 114 118 119 117 112 112 111 109 105 101 97 94 90 87 83 78 74 71 70 70 71 74 76 77 79
69 70 71 74 78 82 83 83 88 91 96 102 103 105 107 105 111 116 117 118 116 115 112 110 107 101 96 93 89 87 82 77 73 69 65 63 62 64 64 68 71 73 75
68 71 77 81 83 85 85 90 93 98 103 107 108 108 107 112 116 116 116 114 115 114 110 107 102 96 90 84 80 78 75 72 68 63 58 58 57 57 60 63 67 69 71
72 76 79 82 85 87 91 95 98 104 108 109 111 109 114 116 116 116 116 116 113 109 103 100 95 88 82 76 73 71 68 64 62 59 57 57 55 53 54 57 61 64 68
76 79 81 83 86 91 95 98 104 108 109 112 110 115 116 116 117 117 116 113 109 104 98 91 86 82 77 72 69 66 64 61 57 55 56 55 53 52 52 55 58 61 64
79 82 83 87 92 97 99 102 107 111 112 113 115 118 116 117 117 117 113 109 105 97 91 85 82 77 73 69 65 62 61 56 53 50 54 50 49 51 50 52 54 57 62
81 85 89 94 98 101 101 106 112 113 114 115 119 118 117 117 117 114 110 104 96 91 86 81 76 72 69 65 61 58 57 54 49 47 50 43 48 48 46 49 51 54 58
85 90 94 99 103 103 105 113 113 114 115 119 118 118 118 118 115 110 105 96 91 85 79 76 72 68 64 60 58 56 54 52 49 46 47 37 47 44 45 46 48 53 56
91 95 99 102 105 106 112 115 116 115 118 119 118 117 117 116 111 105 98 91 86 79 74 71 68 62 61 58 58 55 52 49 46 46 47 37 44 41 43 44 49 53 53
96 100 103 105 106 112 115 118 117 118 120 120 119 118 116 112 106 100 93 86 81 74 69 66 63 61 59 58 56 53 49 45 42 42 47 39 41 39 41 42 46 51 49
99 103 104 107 111 115 118 118 121 121 120 120 120 117 113 106 100 94 87 81 77 69 66 63 61 60 58 55 53 51 47 44 41 38 43 36 37 37 37 39 45 48 46
102 102 107 112 114 117 116 120 121 119 117 116 116 114 108 99 96 90 82 77 73 66 63 61 59 58 56 53 50 48 47 43 39 35 39 33 36 37 33 35 40 41 43

GFSMA_250_spd_069.txt.gz
Wind_Speed
54 52 50 55 64 66 71 73 76 78 79 80 79 81 80 79 77 77 75 70 68 66 66 62 66 69 72 73 74 75 74 73 72 71 71 73 72 70 63 62 62 61 64
50 52 57 57 61 65 69 75 77 80 78 73 76 76 78 78 77 74 70 69 69 67 69 68 70 72 74 75 75 74 76 76 77 76 74 73 72 68 61 59 61 61 59
53 61 68 72 71 76 76 83 77 81 76 78 75 77 77 77 71 72 73 72 74 74 75 76 75 75 73 72 75 76 78 79 81 82 80 77 69 62 59 57 58 60 62
61 60 63 69 75 79 78 80 80 75 74 72 77 75 73 71 71 73 75 78 77 78 79 78 76 76 77 79 77 77 78 81 85 85 81 76 71 61 58 57 56 58 60
67 76 74 76 81 78 77 78 76 74 74 75 71 69 69 72 74 77 79 78 78 78 77 77 78 80 81 82 82 82 83 86 88 86 83 78 72 66 63 62 61 59 59
64 66 68 75 74 74 73 73 75 74 72 69 68 71 74 76 77 76 77 78 78 77 78 80 82 84 84 85 86 87 89 90 90 88 83 80 77 74 73 73 71 69 67
66 68 67 68 68 70 71 72 72 70 66 67 72 75 75 76 78 79 78 77 80 83 85 86 87 88 89 89 90 92 94 94 94 92 88 83 81 81 81 83 83 82 78
69 71 69 66 64 68 69 67 65 65 67 71 75 76 78 78 78 77 80 82 84 87 89 92 93 95 95 96 99 101 103 101 99 96 92 90 88 88 88 90 92 93 90
62 64 64 63 68 66 66 64 66 69 72 75 78 79 79 75 75 80 84 87 88 93 96 98 100 101 102 105 107 107 106 104 102 100 99 99 99 97 96 98 100 102 102
60 60 63 65 65 64 63 66 70 73 77 80 79 77 77 81 83 82 84 90 92 96 100 102 104 105 107 107 108 109 111 112 112 111 109 108 106 105 104 103 103 104 104
59 62 64 63 63 64 66 71 75 78 78 78 76 79 83 86 86 88 90 94 97 103 103 104 108 106 107 112 116 117 116 115 113 110 108 105 104 103 101 98 96 96 96
60 64 63 63 65 68 73 74 76 77 75 76 80 85 86 86 91 94 96 100 103 104 106 107 109 111 115 118 118 116 113 109 105 102 101 100 99 98 97 95 94 94 93
63 62 64 67 70 73 75 76 74 75 76 81 84 84 88 93 96 97 101 105 104 107 108 109 114 118 119 118 115 110 106 102 99 97 95 94 93 93 91 90 89 88 89
62 65 67 70 74 76 76 76 75 78 82 84 85 89 94 97 100 102 108 109 108 111 112 114 117 117 116 113 110 104 99 96 92 89 87 85 85 86 86 86 86 85 83
65 66 69 73 76 78 77 76 80 84 86 87 90 95 100 101 105 109 114 114 115 113 118 119 116 113 111 106 101 97 93 89 84 78 76 75 75 76 76 77 78 79 78
67 69 71 75 75 76 77 81 84 86 89 92 97 101 105 106 110 115 117 117 118 120 119 117 114 110 103 96 92 88 85 81 76 72 69 67 66 67 69 71 72 73 73
69 72 73 74 75 77 81 84 87 90 94 98 102 106 108 110 116 117 119 119 121 121 119 115 110 104 97 88 83 80 76 73 70 67 63 61 60 60 60 62 65 67 70
72 73 74 77 80 84 86 89 91 95 98 102 107 108 112 116 117 120 120 122 122 120 115 109 105 98 89 82 77 73 70 66 63 61 59 59 57 55 54 55 57 62 65
71 75 78 81 85 88 91 92 95 99 102 107 109 112 117 118 121 121 122 123 121 117 111 104 98 91 85 78 74 70 66 63 59 57 56 56 53 52 51 52 53 56 58
74 77 81 85 88 91 92 94 98 101 107 109 112 117 119 121 121 122 123 122 118 112 106 98 90 86 79 76 71 67 64 58 55 51 54 51 51 51 49 50 51 52 54
81 84 85 87 91 92 93 97 101 106 109 111 117 119 121 121 124 124 122 118 114 107 99 90 87 82 77 72 67 63 61 56 52 51 53 46 52 50 47 47 47 50 52
84 86 88 90 91 94 97 101 105 109 111 116 118 122 121 124 124 122 118 114 107 99 92 86 84 77 74 67 64 61 58 55 53 51 52 42 50 45 47 44 47 49 51
87 89 89 91 94 98 101 105 109 112 114 118 121 122 124 124 123 119 116 109 101 95 88 84 79 73 70 65 63 60 57 54 48 48 51 41 40 41 42 44 46 48 48
86 88 91 94 98 103 106 109 114 117 117 120 122 124 124 123 121 116 110 103 97 92 85 80 73 70 67 64 61 58 55 52 47 43 48 46 39 37 40 44 44 47 47
88 92 96 99 102 106 110 115 119 118 118 121 123 125 124 120 116 111 103 97 94 87 81 75 71 69 65 62 59 57 54 51 46 40 43 44 40 37 37 41 43 45 43
93 95 97 102 105 108 114 119 120 119 121 121 120 122 123 118 111 105 97 92 88 82 78 73 69 65 62 60 57 55 52 49 45 40 38 38 39 40 33 37 40 44 42

GFSMA_250_spd_075.txt.gz
Wind_Speed
48 48 46 50 57 55 57 60 56 59 64 70 69 70 75 79 77 72 78 79 78 76 76 75 73 70 66 65 68 70 71 70 71 72 69 66 63 62 62 63 63 63 61
47 49 50 45 47 46 54 60 67 65 65 68 75 77 74 78 79 81 78 78 76 77 76 75 67 65 66 71 73 73 73 73 72 72 72 72 70 69 69 67 66 66 66
55 56 55 57 58 54 59 62 60 69 74 79 78 80 80 80 78 77 74 73 77 76 74 71 68 68 71 72 73 73 71 74 78 79 78 78 77 76 74 74 74 74 75
57 59 61 62 58 63 67 66 73 80 77 75 73 74 73 78 78 79 78 80 78 73 67 71 71 72 75 75 75 75 78 81 83 84 83 82 81 80 81 82 82 83 82
55 58 61 62 70 72 66 73 71 73 71 72 75 77 80 81 77 80 83 80 75 75 74 70 75 76 77 78 78 82 85 85 83 82 86 89 89 89 89 89 89 87 85
59 64 67 68 72 74 79 72 66 69 73 80 81 79 79 80 80 80 79 75 75 76 77 79 80 78 79 83 85 87 85 86 89 90 90 90 92 93 95 96 94 90 89
66 64 67 71 77 71 69 68 69 74 80 80 80 79 79 79 81 80 78 78 79 79 79 83 83 85 86 84 86 88 90 95 95 96 98 95 95 96 98 99 96 96 94
70 68 71 74 62 62 64 68 73 77 76 79 76 79 77 77 75 75 78 83 84 87 87 84 85 87 89 91 90 90 94 100 102 102 100 102 102 101 100 99 98 97 97
70 64 61 60 61 65 70 74 75 74 74 78 79 77 78 81 81 81 81 80 84 87 87 88 89 89 92 94 96 97 100 104 105 105 106 106 104 104 103 103 103 102 100
58 57 60 62 68 69 73 74 75 76 76 76 73 78 83 83 83 84 88 88 85 83 84 88 94 95 95 98 100 101 107 107 106 106 107 106 105 106 108 108 108 106 104
64 64 64 67 69 68 68 72 76 75 72 75 78 82 82 81 85 87 87 90 91 92 92 92 92 96 98 102 104 105 110 111 109 107 106 106 108 109 108 109 110 107 104
68 69 69 68 66 71 74 75 73 72 75 80 85 84 83 85 87 87 87 88 90 92 95 98 99 99 103 107 109 111 114 113 107 108 108 107 106 105 105 104 103 100 97
62 64 67 70 72 76 74 70 71 74 80 85 83 86 87 89 90 92 92 93 92 95 99 103 107 107 109 111 113 116 114 112 113 113 110 105 101 100 98 95 93 91 88
64 68 71 72 72 71 71 73 76 81 83 82 85 87 89 92 92 94 94 96 95 99 104 109 112 116 114 113 114 115 114 112 111 108 106 104 99 92 87 84 83 81 80
69 68 69 69 67 69 76 79 80 78 81 85 87 88 90 94 94 97 99 100 102 103 107 113 117 122 121 121 115 115 114 112 107 102 99 95 90 86 82 78 76 75 73
66 68 68 69 70 73 75 76 78 81 86 88 87 89 92 96 99 102 103 105 109 112 111 118 122 122 124 124 121 118 112 108 104 101 93 90 84 81 76 72 70 68 67
66 70 72 70 70 73 74 75 82 85 88 91 94 95 98 102 104 106 107 110 115 118 119 120 124 124 122 124 120 118 113 108 102 95 88 85 80 75 69 66 63 61 62
69 74 74 70 70 72 77 79 84 87 90 93 96 99 102 104 105 108 113 117 119 121 127 125 121 124 124 122 119 113 109 105 97 90 83 78 74 69 63 60 56 56 56
68 71 70 75 75 79 83 85 88 90 93 96 100 103 105 107 110 114 118 119 122 127 129 127 124 123 121 123 118 110 103 98 93 85 78 73 69 66 61 58 55 53 52
65 69 71 77 81 83 86 91 93 94 96 99 102 105 108 112 115 119 120 123 129 128 126 127 124 123 123 120 114 107 100 93 85 80 73 70 66 64 59 56 53 50 49
68 71 75 79 83 88 89 91 93 96 99 101 105 109 112 114 117 119 124 129 130 128 128 128 128 124 123 116 110 103 94 86 81 73 69 66 62 62 57 54 52 49 46
72 76 80 83 85 87 90 93 96 98 102 105 109 113 114 117 120 124 125 123 123 125 127 130 127 128 120 114 105 97 88 81 75 70 64 63 58 58 54 52 52 49 46
74 78 81 84 87 90 93 96 99 102 105 110 113 114 117 122 126 125 123 122 120 122 124 125 126 122 116 110 100 91 84 77 71 67 62 62 57 55 51 50 51 49 45
80 83 86 88 91 94 97 101 104 106 108 111 114 119 121 118 119 122 119 121 124 128 127 122 119 116 111 103 93 86 80 74 69 63 58 58 53 51 48 46 49 48 43
83 86 89 92 95 99 100 103 106 110 113 114 115 112 114 116 117 118 121 124 124 128 127 118 116 111 104 95 87 81 74 70 64 60 55 54 49 47 46 43 45 46 40
83 87 91 94 99 104 107 108 110 111 107 105 109 111 111 112 115 120 122 125 125 125 119 115 110 104 97 88 81 77 70 65 59 58 52 51 45 44 44 41 42 44 38

GFSMA_250_spd_078.txt.gz
Wind_Speed
46 41 48 48 49 52 48 46 54 55 62 53 57 67 67 67 66 79 81 79 74 75 73 80 76 73 78 78 74 69 68 68 67 67 65 63 63 62 63 65 63 62 62
50 56 53 48 54 50 53 56 57 54 56 56 57 59 65 71 82 77 74 75 75 78 83 79 79 81 78 75 72 70 69 68 69 68 67 67 68 70 71 68 64 62 62
56 53 58 56 56 54 52 54 57 59 57 59 63 72 73 80 76 74 71 79 84 83 83 83 83 82 76 72 71 71 72 72 71 72 72 73 74 73 71 70 71 72 71
55 58 57 57 61 65 63 65 66 68 73 76 79 83 77 80 78 75 81 81 82 79 78 82 79 75 74 73 72 73 74 73 74 75 78 80 81 77 76 77 79 79 79
55 56 57 59 60 60 62 60 64 67 72 78 79 75 73 74 77 80 84 85 81 84 81 78 78 75 76 77 77 77 77 79 80 80 81 82 83 83 85 86 87 88 87
52 50 53 55 52 56 62 67 71 76 78 78 77 73 73 76 78 82 83 83 84 83 81 82 79 78 79 80 80 82 83 84 84 85 85 85 84 86 88 90 93 93 93
52 54 59 59 64 67 68 75 77 80 81 75 73 73 76 81 82 82 84 83 83 81 83 82 83 85 83 82 83 84 90 91 90 89 88 89 91 92 93 94 96 98 97
57 59 58 62 67 71 77 79 78 75 71 74 75 79 80 78 80 85 83 79 81 85 86 86 85 87 87 87 87 86 89 91 91 91 92 95 98 99 99 100 102 102 99
61 64 65 67 68 68 71 69 66 70 72 74 77 79 78 82 84 81 78 79 83 85 85 88 91 89 88 89 92 90 91 91 93 95 97 102 104 103 103 106 105 102 99
63 66 71 70 67 63 66 67 72 74 78 77 76 79 83 85 81 78 84 86 89 86 87 88 90 92 95 94 93 90 93 97 98 100 104 108 106 106 105 102 102 102 103
64 62 63 61 63 66 69 74 76 77 78 77 80 82 78 78 81 83 87 92 90 93 94 95 94 95 94 94 92 92 97 102 105 107 112 113 108 104 104 105 105 104 104
65 63 66 68 67 69 74 76 76 78 80 80 80 79 80 84 88 91 91 89 91 94 96 98 101 99 98 97 98 99 102 107 111 117 116 113 108 108 106 104 103 103 102
61 64 67 71 72 71 75 77 78 81 79 79 78 83 86 91 93 90 88 91 94 96 98 101 103 105 107 107 106 106 108 110 118 118 115 114 115 111 104 98 96 96 95
66 70 71 68 69 74 78 76 77 78 79 80 82 82 87 89 89 92 95 96 95 97 100 103 107 110 113 114 114 115 114 116 113 112 112 115 114 109 101 94 91 86 83
64 66 69 71 73 76 79 78 78 78 80 81 82 86 88 89 92 95 98 99 100 100 101 106 109 115 117 121 124 123 124 118 115 112 114 113 109 101 93 89 85 79 76
68 70 71 74 77 77 78 76 79 80 81 83 82 82 86 91 94 98 101 103 105 105 104 110 114 118 121 123 128 130 122 119 116 115 112 105 99 95 89 82 77 72 68
68 70 70 71 72 78 78 79 79 80 77 78 82 87 91 95 101 103 104 107 109 111 112 113 119 121 125 129 127 124 122 120 120 116 107 98 93 88 84 78 71 68 64
65 68 70 73 76 78 76 77 77 80 82 87 91 94 98 100 102 104 107 110 113 117 120 120 121 125 127 122 123 120 119 119 118 112 104 94 86 80 78 75 68 65 61
65 67 68 69 69 71 73 75 80 83 87 91 97 100 101 103 106 109 112 115 118 121 124 127 127 123 121 123 120 122 121 116 111 106 99 93 86 81 75 72 66 62 57
60 60 60 63 68 71 74 77 80 86 92 95 98 101 104 107 110 113 116 119 122 125 128 126 122 122 121 121 124 126 120 116 107 102 93 88 81 76 73 68 64 61 56
52 58 62 66 70 73 77 83 87 90 94 97 101 103 107 110 113 116 118 120 123 124 120 122 119 120 122 126 127 125 118 107 105 99 84 84 76 72 70 66 62 59 54
62 64 68 70 73 77 80 86 90 93 96 99 103 107 112 115 115 117 117 117 116 116 115 117 116 119 121 125 123 118 111 106 99 94 80 79 71 68 65 61 58 55 52
69 72 75 78 80 83 86 90 94 97 99 102 103 106 109 112 112 110 108 108 111 114 117 119 121 122 122 121 117 111 107 101 97 88 76 75 68 64 60 58 55 53 50
69 72 75 77 79 82 86 91 96 98 99 102 106 107 106 104 105 107 106 107 109 113 116 119 123 122 118 116 113 108 102 96 89 84 73 70 65 60 58 54 52 50 48
68 73 78 83 86 88 91 96 100 103 105 102 103 98 97 101 104 107 107 109 111 114 117 121 119 118 114 113 109 103 98 90 83 80 71 65 62 57 55 50 48 46 45
72 76 80 82 84 86 88 87 88 88 88 89 91 95 99 101 104 107 110 111 112 115 115 113 113 113 110 105 102 98 90 84 77 73 66 62 57 51 52 47 46 43 42

GFSMA_250_spd_081.txt.gz
Wind_Speed
41 40 43 44 46 42 39 46 49 51 49 46 48 53 57 56 61 64 63 66 75 84 79 76 77 77 78 79 79 77 79 76 72 68 65 63 63 62 60 57 56 56 56
46 45 43 46 48 47 44 51 53 52 52 54 54 57 59 59 62 66 76 81 85 80 79 75 77 78 79 79 81 80 78 73 70 68 66 64 64 63 62 62 62 62 62
44 45 47 49 50 51 55 56 54 56 59 54 57 60 66 74 74 80 81 83 78 79 72 74 76 78 81 79 79 75 77 74 70 70 70 69 67 67 67 68 68 68 68
51 49 50 50 53 55 57 56 58 60 61 68 68 67 67 72 74 78 84 77 76 75 77 81 80 80 81 79 77 79 77 75 74 73 72 72 73 74 75 75 73 72 70
52 52 50 50 52 55 55 59 60 61 60 64 63 67 71 76 79 82 81 72 74 78 81 80 80 82 81 78 80 81 79 80 80 78 77 77 78 80 80 78 76 76 76
56 55 59 55 57 55 57 57 58 60 57 61 70 75 79 81 82 81 78 77 79 80 81 82 83 80 78 80 83 85 85 86 85 82 82 82 83 84 82 81 81 82 84
64 66 66 60 59 60 61 64 65 66 66 69 74 75 73 76 72 73 76 79 80 81 83 83 78 78 80 83 86 86 91 90 89 88 89 89 89 88 85 85 86 88 90
64 60 58 54 56 60 60 62 64 69 73 74 68 68 68 70 76 79 81 82 81 84 83 79 79 79 84 90 87 88 92 93 93 94 94 93 91 89 89 91 93 95 96
69 68 62 57 60 64 67 70 71 72 72 72 72 72 75 78 79 82 83 84 83 82 81 81 85 89 91 88 88 92 95 97 98 98 95 96 95 96 97 98 100 100 101
58 59 63 65 67 70 69 68 71 69 71 72 76 79 80 84 84 84 86 85 84 82 84 85 86 88 88 90 93 96 96 98 100 100 102 102 102 103 103 103 101 98 99
58 60 61 63 64 64 68 72 70 75 76 78 80 81 82 85 87 88 88 90 87 88 90 90 91 90 92 93 95 95 97 98 100 105 108 111 111 110 106 100 99 98 98
58 59 62 66 67 69 70 75 79 79 79 84 83 82 84 86 85 88 85 85 87 92 93 95 92 95 97 99 98 99 100 102 105 109 114 116 115 109 105 102 99 97 100
66 67 68 71 71 70 72 74 78 79 81 81 83 84 87 89 86 85 85 86 88 90 91 95 97 100 103 104 105 106 108 111 114 115 115 113 110 111 109 107 103 98 101
66 64 65 67 70 73 74 75 76 79 82 84 86 87 87 88 87 86 85 84 84 88 92 98 104 108 110 112 114 115 117 118 118 116 110 109 108 108 110 112 106 99 93
67 69 68 71 73 72 73 77 80 82 84 84 83 85 88 88 87 87 87 88 90 90 96 106 109 113 116 119 122 122 122 121 116 112 111 110 111 113 113 108 99 94 87
66 70 72 70 73 73 72 74 79 79 81 85 86 85 86 88 86 89 92 95 98 101 103 107 112 116 119 121 120 121 119 116 112 112 112 113 115 114 106 96 90 87 80
66 69 70 69 68 68 70 71 79 82 84 85 83 86 86 89 92 94 96 101 106 109 109 112 115 118 118 118 118 116 112 114 114 114 115 116 114 110 102 93 86 79 74
65 68 67 65 67 68 74 74 75 77 79 79 82 85 88 92 93 97 102 107 109 113 114 114 116 116 118 115 111 112 112 113 117 119 118 116 110 102 99 89 85 76 70
68 66 63 68 69 67 66 66 69 73 77 81 84 87 90 94 98 103 107 111 114 116 116 113 115 114 111 111 112 112 113 116 119 120 119 114 108 102 97 89 83 73 67
69 63 68 69 65 66 68 72 75 77 80 85 89 92 96 100 104 107 110 112 114 114 116 118 113 105 109 112 115 117 117 119 119 119 115 110 107 100 92 82 76 71 65
71 72 69 68 70 69 71 75 78 82 86 89 92 96 99 101 104 106 108 111 111 108 105 104 104 105 109 111 115 117 118 116 113 115 110 106 101 95 85 75 70 67 64
68 65 63 64 67 70 73 75 78 80 84 88 92 96 98 100 102 102 100 97 98 100 103 105 105 109 110 113 115 115 113 111 110 110 105 100 95 86 78 73 67 64 59
49 53 55 57 61 67 72 76 81 83 85 86 90 90 90 92 93 93 94 96 100 105 107 107 108 110 112 114 112 110 110 111 109 106 98 93 88 80 74 70 64 60 56
52 54 57 63 68 70 69 74 78 80 82 83 84 85 89 90 92 92 92 94 99 104 106 108 112 112 111 110 110 110 109 108 104 101 93 86 82 76 71 65 60 57 51
56 59 62 66 69 70 71 77 80 79 80 82 83 85 86 86 89 91 94 96 98 102 105 109 111 110 109 108 109 109 108 104 98 95 88 76 77 70 68 61 56 53 49
64 67 69 71 71 70 76 80 82 82 83 86 89 89 89 90 92 96 98 100 100 104 106 107 109 110 110 109 108 105 102 99 94 87 82 73 71 66 64 56 52 49 46

GFSMA_250_spd_084.txt.gz
Wind_Speed
31 33 37 37 32 35 40 39 40 42 43 44 48 52 54 56 56 61 63 64 63 66 71 79 80 78 80 73 73 73 75 79 77 79 75 73 71 66 60 58 57 56 56
35 38 41 38 38 39 41 43 45 46 49 51 52 56 58 58 59 60 62 70 73 75 73 76 79 78 76 76 76 80 79 79 81 80 77 73 72 66 62 62 60 58 57
38 39 43 43 45 43 44 46 49 52 53 56 56 55 58 62 61 63 68 72 72 74 78 81 81 79 80 80 78 80 83 81 83 76 76 75 72 68 68 67 65 64 64
43 43 44 48 45 49 50 50 51 52 55 56 58 61 60 65 71 67 69 74 74 81 80 78 77 78 80 83 83 82 80 84 78 78 77 78 76 76 76 73 71 70 70
52 52 54 53 52 54 57 55 57 57 58 61 63 64 69 68 66 69 73 78 80 74 76 79 79 82 83 84 84 84 85 80 80 80 82 83 81 81 82 81 79 78 79
61 60 62 63 62 62 62 63 63 64 65 68 69 64 66 69 72 74 78 77 78 80 80 80 82 83 85 84 85 88 83 83 83 85 85 85 84 86 87 87 86 85 84
65 67 68 66 68 69 69 68 71 73 74 71 71 68 69 75 75 74 77 79 77 80 83 83 86 88 86 86 87 86 86 87 87 88 89 88 89 91 93 91 91 89 88
67 66 65 69 70 72 74 73 74 74 70 69 68 69 73 79 77 75 77 80 80 84 86 85 86 85 86 85 83 86 90 91 92 92 92 94 95 97 96 95 95 96 97
68 68 73 70 72 73 71 69 68 70 68 68 71 73 73 74 78 79 82 84 86 87 88 88 87 86 85 86 87 89 90 92 95 96 98 99 100 99 99 101 103 104 103
68 66 60 61 61 63 63 63 66 68 72 72 74 76 77 78 79 82 84 84 87 87 88 89 88 87 87 87 88 90 91 93 97 100 102 102 104 106 107 108 107 103 97
52 53 58 60 64 65 64 69 72 70 71 69 70 76 80 86 82 85 87 86 88 90 89 86 86 88 89 90 91 92 94 98 100 101 105 108 112 112 111 108 103 99 96
56 58 62 63 64 67 68 71 72 74 74 76 79 80 82 84 85 84 88 90 89 88 89 90 91 92 91 90 93 97 98 98 103 106 108 112 111 112 112 107 104 103 101
61 66 71 74 77 75 78 78 76 75 75 77 80 83 85 89 87 84 83 82 86 87 90 91 93 94 96 98 98 99 103 107 110 112 113 111 115 112 108 106 107 104 105
56 62 65 69 73 73 72 75 76 76 76 78 80 83 83 86 89 85 87 87 88 89 91 95 99 101 102 105 108 111 114 116 116 113 114 117 114 110 109 109 109 110 110
61 62 67 73 74 74 74 74 74 75 77 78 79 79 82 85 88 87 89 91 92 89 93 98 101 107 108 111 114 116 116 116 118 119 117 112 111 112 111 114 115 113 111
58 62 65 69 72 72 70 71 71 71 73 72 77 79 81 82 83 87 90 89 91 93 95 101 106 109 112 113 114 116 119 119 114 107 108 110 113 112 114 114 112 109 103
52 55 61 68 73 74 70 68 70 71 72 77 80 82 83 83 84 87 89 93 97 100 103 105 107 109 110 114 116 113 110 106 107 109 112 113 114 115 115 114 112 105 96
45 52 66 69 71 70 69 73 72 75 79 80 82 81 83 84 87 90 95 98 101 102 102 103 108 110 110 109 108 108 110 109 110 113 114 113 112 111 112 111 108 101 95
54 69 67 71 74 73 74 79 83 83 86 85 83 83 86 88 90 92 93 95 99 101 103 102 101 101 104 107 109 109 108 108 111 111 110 110 110 110 110 109 104 100 90
62 71 78 80 81 80 83 87 91 88 86 80 76 75 77 81 85 87 89 91 93 96 98 97 97 99 101 105 104 105 105 108 107 110 110 109 111 111 110 108 101 91 85
64 66 73 77 78 80 82 84 72 69 69 72 75 78 80 81 84 86 88 89 91 92 92 92 93 93 95 99 102 103 103 103 104 108 108 107 109 108 106 98 92 85 79
73 75 76 73 73 72 71 71 69 68 69 73 75 78 77 83 84 87 87 87 87 87 90 90 91 94 95 100 100 101 104 104 103 106 106 105 107 103 97 93 86 79 73
53 57 60 62 63 64 66 68 71 71 73 73 74 75 80 83 83 83 84 87 88 90 91 92 93 96 99 101 101 103 104 105 105 107 106 101 102 96 93 88 79 74 69
56 57 58 59 61 63 66 70 73 76 78 79 79 79 83 85 84 89 92 95 96 98 99 98 100 102 103 104 105 105 106 105 105 106 104 98 95 91 88 83 74 68 65
60 61 62 62 65 66 69 73 77 79 80 80 81 84 87 88 91 96 99 99 100 102 102 102 105 105 106 108 108 107 108 106 101 100 101 94 90 86 84 79 70 61 60
65 66 67 69 69 74 76 77 77 80 80 83 89 92 92 94 98 104 104 102 100 101 104 106 108 108 109 110 112 111 108 103 99 95 98 92 85 80 77 75 67 56 57

GFSMA_250_spd_087.txt.gz
Wind_Speed
29 26 30 40 38 33 32 29 33 41 38 38 39 40 43 48 51 53 57 58 59 59 60 64 70 72 72 74 74 81 80 79 77 78 81 82 80 81 79 78 71 70 65
32 27 37 38 37 36 35 34 39 40 42 41 44 45 49 52 55 56 57 58 60 63 65 70 72 71 74 77 84 80 81 81 81 83 82 82 82 79 78 75 75 71 70
43 45 36 39 35 36 41 42 41 46 48 47 51 49 55 56 57 55 62 63 66 70 68 69 71 77 82 85 83 84 84 85 83 83 84 82 81 78 75 76 75 75 71
45 42 39 43 41 44 44 48 49 50 51 53 58 58 58 59 60 64 68 70 72 70 70 76 79 81 82 84 83 83 83 83 85 84 84 82 80 80 79 78 78 76 75
43 42 46 47 48 52 55 60 60 60 61 62 60 62 64 67 68 70 72 77 73 76 74 77 81 85 82 80 82 84 86 87 88 85 84 84 82 82 82 81 80 79 78
50 51 55 57 61 59 62 63 64 62 64 67 68 70 71 70 74 78 78 76 73 75 79 80 83 81 85 85 86 87 86 88 86 86 85 86 87 86 86 85 83 83 85
67 69 66 63 60 62 61 63 66 67 67 68 63 66 67 72 72 76 73 73 79 79 77 80 83 86 87 88 85 89 88 89 89 88 88 89 89 88 88 87 88 90 91
71 67 69 71 66 62 60 64 61 57 61 65 70 71 75 74 73 71 72 75 77 80 83 84 86 88 86 87 86 89 90 88 90 91 92 92 92 91 92 94 95 95 95
66 66 64 63 66 67 58 60 62 64 69 68 67 67 69 69 71 74 76 78 78 82 86 86 85 87 86 85 86 87 89 92 92 92 92 93 95 96 97 98 99 101 100
70 70 71 62 68 64 57 61 64 60 60 62 64 66 70 73 77 78 81 81 82 84 83 89 87 85 87 87 89 90 89 89 91 95 98 99 101 103 104 105 104 105 104
71 74 66 63 60 64 62 63 61 62 66 66 69 75 78 82 80 81 82 88 87 85 84 87 85 88 88 87 89 89 90 93 96 98 100 104 107 109 109 109 109 108 101
65 62 60 56 59 63 61 65 66 70 71 73 75 74 73 76 80 82 84 87 84 85 87 91 90 90 90 90 92 93 95 98 101 104 108 108 108 108 111 112 109 107 105
56 56 54 58 61 62 65 67 70 71 72 73 74 75 76 76 76 78 79 81 83 87 88 90 90 91 92 92 95 98 102 107 109 110 109 108 110 110 108 108 109 109 107
54 57 61 60 61 65 70 73 71 71 71 69 68 70 70 71 72 79 81 83 84 88 89 92 93 95 96 98 101 106 107 106 108 109 109 109 107 109 109 110 109 109 108
52 55 58 63 68 75 78 74 72 69 68 66 65 68 70 74 81 83 87 90 93 94 90 90 93 98 100 103 104 104 105 104 106 107 108 107 107 109 109 110 111 113 113
54 56 60 61 61 65 68 70 66 64 67 71 71 75 80 84 89 90 95 93 92 87 85 89 91 95 97 100 101 104 106 107 108 107 107 107 107 106 107 111 113 113 112
48 49 49 52 58 64 48 76 71 76 81 81 84 89 90 90 93 95 91 84 79 81 83 86 88 93 98 100 102 103 104 102 101 100 101 103 105 106 108 111 110 112 113
35 32 41 39 38 48 70 75 81 82 84 90 90 89 90 89 86 81 75 76 80 83 82 85 90 94 93 92 94 94 96 97 95 97 98 100 103 104 103 104 105 107 109
16 34 47 37 56 69 73 77 81 86 90 88 88 88 81 81 76 76 79 81 82 83 84 85 89 88 88 93 95 95 95 94 94 95 98 103 103 103 102 104 105 106 107
30 41 46 50 61 71 76 82 85 90 93 93 86 85 80 78 79 82 82 81 83 84 85 85 84 87 92 92 93 94 92 94 95 100 101 101 101 101 103 104 105 106 104
38 47 52 61 72 80 81 83 88 91 91 86 83 78 79 82 84 84 85 86 88 87 87 87 88 91 94 95 97 98 98 98 97 101 99 100 102 103 106 105 104 102 98
40 51 63 70 75 79 82 80 78 77 76 76 78 79 77 78 82 84 85 87 86 87 88 91 93 94 96 98 101 103 100 99 95 99 99 98 105 104 105 103 101 98 92
42 45 48 51 53 56 61 65 68 70 73 72 75 77 80 81 82 83 85 83 87 88 92 93 94 98 102 106 105 103 102 100 98 100 101 97 104 103 102 99 96 92 87
54 55 54 55 58 61 64 66 69 71 74 75 78 80 82 83 82 83 85 87 88 91 93 95 98 103 107 108 108 105 103 101 99 102 104 99 100 99 99 94 91 86 81
58 61 62 64 64 63 69 72 76 77 77 79 81 83 84 85 86 85 87 90 94 98 101 103 107 110 112 112 112 108 106 103 101 101 106 99 99 97 95 91 86 82 75
64 65 64 66 71 72 73 77 81 81 83 84 84 86 88 89 89 90 90 93 97 102 105 109 113 115 116 114 113 110 108 105 103 97 103 98 97 95 89 86 82 78 69

GFSMA_250_spd_090.txt.gz
Wind_Speed
37 37 27 27 15 23 23 21 26 27 31 31 37 37 39 40 44 45 47 48 52 56 55 54 54 55 62 65 71 66 66 73 78 78 82 82 78 79 81 80 79 77 82
37 34 32 25 23 27 22 24 25 28 30 37 40 50 50 44 48 53 54 53 57 52 53 54 59 66 71 71 67 71 77 76 79 83 81 78 82 79 81 82 83 85 81
40 40 38 33 33 27 29 32 36 35 43 51 51 54 49 49 54 58 56 57 56 55 60 65 65 72 71 72 73 73 76 81 81 79 83 83 82 83 83 83 84 83 79
48 48 44 36 36 37 38 39 43 51 54 54 50 52 56 57 57 60 61 63 62 65 67 66 69 70 70 72 73 78 79 79 81 82 81 81 82 84 86 85 84 82 81
45 44 45 44 43 40 43 49 57 59 58 53 53 57 57 61 61 62 62 60 64 63 64 66 67 69 73 75 77 77 79 83 82 82 82 83 87 85 83 84 82 82 79
49 46 47 44 47 53 58 61 62 59 58 56 58 59 59 61 58 58 60 62 65 64 65 68 69 72 75 77 80 80 82 82 84 83 87 84 85 83 85 84 83 81 81
49 49 49 51 58 63 68 69 66 61 60 61 57 60 57 55 59 62 66 68 66 66 66 68 72 76 79 81 80 81 83 85 88 87 88 86 87 84 83 82 83 85 87
55 55 55 58 62 66 63 63 62 62 56 59 53 54 58 61 63 65 66 65 65 69 74 76 76 76 79 81 85 86 85 86 87 87 84 83 85 85 87 90 93 95 96
67 67 69 75 69 68 72 59 62 58 59 54 58 57 58 62 60 63 67 69 75 73 70 73 75 77 80 84 84 83 85 84 87 87 87 89 90 93 95 97 99 100 99
74 74 72 72 71 62 59 60 61 59 60 57 61 59 62 63 68 71 73 73 73 70 72 73 76 78 79 82 84 86 90 91 90 88 90 93 96 99 102 104 103 101 99
68 65 65 65 61 57 55 58 60 59 59 61 63 63 61 65 67 66 68 65 66 71 75 71 76 79 84 87 90 90 91 86 87 90 93 96 100 103 102 102 102 101 101
71 65 67 63 61 62 61 60 63 66 65 64 59 61 65 63 63 62 64 64 66 70 75 82 86 88 93 92 87 84 83 86 88 90 93 96 99 102 103 102 102 103 102
60 58 57 57 55 58 58 60 61 62 62 64 65 63 63 62 61 63 67 71 78 78 80 85 89 92 89 86 81 82 86 87 89 91 95 98 100 99 98 100 102 102 103
63 66 66 67 64 62 57 57 58 60 65 65 62 61 57 61 64 71 77 82 86 87 87 91 90 90 82 80 81 83 86 87 89 94 97 98 98 101 101 99 100 101 101
60 57 59 61 56 54 52 53 54 57 66 67 61 55 73 74 76 81 85 85 86 87 87 86 87 81 82 83 86 86 87 88 91 96 98 97 98 96 94 94 95 96 97
58 55 51 51 49 47 46 51 59 58 57 60 58 71 83 87 87 86 87 89 94 91 87 84 79 83 85 86 87 88 90 91 94 98 98 98 98 95 98 98 97 97 98
43 43 45 44 41 37 47 45 49 53 53 65 67 77 88 88 84 89 91 92 87 85 84 80 81 84 86 87 89 91 94 97 97 96 97 97 98 97 98 99 101 101 101
44 45 43 40 39 42 43 41 47 47 50 65 75 83 85 87 92 90 90 88 84 82 82 83 85 86 87 89 92 95 98 98 97 96 97 98 99 100 101 103 102 102 102
36 33 36 36 34 35 42 41 44 52 61 65 75 82 88 88 86 86 88 83 83 83 83 84 86 87 89 92 95 95 96 95 95 96 97 100 102 105 106 106 106 104 104
28 26 27 31 44 46 47 50 55 59 67 74 82 82 80 75 74 77 81 84 86 86 85 85 86 90 90 95 94 93 92 95 96 95 100 104 107 108 109 108 106 106 106
22 27 32 41 43 48 56 59 59 56 59 64 67 63 70 72 75 75 74 77 81 84 85 87 88 90 93 95 97 94 93 93 93 98 105 110 113 112 112 110 108 107 107
34 33 37 41 45 49 51 54 57 60 63 65 67 70 73 77 79 82 84 85 85 86 87 88 92 95 96 96 96 95 95 94 96 103 107 111 116 113 114 109 108 106 104
43 44 47 49 52 54 56 60 61 66 70 71 72 75 77 78 81 84 88 90 91 90 91 93 95 97 95 96 96 96 97 100 103 108 110 110 115 113 112 111 107 103 99
48 50 52 54 56 59 61 62 65 69 72 77 75 79 82 84 85 90 93 94 95 93 94 96 95 94 96 97 97 99 104 106 110 114 116 110 115 112 109 110 105 98 96
53 54 57 59 62 65 67 69 74 73 74 78 80 84 87 90 92 95 98 98 97 95 96 96 96 97 98 99 103 106 110 112 116 117 120 113 115 110 107 104 100 96 92
55 58 61 63 65 68 70 74 77 74 77 80 83 88 91 93 97 100 103 103 101 100 101 99 99 100 102 106 110 113 115 117 119 114 119 115 112 110 103 101 98 92 87

GFSMA_250_spd_093.txt.gz
Wind_Speed
25 28 28 28 29 24 21 19 26 23 28 31 22 32 40 48 44 48 42 38 41 45 47 47 46 46 45 48 51 57 61 65 64 66 70 70 73 75 78 76 78 79 78
29 32 36 36 33 26 26 34 21 22 25 22 34 43 46 45 48 50 43 45 46 48 49 47 49 48 49 53 61 63 63 65 67 68 71 75 76 74 75 81 80 81 83
35 33 37 36 33 30 32 26 23 27 27 35 44 48 53 54 51 46 46 48 50 50 48 51 51 51 58 62 63 66 66 67 70 72 73 74 77 80 80 83 84 83 82
44 43 42 42 37 37 34 35 33 34 41 48 57 55 58 56 51 49 49 51 50 49 52 54 54 56 60 65 64 66 68 68 69 72 75 78 79 79 83 81 81 81 82
50 44 43 40 36 38 39 41 48 48 52 52 55 57 58 56 52 51 49 49 46 50 53 56 59 62 66 64 67 67 70 73 72 75 76 76 77 75 74 77 77 78 78
52 52 50 47 47 45 49 47 48 53 53 56 63 67 58 54 55 49 47 47 50 55 57 61 64 66 63 65 68 73 72 73 75 73 73 72 71 72 78 80 79 77 79
51 53 56 49 46 40 53 54 58 62 64 70 63 63 56 49 47 47 51 53 55 58 62 64 64 67 71 73 73 72 72 66 66 72 75 77 79 78 80 79 77 75 77
53 48 51 55 51 54 51 55 60 67 71 68 64 52 49 51 51 53 55 57 57 60 61 66 70 67 70 70 70 67 66 71 73 76 76 78 76 73 71 73 78 80 82
55 55 53 57 61 61 64 68 71 69 66 61 58 51 51 55 55 56 56 56 59 62 63 64 63 60 59 64 66 67 70 78 80 80 74 73 71 72 77 81 83 85 88
52 55 60 66 68 69 70 69 66 61 56 58 55 54 56 57 55 56 55 59 64 62 58 53 57 63 64 69 74 78 80 84 81 79 76 73 74 77 79 85 86 89 91
68 69 71 69 72 74 68 66 54 58 58 56 53 52 53 56 57 59 61 61 59 57 59 63 67 70 74 81 84 81 82 80 78 77 77 78 80 83 84 85 88 90 93
67 69 71 75 73 65 56 58 59 56 56 52 51 55 58 57 57 61 62 60 55 62 72 70 72 77 82 84 82 79 79 78 76 77 78 80 81 84 86 90 90 92 93
77 80 79 64 59 55 55 59 59 55 50 50 54 58 57 57 57 57 59 56 65 70 73 72 77 83 82 82 81 81 77 77 78 78 82 83 85 87 90 91 93 95 95
67 66 67 60 57 54 52 55 52 52 51 48 52 52 48 46 45 51 52 66 74 74 74 76 84 82 83 83 83 82 80 81 82 84 83 86 89 90 90 92 96 95 94
56 52 51 52 51 52 55 49 47 48 44 52 55 60 61 59 59 59 64 74 72 73 75 81 78 80 83 85 85 85 84 85 86 86 87 89 89 92 93 94 95 95 96
47 49 50 53 52 48 44 43 43 42 43 44 47 54 55 58 65 71 71 72 78 77 75 76 79 80 82 85 87 87 88 89 88 89 90 91 94 96 97 99 101 99 99
48 51 53 51 48 44 45 43 43 45 45 50 48 50 47 62 62 68 72 74 78 74 73 75 76 77 79 82 86 87 88 89 90 92 95 96 98 100 100 99 99 99 96
42 43 44 45 45 43 43 40 43 45 47 50 48 47 51 61 63 66 75 73 71 72 74 77 80 80 82 85 87 87 89 91 93 96 98 101 102 101 101 100 99 97 97
37 33 27 27 28 27 33 38 41 43 48 51 51 59 55 60 65 65 69 74 75 78 79 80 83 84 85 87 87 88 92 95 96 97 101 102 101 102 102 101 99 98 101
19 20 20 24 28 35 38 39 42 45 43 45 47 52 57 61 69 73 77 78 81 83 83 87 89 89 91 94 94 94 94 95 95 98 102 102 100 102 102 103 101 101 105
25 27 27 32 34 34 37 41 46 50 53 55 57 60 63 65 70 75 78 81 85 89 91 90 92 95 97 100 101 99 100 98 99 101 103 102 105 103 104 104 103 106 110
33 35 38 43 43 46 49 51 53 56 58 59 61 65 66 65 74 79 79 79 83 88 92 96 97 98 100 104 106 107 104 105 106 105 105 102 101 104 106 108 111 113 116
33 36 40 44 47 50 53 55 59 59 62 65 66 67 67 73 77 80 85 89 91 91 95 99 100 103 106 109 108 109 108 109 109 109 104 98 104 105 109 112 117 117 117
39 40 43 47 50 51 55 59 62 64 66 68 70 72 77 77 81 84 84 87 90 94 96 99 103 106 109 111 112 113 115 113 111 109 107 104 108 110 113 116 120 119 116
44 46 48 51 55 57 61 65 68 70 72 75 77 79 80 80 86 90 91 91 93 96 99 102 107 112 113 114 116 118 120 117 112 109 111 111 113 115 116 117 119 119 116
49 50 52 55 58 61 66 70 73 77 79 81 82 83 83 87 91 94 97 96 99 100 104 108 112 115 117 119 121 123 122 117 114 111 115 116 117 117 115 117 117 120 113

GFSMA_250_spd_096.txt.gz
Wind_Speed
33 33 34 32 31 26 13 17 20 23 16 25 28 30 25 31 39 41 40 38 48 45 43 41 41 43 44 45 43 45 47 49 49 52 63 65 70 68 70 73 71 73 76
39 30 26 27 26 28 24 17 21 24 19 24 29 32 39 42 46 49 47 49 53 46 45 45 47 48 46 45 48 49 49 53 61 64 66 64 68 71 70 73 76 78 78
46 36 29 28 26 29 27 26 28 28 30 30 36 40 41 45 45 46 56 59 56 51 45 48 49 46 47 51 53 54 59 62 64 69 68 68 68 72 78 75 76 76 76
33 32 33 35 27 33 30 33 31 29 33 42 42 40 52 52 54 59 63 59 49 47 49 50 46 47 52 55 59 62 64 66 69 67 66 71 75 74 75 73 72 74 76
42 36 39 38 36 38 38 39 35 33 42 39 45 53 55 61 62 66 57 51 50 50 48 47 49 50 55 58 63 65 67 65 67 69 70 72 72 65 69 73 72 74 74
37 36 40 32 35 38 42 37 43 50 44 49 50 54 66 68 68 65 54 55 52 50 49 49 50 56 60 63 66 67 67 68 68 65 66 63 62 68 72 71 70 69 72
42 46 46 43 52 50 50 54 55 44 52 49 59 69 66 71 67 57 54 54 52 52 51 54 60 63 63 64 66 68 63 59 57 60 67 65 65 66 67 65 65 66 66
49 49 52 53 54 56 56 54 53 55 54 59 68 67 70 68 60 51 52 53 56 55 57 60 63 62 62 65 60 49 52 56 59 63 68 70 68 65 63 64 65 64 66
50 51 51 53 55 52 60 55 56 58 57 67 73 73 70 61 54 55 56 57 58 59 60 61 64 64 64 60 54 57 64 66 69 69 72 73 71 74 72 70 70 70 72
57 53 58 58 61 64 61 64 66 68 70 76 77 67 56 54 57 57 58 60 58 63 63 65 66 70 61 60 61 65 70 68 74 74 73 73 70 70 68 70 73 75 76
53 53 55 58 59 58 61 66 67 74 74 71 61 55 55 57 62 62 63 59 60 63 65 66 61 59 64 63 62 67 68 72 77 74 74 75 76 76 76 75 74 78 78
55 55 58 61 63 69 73 74 71 62 61 55 54 54 58 59 63 63 60 58 56 57 58 57 60 64 62 61 63 64 67 71 71 73 75 77 78 80 81 82 83 82 82
61 64 65 65 65 69 70 70 71 64 61 55 54 54 61 61 60 60 55 52 54 45 49 55 60 61 64 68 70 67 66 70 71 71 73 74 76 77 81 84 86 88 90
69 67 73 73 69 64 68 71 67 65 60 54 54 58 60 61 60 57 58 57 46 53 59 66 68 69 69 70 72 71 73 76 75 77 77 77 79 79 82 87 89 91 92
61 63 65 64 63 61 59 60 55 56 54 60 61 55 60 60 60 57 45 48 56 62 70 70 69 71 77 80 76 76 78 82 82 83 84 85 86 87 87 89 91 93 96
51 52 53 54 55 57 55 53 55 58 59 54 53 55 55 54 57 48 47 46 51 62 68 70 68 76 82 84 82 82 85 88 87 88 88 91 90 92 92 93 95 96 97
48 49 51 52 52 53 55 55 51 51 49 49 50 53 53 56 51 50 53 50 54 57 66 71 77 79 80 88 92 92 96 95 93 93 92 93 94 96 97 98 99 97 97
46 47 49 51 50 48 45 46 46 49 47 48 53 52 53 54 53 56 54 53 58 63 67 70 77 78 84 94 95 95 95 95 94 99 99 100 98 98 100 102 100 101 106
38 39 43 43 42 41 38 36 33 36 37 40 44 49 50 49 53 59 62 65 66 69 70 72 79 78 87 87 86 88 90 95 97 100 100 102 103 104 105 106 108 109 109
26 27 30 31 29 28 29 32 35 39 41 44 48 52 56 60 63 66 66 67 69 71 72 76 84 87 92 93 92 94 97 96 99 103 106 108 109 111 111 112 114 114 114
20 21 25 29 32 35 36 38 42 45 48 51 54 57 59 62 64 67 68 69 71 74 79 84 85 87 91 95 99 100 102 102 104 108 110 114 116 116 115 117 117 118 118
21 22 25 28 32 36 40 44 45 47 49 52 54 58 61 65 68 70 73 74 77 80 82 82 86 87 91 97 101 108 110 110 109 112 113 117 121 121 124 124 123 121 119
28 29 30 33 36 39 43 46 48 49 51 54 56 58 61 65 70 75 79 81 82 85 85 83 84 89 92 96 103 106 106 110 113 117 120 119 123 125 126 126 125 125 121
36 37 39 40 42 45 48 51 52 52 54 56 58 63 67 71 75 78 81 85 87 89 89 89 90 93 97 102 107 109 110 113 116 120 125 124 127 128 129 128 124 121 121
44 44 45 47 48 50 53 55 56 59 61 66 68 71 76 78 82 85 90 93 92 92 90 92 95 99 103 107 111 113 116 119 121 126 128 130 130 132 131 125 122 122 121
51 50 52 53 54 56 58 61 64 68 71 76 78 82 83 87 90 94 97 99 101 97 97 99 102 107 111 114 118 120 121 125 130 129 134 135 135 136 129 125 124 122 121

GFSMA_250_spd_099.txt.gz
Wind_Speed
34 34 33 28 29 28 27 26 34 30 20 21 24 29 19 19 24 32 42 42 43 46 50 50 48 46 48 46 48 50 53 53 51 53 53 49 49 59 67 68 71 72 70
40 39 33 34 33 31 28 20 18 25 20 18 26 24 21 25 31 35 47 45 51 51 53 53 50 48 49 50 52 54 56 53 52 54 53 58 65 66 69 71 72 70 73
38 41 41 39 32 33 31 27 22 21 23 24 28 28 31 33 41 43 53 54 53 57 59 60 52 53 52 53 55 59 54 51 55 60 61 66 69 69 69 67 69 71 70
39 41 43 36 36 38 30 27 24 23 29 28 31 34 36 43 46 52 57 58 57 60 63 56 54 53 53 56 58 54 54 58 60 65 66 69 71 71 70 63 60 56 59
39 39 41 39 39 39 33 28 32 34 35 36 33 40 45 46 55 61 60 58 60 63 67 58 55 56 55 56 56 57 61 64 65 70 70 72 71 72 65 62 67 72 62
43 40 40 39 32 36 36 31 28 33 39 38 42 47 50 58 62 64 61 65 65 67 60 54 54 53 57 57 57 62 65 67 69 72 71 71 70 60 63 62 64 63 62
42 40 35 36 38 35 38 35 39 44 46 50 51 55 59 62 64 67 64 68 69 65 58 53 56 54 56 60 63 69 69 70 70 71 71 62 60 63 69 71 72 65 67
44 38 36 36 41 38 47 39 42 50 55 54 56 60 63 66 68 66 69 74 64 59 54 55 58 63 64 65 68 70 71 73 72 60 62 66 67 66 62 65 64 63 64
43 37 34 38 41 42 47 48 50 57 59 62 66 66 64 67 69 74 74 64 59 55 58 62 67 66 68 68 71 74 73 70 64 56 64 65 64 69 64 65 65 64 65
41 43 46 45 48 56 53 54 55 57 61 65 69 68 70 75 74 72 71 61 60 64 67 66 67 72 70 69 67 64 64 65 66 73 69 58 61 66 67 70 71 72 71
48 49 52 57 61 58 59 59 60 65 65 71 71 70 74 76 81 65 63 65 68 69 70 72 68 68 68 66 59 58 53 49 53 55 59 61 63 67 68 72 70 74 76
53 57 57 58 59 62 62 64 66 64 66 70 75 79 83 82 71 66 67 69 70 70 71 69 64 61 64 57 56 65 63 60 63 66 68 68 72 77 77 81 81 78 78
60 60 58 58 60 62 63 64 69 69 72 73 79 83 70 65 65 69 71 69 68 68 67 63 65 62 57 59 62 65 65 68 72 76 81 79 83 85 84 87 83 82 82
58 60 61 61 64 64 65 68 72 77 79 75 68 67 66 67 68 66 69 72 69 63 62 65 63 58 56 60 65 70 68 73 76 79 82 79 78 83 86 87 87 85 83
58 57 61 64 66 70 73 72 69 69 68 69 69 67 65 63 67 70 71 68 63 60 60 60 59 58 59 59 61 69 70 81 79 78 80 81 79 82 83 84 85 85 84
62 63 66 67 65 67 67 68 65 67 66 66 66 65 65 68 66 64 65 65 66 61 61 61 59 60 64 67 68 69 74 79 79 82 85 82 89 86 88 88 87 89 92
63 65 62 62 61 59 59 60 62 65 64 64 67 66 63 60 60 61 61 62 59 65 60 62 65 67 67 68 70 74 76 78 81 86 83 87 91 90 93 95 94 98 98
60 59 57 59 60 61 62 64 65 64 61 58 57 55 52 51 49 50 55 58 61 64 65 65 68 69 69 73 74 77 80 83 86 84 86 92 95 96 97 101 103 107 108
57 57 58 60 61 64 60 59 57 56 54 46 42 42 46 49 50 54 58 59 60 62 65 66 68 70 72 75 78 81 85 88 91 90 90 92 97 102 106 106 109 110 112
51 51 51 51 50 47 46 44 41 39 40 43 45 47 49 51 52 55 57 58 61 61 61 63 65 66 69 73 78 84 89 92 93 94 92 95 99 99 104 108 112 115 117
37 36 36 37 37 35 33 37 40 43 46 48 50 52 53 55 56 58 59 59 60 64 68 72 74 76 78 81 86 88 90 93 97 98 98 98 100 103 106 110 113 117 120
33 34 34 35 33 34 38 40 42 44 46 49 51 54 56 59 60 61 62 64 69 70 78 80 80 84 86 88 92 95 99 99 98 99 101 101 104 105 110 114 116 118 121
31 33 34 36 37 39 42 44 47 50 51 53 56 59 61 63 65 67 72 75 79 81 85 88 90 92 94 96 99 102 105 109 107 106 106 106 110 113 116 118 120 122 124
37 39 40 42 42 44 48 51 53 55 57 60 61 63 65 68 72 76 79 81 84 88 91 94 97 101 103 103 106 109 113 116 117 113 113 113 118 119 122 122 124 126 129
45 46 46 48 49 52 55 56 59 60 63 65 67 70 73 74 77 81 85 87 91 95 98 101 104 107 109 109 112 117 120 123 122 118 118 122 123 126 127 127 129 130 131
53 56 57 56 58 60 62 63 65 67 69 72 75 77 78 82 86 91 93 96 99 103 106 109 112 115 116 118 120 124 128 130 129 124 127 131 131 132 132 129 130 134 136

GFSMA_250_spd_102.txt.gz
Wind_Speed
25 31 34 33 32 35 41 32 32 28 31 33 32 29 29 34 33 30 27 24 31 30 36 42 42 44 44 50 52 51 51 51 54 57 61 58 57 54 56 55 53 62 68
33 36 32 36 35 40 31 29 27 27 27 30 30 32 34 36 37 32 30 29 32 36 38 44 48 51 55 59 57 56 55 56 57 59 59 60 57 58 57 62 66 71 72
32 39 37 36 36 34 32 29 29 29 30 30 29 31 29 27 32 26 36 41 39 39 47 48 53 58 59 63 61 59 56 59 60 59 57 59 59 62 67 71 73 77 76
38 38 42 39 36 37 36 32 32 25 20 27 23 21 24 34 31 33 39 41 46 49 52 57 59 60 63 67 64 63 59 59 58 61 61 59 62 67 70 73 77 76 75
48 48 46 42 39 40 37 35 31 29 27 26 28 31 29 32 37 39 45 44 43 51 56 62 60 65 70 66 62 60 59 60 62 62 61 65 68 74 73 73 70 65 50
51 51 48 43 46 40 34 28 29 34 30 29 30 36 37 36 39 45 44 51 58 59 62 62 66 71 72 62 59 59 58 61 59 63 67 71 72 74 76 70 71 65 66
51 53 48 42 41 44 37 34 33 35 36 34 35 36 46 50 52 47 53 57 61 61 65 70 74 72 69 59 56 58 58 59 64 69 73 74 73 75 73 70 55 60 62
55 52 46 43 37 41 42 38 41 41 42 39 43 43 49 51 51 53 55 62 66 69 71 76 76 74 68 57 56 63 68 70 71 75 77 77 74 68 64 61 67 64 58
59 54 47 46 40 37 36 40 42 45 47 45 42 49 49 53 54 59 64 66 69 74 75 77 79 70 63 64 66 70 71 76 76 74 73 70 57 55 51 48 50 52 54
51 50 44 42 41 38 38 39 41 49 52 52 53 54 57 60 63 64 66 72 74 75 81 80 69 67 65 67 72 76 77 74 69 72 70 59 59 59 58 57 54 55 55
47 48 47 46 42 41 38 43 52 59 59 58 59 59 62 67 65 71 75 74 79 83 78 67 68 69 71 74 72 70 69 70 72 69 69 66 63 56 57 58 63 68 68
50 47 49 46 44 47 48 55 61 63 62 66 66 66 67 68 71 72 77 80 80 70 68 69 71 74 70 72 66 66 67 65 61 60 63 62 63 61 64 65 69 74 75
52 51 52 49 51 55 59 62 66 66 67 67 70 71 70 75 78 78 83 80 73 71 72 77 76 71 69 66 65 66 65 60 64 63 64 65 67 67 69 71 76 76 78
53 56 54 56 58 60 62 64 66 68 69 69 70 74 77 81 83 83 76 74 75 74 77 73 73 66 66 66 65 67 61 64 67 68 69 71 72 75 76 78 80 80 83
52 53 55 56 59 61 65 68 70 71 69 70 73 77 81 86 84 77 73 75 72 72 74 73 66 66 64 62 63 63 63 67 66 68 71 74 75 77 80 84 85 86 87
55 57 58 61 64 66 69 71 73 75 74 76 80 84 87 84 77 75 76 75 77 75 62 62 58 56 55 59 65 67 68 67 68 69 71 73 75 76 79 81 85 88 92
62 63 65 66 67 66 66 68 72 74 79 84 83 83 80 75 76 78 80 73 66 59 50 53 55 58 60 62 62 62 61 62 63 64 70 73 75 78 81 83 86 88 90
68 69 71 70 71 73 74 76 79 81 80 79 77 77 77 79 80 76 71 59 55 55 54 51 56 61 61 63 62 64 66 71 71 72 77 79 82 84 85 87 90 92 94
71 72 72 73 74 76 79 79 82 81 76 74 75 77 78 78 72 64 55 58 58 58 59 59 59 63 63 66 68 71 75 78 79 80 82 84 88 91 93 93 95 96 96
75 73 76 78 79 78 72 71 72 73 73 74 76 74 67 62 58 60 61 61 63 65 66 67 68 68 71 71 78 78 81 83 86 87 88 91 93 95 96 97 99 101 103
63 67 68 67 67 66 68 68 67 65 62 60 58 57 55 55 55 59 62 66 68 70 72 74 74 76 78 81 85 87 88 92 92 96 98 99 101 101 102 103 103 106 109
38 42 46 49 50 49 51 52 51 52 52 51 51 52 54 57 60 63 67 70 73 77 78 80 81 84 87 90 91 92 94 96 99 102 106 108 109 109 110 111 112 114 117
35 37 40 41 43 45 48 49 48 48 49 52 54 57 61 64 66 68 72 74 78 80 82 84 88 92 94 96 98 100 102 104 107 111 113 112 117 115 117 118 120 121 122
39 39 39 39 42 45 49 52 54 55 55 57 59 61 64 67 70 75 77 77 82 85 88 92 94 98 100 103 105 106 109 111 115 119 121 121 122 122 124 126 127 129 130
50 49 49 48 49 52 55 57 59 61 63 65 68 70 71 73 75 79 82 85 89 92 96 99 101 105 107 110 111 113 115 119 123 126 130 130 131 131 132 132 136 134 133
52 53 57 59 58 58 61 66 68 69 70 72 76 78 80 83 85 88 91 94 96 98 102 105 107 110 113 116 117 120 123 129 133 134 137 139 139 143 142 139 135 133 129

GFSMA_250_spd_105.txt.gz
Wind_Speed
30 24 16 18 23 25 41 40 39 34 31 29 29 31 29 30 28 34 31 34 33 29 25 26 27 31 35 40 42 49 53 58 61 61 60 57 56 56 57 58 55 56 56
32 29 22 20 29 26 34 42 45 41 32 32 30 27 30 29 29 41 40 36 36 34 35 31 34 37 39 43 48 51 56 62 67 66 63 59 58 58 55 57 58 57 60
34 32 26 26 30 31 31 42 47 45 39 32 28 31 31 32 32 38 39 45 45 45 42 33 37 41 47 51 54 58 65 65 68 67 63 62 59 56 59 56 58 62 68
42 34 30 23 31 34 32 37 40 42 34 28 30 28 29 33 31 36 39 36 43 37 38 41 42 49 53 56 59 63 68 69 70 70 61 60 58 56 55 60 66 70 74
46 36 27 27 26 33 33 37 36 40 35 28 23 33 32 34 37 30 33 37 36 38 43 45 48 52 57 61 63 66 72 71 72 67 59 55 53 58 63 67 72 74 76
47 41 42 41 38 35 37 37 41 42 37 33 30 28 29 30 32 35 36 37 41 43 48 48 54 59 63 67 68 69 77 79 68 59 55 54 59 65 68 71 74 69 68
49 48 49 40 37 40 43 46 43 42 38 33 33 34 34 36 40 38 40 45 42 45 50 53 58 61 63 66 72 78 78 71 59 55 59 64 68 73 76 67 68 67 60
52 43 41 41 42 41 43 47 43 42 35 35 36 39 37 43 39 42 41 49 49 51 56 58 64 68 71 75 75 82 73 67 62 63 66 69 75 70 64 64 61 58 60
55 56 49 47 46 42 49 46 47 49 43 42 44 47 48 45 44 45 44 47 51 57 63 66 67 72 73 79 82 77 65 64 68 72 72 74 65 63 62 57 59 59 62
59 58 55 56 58 53 53 47 44 46 47 46 50 53 51 51 46 44 49 49 53 57 64 67 72 76 80 82 78 66 66 71 72 74 71 62 62 60 54 59 59 58 58
62 58 58 55 60 59 57 52 48 47 48 52 55 57 54 48 50 52 54 57 63 66 68 70 77 80 84 74 73 73 75 79 76 72 63 60 60 58 62 62 61 61 62
58 53 46 51 59 56 60 60 53 52 54 56 57 61 57 55 53 58 62 62 66 70 72 78 84 86 82 72 73 76 78 73 70 65 61 59 59 60 60 62 63 63 61
44 44 42 40 50 54 59 60 56 52 58 60 64 64 62 64 65 67 68 67 71 75 78 84 84 79 75 77 80 76 77 71 63 58 57 61 63 62 62 63 61 61 64
46 46 47 50 53 55 57 60 59 60 62 64 66 66 68 70 72 71 72 73 74 80 85 85 83 83 82 81 83 77 67 59 54 56 60 61 62 64 65 64 64 67 68
48 55 50 54 56 60 60 62 65 66 65 66 68 70 72 73 74 76 78 80 79 84 84 88 83 83 83 88 76 65 60 60 59 61 60 63 65 65 65 69 71 74 74
50 50 51 54 60 62 65 67 67 67 68 69 71 74 76 78 79 83 83 84 85 87 83 85 86 86 89 73 62 63 63 62 63 64 65 67 68 70 72 75 76 78 81
55 54 54 55 57 62 64 67 69 69 71 72 74 77 79 80 81 85 87 89 88 88 81 84 86 88 67 62 61 62 65 66 66 67 69 70 72 77 79 83 83 86 88
60 61 61 61 61 64 66 68 70 73 74 76 79 80 82 84 86 89 90 90 89 86 85 85 75 63 65 65 66 68 71 73 73 73 74 76 79 83 88 91 93 93 94
60 60 62 63 63 66 67 71 74 76 79 80 80 83 86 89 87 89 86 82 87 87 77 66 64 65 65 67 70 73 74 76 78 79 81 83 86 91 93 98 100 100 100
67 65 66 66 69 72 74 76 76 77 80 82 84 83 84 86 88 88 87 80 71 68 66 66 67 68 68 69 72 75 79 82 84 86 86 88 90 94 96 97 101 104 106
73 75 76 78 75 79 81 81 80 81 79 83 83 85 83 81 77 70 65 64 63 65 70 72 74 75 78 79 79 80 82 84 89 91 95 98 100 102 103 105 107 107 108
40 48 53 56 66 68 71 74 77 81 78 76 73 70 64 61 58 58 61 66 67 70 73 75 78 81 83 85 87 91 93 94 97 101 102 105 108 109 112 114 115 115 117
30 31 33 37 42 46 50 53 54 55 57 57 58 57 56 58 61 65 68 74 73 77 79 83 86 89 91 93 96 99 101 104 107 108 110 112 116 119 120 120 121 122 124
40 41 41 42 42 45 49 51 53 53 54 56 57 59 62 64 68 72 74 80 82 84 88 92 95 97 101 104 105 108 111 115 116 120 121 122 123 123 124 126 127 128 129
45 45 46 49 52 54 56 59 60 60 61 62 63 65 68 71 79 76 85 86 90 93 95 98 101 105 108 110 112 116 120 123 125 127 129 130 132 129 129 131 135 138 140
50 51 55 58 59 59 61 63 65 67 69 73 74 77 80 81 85 88 90 94 97 100 102 105 108 110 114 118 120 124 126 127 131 135 137 136 136 137 131 132 136 137 138

GFSMA_250_spd_108.txt.gz
Wind_Speed
26 23 21 7 7 13 18 24 28 30 38 32 34 31 31 32 34 38 42 33 35 37 37 29 27 26 29 30 32 35 39 42 45 46 51 56 61 69 61 54 54 52 52
35 24 27 18 15 14 16 20 32 35 31 31 31 30 34 34 32 25 21 30 37 36 33 34 33 38 43 31 37 39 43 46 51 55 55 59 64 72 63 54 51 51 49
40 29 29 25 22 20 20 19 29 39 33 37 39 36 30 28 25 28 20 35 36 38 37 42 45 48 44 39 44 44 49 51 54 57 60 64 72 67 57 54 53 50 50
37 41 34 29 24 22 24 20 25 29 42 41 41 35 31 26 27 25 26 30 39 40 44 45 50 55 42 43 45 49 51 54 56 61 64 67 69 62 54 53 49 56 61
44 43 41 33 20 22 20 21 21 24 30 35 40 34 30 28 25 25 30 32 35 41 46 45 44 44 48 48 51 53 55 59 61 67 70 78 72 60 53 52 55 61 71
48 44 40 31 25 19 21 24 26 28 28 32 36 33 31 31 30 32 35 36 42 41 40 40 41 43 47 51 55 56 58 63 67 72 75 78 65 59 54 62 66 73 74
49 47 39 32 34 33 29 33 32 32 33 35 36 35 34 31 36 35 37 36 35 38 42 43 45 50 52 54 56 59 63 66 70 74 80 68 60 60 64 73 71 70 62
54 46 42 40 37 39 40 37 34 34 35 41 42 42 38 35 35 37 39 37 39 43 41 43 48 50 52 56 57 65 69 68 72 77 77 60 68 73 74 74 68 62 53
57 52 47 41 41 40 40 41 37 34 38 44 41 45 44 43 40 42 42 46 45 45 44 49 53 56 57 59 63 68 70 72 77 74 66 70 72 76 75 66 60 57 55
54 52 52 49 49 45 48 45 43 40 38 42 45 50 51 48 48 52 53 52 50 47 49 54 57 60 63 66 69 71 72 76 79 73 69 74 79 78 72 59 55 53 56
53 57 60 56 55 50 49 51 51 43 43 47 50 54 56 57 61 62 57 53 55 57 60 62 65 66 67 72 73 75 79 81 74 75 80 79 80 68 61 57 55 57 58
65 62 62 59 55 57 55 55 50 48 48 50 53 54 59 58 60 60 59 59 58 63 63 68 72 73 76 77 78 80 81 85 84 82 79 81 74 63 57 56 58 61 61
63 65 65 61 55 54 51 52 53 55 54 55 60 63 61 63 67 68 66 62 67 68 68 72 74 77 79 82 85 85 88 86 85 83 84 77 62 61 60 62 63 64 65
50 52 55 56 51 48 45 45 47 51 55 58 60 66 66 69 68 68 67 67 69 71 73 78 78 82 84 84 86 89 89 86 84 85 72 62 64 62 64 65 66 68 69
40 47 47 44 45 45 46 48 50 55 60 62 65 67 68 70 71 71 73 75 72 75 78 83 84 84 86 88 91 93 85 89 85 73 62 62 64 66 67 70 72 73 74
47 46 47 48 48 52 54 57 59 59 64 66 64 66 68 69 72 76 77 77 77 78 81 88 88 91 93 92 91 89 89 83 69 64 68 70 68 70 72 75 77 78 79
45 48 49 49 51 53 58 61 63 64 66 66 68 69 70 73 76 78 79 78 83 84 83 88 92 93 92 91 90 87 75 65 66 70 70 73 74 76 76 78 81 84 85
50 53 55 54 53 55 58 61 60 63 65 66 68 71 73 73 77 79 80 83 84 86 88 90 96 95 92 90 85 72 68 67 68 71 73 76 77 80 82 83 85 87 90
55 57 60 60 58 58 58 61 63 65 65 67 69 72 73 77 82 84 83 85 91 94 96 96 91 92 87 77 70 69 69 72 74 75 78 81 83 86 89 93 96 98 100
54 54 56 58 60 62 64 67 69 69 70 72 75 76 78 80 83 85 88 90 92 96 93 90 83 78 74 70 70 73 76 78 78 81 84 87 91 93 97 100 103 105 107
40 64 64 64 62 65 68 69 71 73 74 76 77 81 82 85 89 87 89 90 87 79 73 73 74 73 73 72 75 78 80 84 88 90 94 99 102 104 106 110 112 114 116
26 31 40 62 74 78 76 69 64 68 73 76 77 77 77 79 82 79 75 70 70 71 72 76 79 79 82 85 84 87 89 91 95 98 100 104 108 110 114 117 120 123 124
35 31 30 33 37 39 44 46 50 54 57 60 62 60 61 63 65 66 66 67 71 75 78 81 84 88 90 90 93 97 100 101 105 107 110 111 115 117 121 125 129 131 133
33 37 40 42 43 44 44 45 47 48 51 53 56 59 62 65 67 69 71 74 79 80 84 88 91 94 96 100 102 104 107 111 114 116 116 119 121 123 126 131 135 134 133
37 37 38 39 43 47 50 52 54 56 58 61 64 67 70 72 75 77 79 83 87 90 92 96 99 101 103 106 109 113 115 119 122 125 127 128 128 131 130 132 135 140 144
42 49 47 46 47 51 53 54 57 61 64 67 71 74 77 80 81 83 86 89 93 95 98 102 106 109 111 114 117 121 123 121 123 128 131 128 126 128 125 128 133 138 139

GFSMA_250_spd_114.txt.gz
Wind_Speed
25 27 25 24 22 18 15 11 6 5 6 6 11 23 30 23 26 23 23 25 27 23 25 27 27 26 26 33 35 24 27 28 33 36 37 39 43 44 45 47 48 50 55
35 28 29 26 22 18 15 13 6 3 10 8 12 17 25 28 21 26 19 14 25 27 28 30 34 34 34 38 33 31 28 30 37 39 42 47 48 49 50 50 52 52 58
43 36 31 25 22 17 16 11 6 2 7 12 13 11 25 27 22 26 26 24 24 27 29 32 27 26 30 40 40 36 33 40 43 43 46 49 51 52 51 53 53 54 58
40 40 34 33 24 19 19 12 9 3 1 4 8 14 15 22 27 28 25 24 24 28 26 25 21 26 35 40 37 33 39 45 49 50 52 52 52 53 53 55 56 57 59
39 35 36 34 31 25 20 15 14 12 8 1 6 10 15 16 19 25 27 28 28 25 22 23 27 32 34 36 39 40 43 47 46 45 48 49 52 55 54 57 59 59 63
36 35 27 36 35 28 22 19 18 14 13 8 8 8 11 12 15 19 25 29 28 28 24 28 33 35 42 43 43 43 44 42 42 45 47 51 55 56 60 59 61 61 61
52 46 40 34 45 42 31 22 19 17 17 14 16 15 14 12 12 14 18 23 27 27 28 29 33 33 36 38 39 41 44 43 45 48 51 56 59 61 63 61 61 63 63
56 57 54 50 48 45 44 43 29 23 20 20 24 20 18 19 16 17 20 26 29 31 35 37 37 39 41 42 44 44 47 46 48 51 56 57 58 63 65 61 62 67 68
50 45 52 50 52 47 45 41 34 30 25 24 29 26 23 28 27 28 26 27 35 37 39 40 42 46 48 51 51 52 56 55 56 58 61 64 65 66 71 64 66 70 72
39 44 51 53 50 42 43 42 39 35 34 28 23 27 30 32 32 32 34 35 36 40 48 49 48 49 52 54 57 61 64 63 64 69 68 71 72 71 74 69 71 74 75
47 53 46 41 42 40 42 45 44 36 36 29 31 35 40 41 39 41 40 39 43 46 53 55 55 53 55 58 60 66 69 69 71 73 74 75 76 76 77 74 77 78 81
48 52 50 50 45 46 42 44 43 41 43 40 38 44 44 43 46 50 51 48 47 52 58 61 63 64 64 67 70 74 72 72 74 76 77 77 79 80 80 79 81 79 87
52 57 55 54 52 51 52 50 48 46 45 45 49 48 49 49 50 52 52 52 49 54 62 68 69 72 71 73 75 77 77 76 75 74 77 80 82 83 82 82 79 89 91
54 59 60 56 54 52 51 53 55 51 51 51 50 49 53 52 52 57 54 57 56 57 63 65 66 67 72 72 74 76 77 75 75 77 80 82 86 86 87 86 86 96 85
61 58 55 58 57 56 55 54 52 52 50 52 55 55 55 58 55 59 57 58 59 63 66 68 68 69 69 70 69 69 71 74 78 80 86 88 90 91 89 88 97 84 73
66 63 61 58 54 54 55 55 54 53 55 58 59 58 58 58 59 59 55 54 55 58 59 62 68 69 70 71 72 74 77 78 82 86 90 92 94 93 97 93 80 75 71
69 69 60 60 60 59 59 61 61 59 58 57 58 58 58 59 54 56 57 57 57 59 59 65 70 73 74 75 77 79 81 84 88 91 93 96 99 96 86 79 78 78 79
54 52 50 49 50 53 53 56 58 54 52 54 58 57 57 57 56 54 55 57 61 61 63 67 72 75 77 79 81 85 88 92 92 96 98 96 87 84 81 84 87 87 87
44 46 43 45 42 45 44 46 49 51 52 55 52 51 54 57 56 59 58 60 63 66 69 71 74 76 77 78 79 83 97 95 92 88 84 82 85 87 90 92 93 95 98
34 47 43 42 41 38 41 44 48 52 55 53 50 53 54 57 60 62 63 66 69 71 72 74 75 78 79 84 93 94 84 81 81 83 85 89 91 94 97 100 102 104 105
15 26 42 43 42 41 43 49 54 55 54 55 57 58 60 62 66 67 68 69 70 72 74 78 80 84 87 81 78 78 78 82 83 87 91 94 98 102 103 106 108 108 108
16 17 20 30 38 40 47 53 54 56 59 63 67 68 69 67 68 68 69 69 72 77 82 83 71 69 70 73 76 77 81 84 90 92 95 100 103 105 107 110 111 113 115
25 23 23 26 34 40 42 44 48 51 54 58 59 60 64 68 70 71 71 68 65 65 67 69 72 74 77 80 83 89 93 94 94 95 97 103 106 108 110 114 115 115 117
30 30 29 31 31 35 40 45 50 52 54 56 58 58 57 58 59 58 59 62 65 68 72 75 78 81 83 88 92 93 92 92 96 99 103 105 107 106 108 111 112 114 115
33 33 33 33 36 36 38 38 43 47 48 52 56 59 60 61 62 64 65 67 69 71 74 78 82 86 91 91 94 94 97 97 104 107 105 105 107 107 111 112 113 111 113
39 36 41 40 42 43 46 45 45 47 49 52 56 60 62 63 65 66 67 69 72 74 79 86 88 87 92 89 97 97 102 107 109 111 111 111 113 114 108 113 117 124 125

GFSMA_250_spd_117.txt.gz
Wind_Speed
30 35 35 32 32 31 26 20 17 13 9 9 9 11 16 23 23 24 17 19 16 24 29 22 25 26 28 27 26 32 34 33 26 28 28 30 31 37 41 45 47 48 45
35 43 42 35 31 30 26 25 17 12 8 9 8 6 13 15 23 19 16 16 17 21 24 25 25 28 28 26 29 34 39 36 26 26 31 33 36 42 44 48 50 49 48
42 36 36 31 31 30 26 23 20 14 10 9 5 7 5 15 17 18 21 22 18 18 18 22 27 26 27 28 35 37 37 35 30 33 35 40 40 45 43 50 50 50 49
49 40 33 33 30 29 30 25 18 13 11 11 5 5 8 14 16 21 18 23 21 20 19 25 24 26 26 26 32 38 37 41 33 36 38 42 47 49 51 50 51 51 50
52 45 40 33 30 30 28 23 22 18 11 12 9 4 11 12 15 17 21 25 25 25 22 25 23 23 21 22 25 30 39 43 42 42 47 47 45 46 50 50 52 53 54
53 51 41 36 35 32 28 26 22 17 14 13 10 6 8 6 7 9 12 15 23 28 24 26 25 23 25 29 33 36 39 43 47 48 51 48 47 47 48 50 53 56 56
47 47 50 48 36 39 34 31 27 22 17 19 12 9 8 8 7 7 6 9 12 15 21 25 28 27 31 35 36 40 45 52 53 50 48 47 49 50 53 57 61 63 65
47 49 47 43 35 43 38 36 27 22 24 20 19 15 15 14 14 7 11 12 15 15 21 25 30 34 34 38 41 42 45 46 49 50 52 55 57 59 61 64 65 66 68
51 44 48 42 35 41 42 42 38 34 33 26 24 22 21 23 20 16 15 18 17 20 24 24 30 38 44 45 47 49 49 51 55 56 58 60 64 66 67 68 71 70 68
49 54 50 48 44 48 40 44 44 41 37 32 32 28 26 21 21 28 24 24 26 26 30 32 32 40 46 51 53 55 54 58 61 63 64 66 71 75 74 75 73 69 68
40 50 59 53 54 48 47 41 44 45 40 35 35 34 31 26 27 29 33 34 34 34 37 41 41 45 53 56 58 59 62 63 65 67 70 76 77 76 78 77 73 70 70
36 50 56 51 53 52 52 46 44 38 36 37 37 33 36 33 31 36 41 40 42 41 42 45 48 52 56 59 62 63 67 70 72 74 74 77 77 76 71 68 70 72 75
39 48 48 54 52 54 50 51 44 41 39 40 41 38 42 40 40 44 48 48 48 46 50 50 53 55 57 58 61 63 67 68 70 72 74 71 65 66 68 71 74 77 80
42 47 54 60 63 53 51 50 48 48 45 43 43 43 45 44 47 48 49 53 55 55 56 54 50 57 60 62 63 65 70 72 69 67 66 68 69 70 73 76 79 83 86
49 50 61 67 61 60 59 57 51 45 45 47 47 49 50 52 55 52 53 56 61 59 59 57 58 64 65 64 64 62 60 63 65 66 69 71 72 74 77 79 82 89 91
55 55 60 65 67 62 61 59 53 51 51 50 50 53 57 57 57 57 58 60 63 63 56 57 56 59 61 64 64 64 63 65 69 71 73 74 76 78 79 80 91 94 92
58 62 62 61 63 65 60 55 52 54 53 55 57 56 57 59 61 60 64 62 60 59 54 57 59 62 66 66 66 67 69 72 74 75 76 77 79 82 83 91 90 84 81
44 66 66 65 63 60 60 58 56 52 57 54 57 58 60 62 60 61 60 62 59 55 57 65 64 66 69 70 72 76 76 76 77 79 80 79 76 86 89 85 82 83 84
20 45 71 72 62 56 47 46 50 53 52 54 54 55 58 62 66 61 61 59 56 60 62 65 67 69 72 77 79 79 78 78 81 84 87 89 84 85 81 85 89 91 91
13 22 36 60 68 67 66 63 62 62 56 52 54 54 63 63 55 54 62 64 67 70 65 68 72 76 81 81 76 77 81 85 86 85 82 82 83 88 92 95 92 90 91
15 10 34 45 52 53 50 49 48 48 52 57 58 59 58 56 58 59 60 64 69 69 71 74 77 76 76 77 80 85 84 81 80 81 85 88 92 95 94 94 95 95 96
18 16 18 42 50 50 51 51 49 50 47 53 58 58 63 65 65 65 62 68 73 78 75 75 76 76 76 77 81 78 78 82 84 89 93 94 94 98 99 100 98 102 105
22 19 22 22 34 47 45 50 50 50 53 56 59 58 61 61 66 66 71 73 72 73 74 75 79 77 75 73 74 79 84 87 91 93 97 100 99 96 101 103 108 109 115
28 27 29 26 28 31 40 54 55 55 58 61 65 65 67 70 73 73 71 69 72 74 74 74 72 75 77 80 81 87 90 92 94 99 99 100 99 104 109 111 116 118 124
35 32 34 34 34 33 35 40 49 57 62 63 66 68 72 71 68 66 66 69 71 74 76 79 83 85 86 89 91 92 94 95 98 98 102 104 107 111 111 116 124 127 131
41 39 36 39 37 36 38 40 41 44 46 48 49 53 56 59 62 65 69 73 77 78 79 81 84 84 88 91 94 95 96 96 100 104 109 111 115 116 114 118 129 132 132

GFSMA_250_spd_120.txt.gz
Wind_Speed
31 34 28 31 48 40 31 29 23 18 16 17 14 21 23 17 16 18 19 21 23 22 16 17 20 20 22 28 27 25 28 29 33 34 31 29 26 27 31 32 38 40 43
30 33 27 29 35 39 38 31 23 19 15 15 15 16 17 19 26 23 21 24 21 23 19 22 28 23 25 29 29 32 32 30 37 37 35 32 29 30 35 35 38 41 42
32 33 30 36 37 39 39 34 28 22 18 16 15 14 15 12 16 19 19 20 21 20 14 20 24 25 27 31 32 26 30 35 42 43 39 36 35 33 37 40 40 41 45
36 34 36 40 43 38 38 32 30 24 20 16 13 12 11 11 17 16 16 16 18 19 18 17 20 19 20 24 24 26 28 37 41 44 39 37 35 38 37 41 43 42 45
34 33 42 44 41 38 35 34 31 25 20 20 13 10 9 13 13 18 21 21 22 26 25 23 24 24 19 20 25 25 28 36 42 38 40 38 40 44 46 52 51 47 48
30 37 44 44 39 37 34 34 33 25 23 20 16 12 9 14 20 21 17 21 16 19 25 27 25 23 23 23 26 25 27 31 35 37 40 43 48 51 52 53 50 50 53
31 44 49 45 39 35 35 40 35 26 27 24 19 18 15 13 12 10 9 9 11 12 13 17 19 22 23 25 25 29 29 35 39 40 43 48 53 55 54 52 57 60 62
31 47 52 47 40 38 39 39 32 29 27 27 23 16 18 16 15 16 15 11 11 10 12 13 14 18 19 26 31 34 38 42 42 46 50 53 55 55 54 60 64 66 69
34 48 55 49 46 40 42 39 35 32 32 28 25 23 23 20 14 16 18 16 17 14 15 18 17 20 21 29 35 39 42 46 49 53 55 58 59 60 65 68 69 73 77
35 45 52 57 48 46 44 42 43 38 37 34 34 29 27 24 21 22 25 28 25 23 21 25 27 27 28 30 33 38 44 53 57 59 60 63 65 69 70 72 74 76 75
34 39 56 56 56 57 48 43 45 45 41 38 36 34 34 34 29 24 26 29 31 32 32 35 34 33 33 36 40 44 48 52 57 61 63 66 68 71 73 73 74 77 75
32 34 56 58 53 52 45 42 42 47 46 44 40 40 39 40 36 36 32 33 34 36 40 41 37 41 41 43 47 50 52 54 55 58 60 64 67 70 73 74 75 72 69
35 35 49 53 54 55 51 52 52 52 49 50 44 40 37 37 36 33 33 36 39 43 48 48 43 45 45 50 52 54 55 56 59 61 64 68 71 69 69 69 69 70 70
39 36 37 56 57 56 57 56 52 53 50 48 43 39 39 39 39 38 39 44 46 52 55 55 53 49 51 54 57 56 58 60 63 66 66 66 67 68 68 68 69 72 73
43 38 39 48 56 62 58 62 58 55 58 49 48 46 42 41 43 45 45 49 51 51 54 61 61 58 56 57 59 56 58 62 63 65 65 65 69 71 70 72 75 76 74
40 45 42 45 57 67 66 70 62 59 60 53 51 52 50 48 49 50 51 54 56 58 61 60 64 62 61 58 59 59 61 64 65 67 71 74 73 75 75 78 78 78 81
33 45 48 46 55 61 67 68 69 69 67 65 60 53 48 51 52 55 55 56 59 59 61 63 64 64 63 60 63 65 66 67 70 72 76 78 79 80 80 81 83 80 83
25 32 54 54 52 57 68 66 64 62 63 58 55 50 52 57 58 57 56 57 60 64 67 64 63 66 65 67 69 68 75 72 74 77 79 78 81 83 86 85 82 90 83
21 27 38 63 59 64 68 72 74 71 62 58 57 60 56 56 58 63 64 65 65 67 63 63 63 65 70 72 77 82 80 78 82 85 84 85 89 89 86 83 87 89 94
22 24 31 44 68 65 72 76 74 69 64 63 61 56 54 59 62 66 65 65 65 65 65 59 60 65 73 78 79 81 83 85 82 83 85 87 85 84 87 88 90 95 97
22 22 23 27 44 73 71 73 72 67 62 60 62 59 60 63 56 64 65 65 64 63 64 66 72 76 78 78 81 84 85 85 86 82 80 82 87 89 92 95 98 100 96
23 20 19 17 22 34 71 76 67 62 61 57 63 59 61 65 63 66 63 62 67 67 71 76 79 77 75 80 84 88 86 81 79 84 88 90 94 95 97 98 99 99 103
29 24 23 20 28 33 37 47 60 64 59 55 55 60 63 62 64 67 66 69 71 72 76 80 76 80 84 89 89 79 79 85 87 89 86 82 86 87 90 95 97 99 105
31 27 23 25 25 39 43 46 50 53 54 57 59 61 59 61 66 69 71 66 72 74 75 79 86 89 90 85 82 84 88 89 85 80 84 90 90 95 99 105 109 112 115
35 31 30 30 30 30 43 52 53 56 56 61 61 62 65 65 67 71 72 74 78 83 85 83 79 83 81 83 86 82 79 78 85 87 88 92 94 98 105 112 116 119 122
42 39 37 35 35 35 39 42 55 56 56 60 56 55 58 63 67 70 74 78 77 76 81 83 80 82 84 86 88 90 89 93 93 94 98 99 103 106 112 119 122 127 127

GFSMA_250_spd_123.txt.gz
Wind_Speed
33 32 30 34 34 38 42 50 46 42 37 26 23 18 20 24 23 21 17 13 16 14 18 13 23 24 31 29 27 32 32 28 26 32 35 39 34 33 31 32 31 30 33
34 31 31 32 29 27 37 43 35 31 27 24 22 21 23 24 18 18 17 13 16 17 21 22 18 17 19 20 24 25 29 29 29 34 36 35 35 36 36 35 34 34 36
33 34 31 34 33 30 33 38 45 33 30 25 21 19 18 24 22 21 19 21 22 19 17 19 27 24 27 27 30 28 30 35 33 36 37 37 42 40 38 36 38 37 37
32 35 33 36 30 32 33 37 40 37 32 25 19 16 17 17 25 24 21 15 21 21 20 21 17 17 20 24 27 26 31 29 29 32 36 43 45 45 43 41 40 41 42
32 35 36 36 33 37 37 41 40 39 33 25 21 18 18 17 17 15 12 16 10 19 19 21 20 23 27 26 22 19 22 25 28 31 35 42 48 47 47 44 43 47 49
32 35 36 38 36 38 40 40 36 38 34 28 23 22 19 15 16 16 16 19 15 20 21 21 26 29 25 23 23 19 19 22 25 28 31 39 41 41 42 47 48 51 57
35 34 35 40 39 40 43 40 40 37 36 30 26 24 20 18 15 15 19 19 18 24 21 22 21 23 24 23 21 18 19 22 26 27 30 34 40 43 48 52 55 59 61
35 31 36 38 42 43 44 43 40 39 35 32 30 25 21 20 19 18 18 16 16 18 19 15 13 11 15 13 16 19 24 28 30 34 37 41 45 50 52 55 59 62 64
33 34 37 39 43 44 47 40 42 41 36 35 31 27 26 23 20 15 17 18 17 18 16 15 15 15 17 17 18 21 27 31 35 39 44 48 52 56 59 62 62 64 66
30 35 34 40 44 48 47 39 44 41 41 39 34 31 26 21 23 18 20 21 20 22 23 23 21 19 21 23 26 30 30 30 35 40 44 48 54 58 59 58 59 61 64
30 30 33 38 43 50 47 41 43 44 42 40 36 34 34 27 29 25 25 25 26 28 30 31 31 31 31 29 28 34 36 40 40 44 48 52 55 54 54 55 60 64 69
29 30 33 39 39 49 49 45 42 47 41 39 35 37 38 35 35 32 32 28 28 32 35 35 37 38 40 37 38 37 41 43 46 51 54 52 54 57 60 62 64 67 68
30 32 34 40 46 50 54 49 45 48 42 42 42 40 44 40 37 33 36 37 35 38 40 40 42 43 46 44 44 44 47 48 50 52 55 55 55 59 63 66 68 66 68
33 32 38 41 46 52 56 55 50 47 45 48 44 44 45 46 42 38 37 41 37 36 36 40 45 50 54 48 47 51 50 50 52 55 55 57 60 62 66 70 71 72 74
32 30 42 37 36 44 53 56 55 52 49 46 46 45 49 48 40 39 35 35 37 40 43 47 49 53 55 55 58 59 60 57 56 56 60 61 64 66 68 74 77 80 79
36 34 42 38 37 37 42 50 50 53 53 52 54 52 50 48 39 40 43 43 47 48 50 54 56 59 57 59 60 63 63 59 62 64 67 67 70 73 79 79 80 78 75
35 36 35 45 42 38 44 50 51 58 55 55 54 53 50 50 44 50 51 51 53 54 61 59 60 62 61 63 65 62 60 62 66 69 73 76 78 81 82 80 78 82 81
34 30 36 45 45 44 40 48 53 52 59 61 51 53 56 56 55 58 60 60 57 58 58 59 61 60 61 66 72 66 63 64 68 73 77 79 81 83 85 85 83 73 75
35 38 38 36 50 48 46 49 58 57 56 60 65 65 66 65 65 64 62 57 58 58 62 64 65 65 69 72 68 67 68 69 74 76 82 86 85 83 76 76 83 82 86
38 35 33 44 38 54 53 52 53 60 63 63 66 65 65 65 64 65 58 60 63 68 69 67 67 71 72 71 70 70 74 78 83 85 82 82 81 84 95 91 89 92 90
38 37 36 34 42 42 58 58 55 60 63 68 68 68 70 67 65 64 62 63 67 68 67 67 73 71 69 71 74 78 80 84 86 83 79 91 95 92 89 90 93 92 92
39 37 37 33 30 38 50 54 62 61 64 65 68 69 69 62 61 62 63 65 68 69 69 68 70 67 72 73 79 78 79 82 82 85 94 96 90 90 96 97 96 97 100
41 38 38 34 28 29 32 41 63 69 62 73 73 77 74 71 68 69 65 70 72 72 72 75 75 78 79 82 82 79 80 85 90 94 91 89 92 96 100 103 106 105 106
44 42 39 34 31 25 26 28 26 40 67 74 72 71 67 69 70 66 67 67 69 71 75 76 77 80 83 79 80 85 89 88 87 90 91 95 98 98 100 102 103 105 105
47 44 39 37 33 34 29 33 34 34 38 46 52 66 70 71 72 70 68 70 71 69 74 80 81 77 79 85 87 89 88 88 90 86 92 96 99 101 99 99 96 99 107
50 47 42 39 36 36 34 34 41 42 41 41 48 56 59 61 61 66 67 68 72 76 76 78 81 85 90 94 93 89 92 92 93 96 99 99 101 100 101 104 106 110 115

GFSMA_250_spd_126.txt.gz
Wind_Speed
36 35 41 36 32 31 34 42 56 60 59 63 60 58 49 40 31 21 18 21 22 25 25 22 20 19 16 14 20 23 25 27 32 33 29 32 33 32 38 45 38 34 35
37 36 42 38 30 27 31 30 34 40 46 48 53 44 32 26 25 15 13 16 18 17 14 15 16 19 15 14 18 22 24 31 30 33 37 32 35 35 36 41 37 38 35
36 36 40 35 28 29 27 29 26 29 35 38 30 29 25 28 23 18 19 18 17 16 18 18 22 21 17 17 20 21 24 29 33 33 32 32 37 38 39 38 39 39 41
34 37 43 35 31 28 29 30 26 21 29 34 29 27 28 23 23 25 21 20 18 13 19 22 23 20 21 21 23 24 29 30 32 31 34 34 35 37 39 40 43 44 44
34 37 43 35 31 31 35 33 29 20 32 33 33 27 25 19 18 23 23 19 19 17 15 15 19 14 17 22 27 30 24 26 22 23 24 28 31 34 40 44 46 46 46
35 37 44 36 32 34 37 36 34 37 33 35 32 27 23 22 17 22 21 18 16 16 15 17 15 19 23 26 27 25 25 20 17 19 19 20 24 25 29 36 42 42 45
35 37 43 37 33 33 38 40 40 36 41 36 34 29 25 26 22 23 20 18 19 14 18 18 20 22 23 21 21 24 18 17 17 18 20 23 26 29 31 35 39 44 49
34 37 42 38 33 33 36 39 44 44 43 38 33 33 29 27 27 25 20 21 20 18 17 23 23 22 19 15 15 15 15 16 19 22 26 29 31 34 38 42 46 50 53
35 39 42 36 34 36 38 38 45 40 40 39 36 39 35 32 30 26 23 23 23 21 20 18 18 18 15 13 13 18 21 22 24 25 27 29 32 36 39 43 47 50 52
37 41 41 36 37 34 37 38 45 42 41 36 37 42 39 34 29 26 25 22 21 21 18 19 18 17 17 18 19 18 22 23 26 28 32 36 40 42 45 48 49 51 53
38 42 39 35 35 33 37 39 44 43 42 38 39 42 39 35 31 27 27 26 25 26 25 24 25 26 29 26 28 27 26 29 33 36 36 40 43 45 47 50 51 54 58
38 44 39 37 34 31 34 40 42 45 43 39 43 42 41 37 32 33 30 32 33 31 30 31 33 33 32 32 34 33 34 36 39 40 41 45 47 50 53 55 56 58 61
39 46 40 36 34 30 33 40 43 46 40 44 44 44 43 40 34 34 32 35 35 32 33 36 36 34 36 39 38 39 39 42 43 44 46 49 52 52 53 57 59 59 62
41 45 40 34 32 33 36 40 45 48 43 42 44 48 44 41 34 38 37 39 41 41 38 35 38 40 40 42 42 44 49 50 52 51 52 57 57 53 57 60 61 64 70
44 44 38 33 32 37 39 43 44 49 48 42 39 47 46 39 39 37 42 42 44 41 38 42 40 40 42 45 47 50 56 57 59 56 58 63 59 56 59 66 70 71 74
47 45 40 36 32 35 40 41 47 49 49 45 42 47 46 44 43 39 40 45 42 43 41 37 38 42 46 49 53 57 60 58 59 61 65 64 63 62 66 71 74 77 79
50 45 38 33 34 34 42 42 47 54 52 49 50 47 45 47 46 43 42 46 45 41 43 48 48 50 54 56 60 57 59 62 62 64 65 68 67 66 73 74 78 83 80
50 48 41 35 33 34 45 42 45 47 52 48 49 53 48 48 45 47 48 46 43 43 49 54 57 58 58 60 59 62 64 66 66 67 70 69 72 72 78 83 86 84 83
51 48 44 36 33 38 44 45 46 48 49 51 46 47 49 49 50 46 45 47 48 47 54 61 60 63 59 58 64 65 66 65 66 69 70 71 77 78 80 80 83 83 81
52 49 47 38 37 37 37 50 47 51 52 55 54 54 56 52 53 52 54 54 54 57 63 67 68 65 65 64 65 66 69 69 72 71 70 75 78 86 87 86 84 85 92
54 51 49 40 39 35 35 48 53 53 56 58 59 61 58 55 56 59 61 60 62 59 64 70 69 68 65 67 67 71 72 70 71 72 78 85 86 86 87 82 88 92 94
55 53 49 44 40 37 35 42 55 55 55 60 60 60 59 59 57 60 61 64 63 65 70 74 71 66 68 68 72 71 72 75 79 81 82 85 85 87 91 98 94 94 97
58 55 53 47 43 39 38 38 47 50 59 56 56 58 61 59 61 64 68 68 70 72 73 75 69 70 69 73 75 78 77 80 81 87 88 89 91 93 95 96 100 98 100
63 56 53 49 45 41 37 38 35 43 51 57 60 58 59 65 66 62 68 69 69 69 67 67 68 70 76 75 76 77 80 82 84 87 89 93 94 95 98 98 102 107 108
65 58 56 50 45 41 39 37 34 33 40 47 53 60 63 60 57 62 66 67 70 68 72 75 75 76 77 79 78 80 81 83 87 91 94 92 96 99 98 98 101 102 103
67 59 56 52 47 43 40 36 33 31 30 33 35 40 49 62 69 68 69 70 71 72 77 79 73 74 76 78 79 80 82 86 92 93 91 91 97 99 99 102 103 107 112

GFSMA_250_spd_129.txt.gz
Wind_Speed
55 55 48 38 30 34 38 41 39 40 41 55 49 46 44 52 56 57 53 53 35 24 23 25 25 22 22 20 20 22 23 26 20 18 23 31 32 30 34 33 32 34 39
57 60 50 39 31 31 37 34 32 37 39 33 33 33 35 41 44 51 59 34 22 17 19 22 22 22 19 18 15 17 20 20 22 23 28 33 32 35 38 35 30 36 36
56 61 50 41 30 34 34 29 30 35 32 25 26 31 36 49 48 43 35 29 21 16 18 19 17 19 19 17 13 12 17 21 20 20 26 35 38 32 33 34 34 36 35
55 57 51 40 30 35 36 32 33 33 34 27 24 25 27 31 29 29 28 26 20 17 20 20 20 26 25 18 12 12 16 18 23 25 28 35 31 32 30 33 32 33 36
51 54 46 39 29 36 37 32 34 33 33 28 25 27 25 24 27 25 24 25 22 21 20 21 23 20 17 15 15 14 19 21 25 23 27 25 17 18 22 24 27 30 38
47 49 41 39 30 37 38 35 34 35 34 24 26 27 27 26 28 24 22 24 25 21 20 19 24 20 17 13 18 25 27 28 24 24 18 11 11 14 17 19 21 24 28
50 52 41 38 30 37 42 38 35 35 32 36 40 29 26 24 26 25 25 24 23 22 21 18 19 20 18 20 23 24 24 21 20 16 11 11 14 17 20 23 26 28 32
50 53 42 36 31 40 43 40 36 42 37 43 41 30 26 27 27 26 28 28 26 21 18 19 20 20 21 21 24 19 12 13 13 13 15 16 17 21 26 29 32 34 37
51 48 42 36 31 39 43 38 36 42 42 42 44 30 30 31 34 29 29 31 26 25 20 21 23 26 27 22 19 14 11 14 13 15 16 17 21 26 28 31 35 37 40
53 49 39 33 31 37 42 41 38 41 45 45 42 34 33 35 38 35 31 29 25 25 26 26 25 22 19 19 20 16 17 20 20 20 20 25 29 33 35 38 41 45 45
53 50 39 33 34 38 44 40 36 41 43 40 45 43 38 38 40 38 36 35 32 30 29 28 23 19 23 25 24 23 25 26 26 24 26 32 35 37 38 42 46 50 50
55 50 38 35 37 43 45 38 36 40 43 35 42 43 39 43 44 45 42 41 36 33 29 30 28 29 31 33 30 26 29 30 30 29 32 35 36 43 43 42 48 50 52
54 50 37 36 37 46 41 39 35 39 42 33 40 40 40 40 46 45 44 41 38 37 34 35 33 35 34 37 34 33 34 36 37 38 38 43 48 48 47 48 51 55 57
56 48 39 36 37 45 40 38 34 36 39 34 38 43 43 40 45 48 47 43 40 39 40 39 39 39 37 38 34 37 40 41 41 42 46 51 53 54 52 54 59 61 63
54 45 39 35 41 44 36 37 33 33 35 36 39 44 44 44 46 47 47 42 44 43 44 44 43 40 40 38 40 40 42 47 46 48 51 56 56 57 58 59 61 63 65
52 44 39 36 44 47 37 36 31 36 35 36 39 43 46 46 49 45 48 44 42 44 43 40 42 42 41 43 45 44 44 46 52 54 58 57 59 61 62 62 65 66 67
52 41 38 38 46 46 40 39 35 37 39 37 40 48 47 47 45 46 51 45 42 37 40 40 45 44 44 43 44 45 50 55 56 59 57 62 62 64 64 65 65 68 72
51 43 39 40 48 48 41 40 36 41 42 43 43 47 51 48 47 46 52 46 45 39 42 40 43 42 43 46 48 49 55 58 60 64 66 65 63 65 68 68 73 73 75
48 40 39 40 49 49 43 40 39 36 44 42 47 48 56 51 48 49 52 46 47 41 45 45 47 44 46 52 55 58 61 62 65 65 66 66 66 70 73 76 75 78 82
42 35 40 42 50 51 43 38 40 36 41 45 46 49 53 57 50 49 52 51 45 45 48 49 50 51 55 55 60 66 66 67 65 66 70 69 70 75 78 77 81 83 88
44 42 41 47 51 54 47 41 38 40 42 48 50 51 54 56 62 55 54 52 47 48 51 52 51 57 62 60 64 68 70 69 70 71 72 73 78 79 79 81 86 86 89
45 42 40 51 52 55 49 43 40 43 42 51 53 53 55 54 54 58 54 52 50 52 54 56 60 65 67 67 69 73 74 73 74 75 79 77 78 79 81 84 84 87 87
45 42 41 51 54 54 51 42 42 43 40 41 52 54 56 57 55 54 53 55 57 58 59 61 61 65 70 71 73 72 74 76 79 77 76 79 82 82 82 85 88 89 87
46 46 43 46 56 56 51 47 43 39 38 41 43 50 56 59 58 58 58 60 62 61 62 63 65 68 70 70 70 69 75 76 77 77 80 83 83 83 87 89 88 89 90
55 53 46 46 57 58 53 48 46 45 39 36 35 45 49 59 57 61 61 62 64 65 63 65 68 69 69 69 71 74 72 76 77 80 84 85 86 88 91 91 91 95 100
62 57 49 49 60 61 57 51 49 47 40 34 32 36 43 51 55 60 61 63 64 66 65 65 66 65 68 72 76 78 80 80 81 82 85 88 90 91 89 92 97 103 105